[[{"header":{"parameterUnit":"m.s-1","parameterCategory":1,"la1":30.6,"la2":29.2853,"lo1":-89.7004,"lo2":-87.6739,"dy":0.0162,"dx":0.0183,"nx":112,"ny":82,"refTime":"2026-03-12T00:00:00:Z","depth":0,"parameterNumber":2,"parameterNumberName":"U-component_of_WINDS"},"data":[0.0,0.0,0.0,0.0,0.0,0.0,0.0,0.0,0.0,0.0,0.0,0.0,0.0,0.0,0.0,0.0,0.0,0.0,0.0,0.0,0.0,0.0,0.0,0.0,0.0,0.0,0.0,0.0,0.0,0.0,0.0,0.0,0.0,0.0,0.0,0.0,0.0,0.0,0.0,0.0,0.0,0.0,0.0,0.0,0.0,0.0,0.0,0.0,0.0,0.0,0.0,0.0,0.0,0.0,0.0,0.0,0.0,0.0,0.0,0.0,0.0,0.0,0.0,0.0,0.0,0.0,0.0,0.0,0.0,0.0,0.0,0.0,0.0,0.0,0.0,0.0,0.0,0.0,0.0,0.0,0.0,0.0,0.0,0.0,0.0,0.0,0.0,0.0,0.0,0.0,-2.0814,-2.2324,-2.4305,-2.5484,-2.5441,-2.4501,-2.2885,-2.0473,0.0,0.0,0.0,0.0,0.0,0.0,0.0,0.0,0.0,0.0,0.0,0.0,0.0,0.0,0.0,0.0,0.0,0.0,0.0,0.0,0.0,0.0,0.0,0.0,0.0,0.0,0.0,0.0,0.0,0.0,0.0,0.0,0.0,0.0,0.0,0.0,0.0,0.0,0.0,0.0,0.0,0.0,0.0,0.0,0.0,0.0,0.0,0.0,0.0,0.0,0.0,0.0,0.0,0.0,0.0,0.0,0.0,0.0,0.0,0.0,0.0,0.0,0.0,0.0,0.0,0.0,0.0,0.0,0.0,0.0,0.0,0.0,0.0,0.0,0.0,0.0,0.0,0.0,0.0,0.0,0.0,0.0,0.0,0.0,0.0,0.0,0.0,0.0,0.0,0.0,0.0,0.0,0.0,0.0,0.0,0.0,0.0,0.0,0.0,0.0,0.0,0.0,0.0,0.0,-2.0913,-2.4726,-2.5399,-2.5572,-2.5566,-2.4036,-2.2304,-2.051,0.0,0.0,0.0,0.0,0.0,0.0,0.0,0.0,0.0,0.0,0.0,0.0,0.0,0.0,0.0,0.0,0.0,0.0,0.0,0.0,0.0,0.0,0.0,0.0,0.0,0.0,0.0,0.0,0.0,0.0,0.0,0.0,0.0,0.0,0.0,0.0,0.0,0.0,0.0,0.0,0.0,0.0,0.0,0.0,0.0,0.0,0.0,0.0,0.0,0.0,0.0,0.0,0.0,0.0,0.0,0.0,0.0,0.0,0.0,0.0,0.0,0.0,0.0,0.0,0.0,0.0,0.0,0.0,0.0,0.0,0.0,0.0,0.0,0.0,0.0,0.0,0.0,0.0,0.0,0.0,0.0,0.0,0.0,0.0,0.0,0.0,0.0,0.0,0.0,0.0,0.0,0.0,0.0,0.0,0.0,0.0,0.0,0.0,0.0,0.0,0.0,0.0,0.0,-2.0223,-2.1992,-2.5332,-2.5636,-2.5602,-2.5602,-2.3967,-2.2211,-2.0513,-1.7536,0.0,0.0,0.0,0.0,0.0,0.0,0.0,0.0,0.0,0.0,0.0,0.0,0.0,0.0,0.0,0.0,0.0,0.0,0.0,0.0,0.0,0.0,0.0,0.0,0.0,0.0,0.0,0.0,0.0,0.0,0.0,0.0,0.0,0.0,0.0,0.0,0.0,0.0,0.0,0.0,0.0,0.0,0.0,0.0,0.0,0.0,0.0,0.0,0.0,0.0,0.0,0.0,0.0,0.0,0.0,0.0,0.0,0.0,0.0,0.0,0.0,0.0,0.0,0.0,0.0,0.0,0.0,0.0,0.0,0.0,0.0,0.0,0.0,0.0,0.0,0.0,0.0,0.0,0.0,0.0,0.0,0.0,0.0,0.0,0.0,0.0,0.0,0.0,0.0,0.0,0.0,0.0,0.0,0.0,0.0,0.0,0.0,0.0,0.0,0.0,0.0,0.0,-2.2272,-2.3085,-2.5449,-2.5659,-2.5611,-2.5611,-2.365,-2.1837,-2.0502,-1.6807,0.0,0.0,0.0,0.0,0.0,0.0,0.0,0.0,0.0,0.0,0.0,0.0,0.0,0.0,0.0,0.0,0.0,0.0,0.0,0.0,0.0,0.0,0.0,0.0,0.0,0.0,0.0,0.0,0.0,0.0,0.0,0.0,0.0,0.0,0.0,0.0,0.0,0.0,0.0,0.0,0.0,0.0,0.0,0.0,0.0,0.0,0.0,0.0,0.0,0.0,0.0,0.0,0.0,0.0,0.0,0.0,0.0,0.0,0.0,0.0,0.0,0.0,0.0,0.0,0.0,0.0,0.0,0.0,0.0,0.0,0.0,0.0,0.0,0.0,0.0,0.0,0.0,0.0,0.0,0.0,0.0,0.0,0.0,0.0,0.0,0.0,0.0,0.0,0.0,0.0,0.0,0.0,0.0,0.0,0.0,0.0,0.0,0.0,0.0,0.0,0.0,0.0,-2.2055,-2.3703,-2.5508,-2.5703,-2.5683,-2.5683,-2.2608,-2.0623,-2.0491,-1.5696,0.0,0.0,0.0,0.0,0.0,0.0,0.0,0.0,0.0,0.0,0.0,0.0,0.0,0.0,0.0,0.0,0.0,0.0,0.0,0.0,0.0,0.0,0.0,0.0,0.0,0.0,0.0,0.0,0.0,0.0,0.0,0.0,0.0,0.0,0.0,0.0,0.0,0.0,0.0,0.0,0.0,0.0,0.0,0.0,0.0,0.0,0.0,0.0,0.0,0.0,0.0,0.0,0.0,0.0,0.0,0.0,0.0,0.0,0.0,0.0,0.0,0.0,0.0,0.0,0.0,0.0,0.0,0.0,0.0,0.0,0.0,0.0,0.0,0.0,0.0,0.0,0.0,0.0,0.0,0.0,0.0,0.0,0.0,0.0,0.0,0.0,0.0,0.0,0.0,0.0,0.0,0.0,0.0,0.0,0.0,0.0,0.0,0.0,0.0,0.0,0.0,0.0,-2.1541,-2.3174,-2.5469,-2.5703,-2.5488,-2.4941,-2.2733,-2.0659,-1.8972,0.0,0.0,0.0,0.0,0.0,0.0,0.0,0.0,0.0,0.0,0.0,0.0,0.0,0.0,0.0,0.0,0.0,0.0,0.0,0.0,0.0,0.0,0.0,0.0,0.0,0.0,0.0,0.0,0.0,0.0,0.0,0.0,0.0,0.0,0.0,0.0,0.0,0.0,0.0,0.0,0.0,0.0,0.0,0.0,0.0,0.0,0.0,0.0,0.0,0.0,0.0,0.0,0.0,0.0,0.0,0.0,0.0,0.0,0.0,0.0,0.0,0.0,0.0,0.0,0.0,0.0,0.0,0.0,0.0,0.0,0.0,0.0,0.0,0.0,0.0,0.0,0.0,0.0,0.0,0.0,0.0,0.0,0.0,0.0,0.0,0.0,0.0,0.0,0.0,0.0,0.0,0.0,0.0,0.0,0.0,0.0,0.0,0.0,0.0,0.0,0.0,0.0,-1.9193,-2.1117,-2.2957,-2.5056,-2.5271,-2.5018,-2.4453,-2.2109,-1.9882,-1.8041,0.0,0.0,0.0,0.0,0.0,0.0,0.0,0.0,0.0,0.0,0.0,0.0,0.0,0.0,0.0,0.0,0.0,0.0,0.0,0.0,0.0,0.0,0.0,0.0,0.0,0.0,0.0,0.0,0.0,0.0,0.0,0.0,0.0,0.0,0.0,0.0,0.0,0.0,0.0,0.0,0.0,0.0,0.0,0.0,0.0,0.0,0.0,0.0,0.0,0.0,0.0,0.0,0.0,0.0,0.0,0.0,0.0,0.0,0.0,0.0,0.0,0.0,0.0,0.0,0.0,0.0,0.0,0.0,0.0,0.0,0.0,0.0,0.0,0.0,0.0,0.0,0.0,0.0,0.0,0.0,0.0,0.0,0.0,0.0,0.0,0.0,0.0,0.0,0.0,0.0,0.0,0.0,0.0,0.0,0.0,0.0,0.0,0.0,0.0,0.0,0.0,0.0,-1.7575,-2.0784,-2.3275,-2.4274,-2.4314,-2.4302,-2.4375,-2.0469,-1.8008,0.0,0.0,0.0,0.0,0.0,0.0,0.0,0.0,0.0,0.0,0.0,0.0,0.0,0.0,0.0,0.0,0.0,0.0,0.0,0.0,0.0,0.0,0.0,0.0,0.0,0.0,0.0,0.0,0.0,0.0,0.0,0.0,0.0,0.0,0.0,0.0,0.0,0.0,0.0,0.0,0.0,0.0,0.0,0.0,0.0,0.0,0.0,0.0,0.0,0.0,0.0,0.0,0.0,0.0,0.0,0.0,0.0,0.0,0.0,0.0,0.0,0.0,0.0,0.0,0.0,0.0,0.0,0.0,0.0,0.0,0.0,0.0,0.0,0.0,0.0,0.0,0.0,0.0,0.0,0.0,0.0,0.0,0.0,0.0,0.0,0.0,0.0,0.0,0.0,0.0,0.0,0.0,0.0,0.0,0.0,0.0,0.0,0.0,0.0,0.0,0.0,0.0,0.0,-1.7575,-2.0244,-2.2347,-2.3302,-2.3405,-2.3164,-2.2607,-2.0272,-1.8087,-1.6289,0.0,0.0,0.0,0.0,0.0,0.0,0.0,0.0,0.0,0.0,0.0,0.0,0.0,0.0,0.0,0.0,0.0,0.0,0.0,0.0,0.0,0.0,0.0,0.0,0.0,0.0,0.0,0.0,0.0,0.0,0.0,0.0,0.0,0.0,0.0,0.0,0.0,0.0,0.0,0.0,0.0,0.0,0.0,0.0,0.0,0.0,0.0,0.0,0.0,0.0,0.0,0.0,0.0,0.0,0.0,0.0,0.0,0.0,0.0,0.0,0.0,0.0,0.0,0.0,0.0,0.0,0.0,0.0,0.0,0.0,0.0,0.0,0.0,0.0,0.0,0.0,0.0,0.0,0.0,0.0,0.0,0.0,0.0,0.0,0.0,0.0,0.0,0.0,0.0,0.0,0.0,0.0,0.0,0.0,0.0,0.0,0.0,0.0,0.0,0.0,0.0,0.0,-1.6575,-1.9299,-2.1436,-2.2331,-2.243,-2.2257,-2.1797,-1.9867,-1.7726,-1.5498,0.0,0.0,0.0,0.0,0.0,0.0,0.0,0.0,0.0,0.0,0.0,0.0,0.0,0.0,0.0,0.0,0.0,0.0,0.0,0.0,0.0,0.0,0.0,0.0,0.0,0.0,0.0,0.0,0.0,0.0,0.0,0.0,0.0,0.0,0.0,0.0,0.0,0.0,0.0,0.0,0.0,0.0,0.0,0.0,0.0,0.0,0.0,0.0,0.0,0.0,0.0,0.0,0.0,0.0,0.0,0.0,0.0,0.0,0.0,0.0,0.0,0.0,0.0,0.0,0.0,0.0,0.0,0.0,0.0,0.0,0.0,0.0,0.0,0.0,0.0,0.0,0.0,0.0,0.0,0.0,0.0,0.0,0.0,0.0,0.0,0.0,0.0,0.0,0.0,0.0,0.0,0.0,0.0,0.0,0.0,0.0,0.0,0.0,0.0,0.0,0.0,0.0,-1.509,-1.8115,-2.0507,-2.1394,-2.1485,-2.1476,-2.1457,-1.9253,-1.7112,-1.5296,0.0,0.0,0.0,0.0,0.0,0.0,0.0,0.0,0.0,0.0,0.0,0.0,0.0,0.0,0.0,0.0,0.0,0.0,0.0,0.0,0.0,0.0,0.0,0.0,0.0,0.0,0.0,0.0,0.0,0.0,0.0,0.0,0.0,0.0,0.0,0.0,0.0,0.0,0.0,0.0,0.0,0.0,0.0,0.0,0.0,0.0,0.0,0.0,0.0,0.0,0.0,0.0,0.0,0.0,0.0,0.0,0.0,0.0,0.0,0.0,-1.2511,-1.192,0.0,0.0,0.0,0.0,0.0,0.0,0.0,0.0,0.0,0.0,0.0,0.0,0.0,0.0,0.0,0.0,0.0,0.0,0.0,0.0,0.0,0.0,0.0,0.0,0.0,0.0,0.0,0.0,0.0,0.0,0.0,0.0,0.0,0.0,0.0,0.0,0.0,0.0,0.0,0.0,-1.509,-1.7584,-1.9615,-2.0481,-2.0573,-2.0324,-1.9715,-1.8487,-1.6774,-1.4501,-1.3338,0.0,0.0,0.0,0.0,0.0,0.0,0.0,0.0,0.0,0.0,0.0,0.0,0.0,0.0,0.0,0.0,0.0,0.0,0.0,0.0,0.0,0.0,0.0,0.0,0.0,0.0,0.0,0.0,0.0,0.0,0.0,0.0,0.0,0.0,0.0,0.0,0.0,0.0,0.0,0.0,0.0,0.0,0.0,0.0,0.0,0.0,0.0,0.0,0.0,0.0,0.0,0.0,0.0,0.0,0.0,0.0,0.0,0.0,0.0,-1.4143,-1.3128,0.0,0.0,0.0,0.0,0.0,0.0,0.0,0.0,0.0,0.0,0.0,0.0,0.0,0.0,0.0,0.0,0.0,0.0,0.0,0.0,0.0,0.0,0.0,0.0,0.0,0.0,0.0,0.0,0.0,0.0,0.0,0.0,0.0,0.0,0.0,0.0,0.0,0.0,0.0,0.0,-1.4315,-1.6296,-1.7979,-1.89,-1.9,-1.8847,-1.8455,-1.7629,-1.6371,-1.4642,-1.3378,0.0,0.0,0.0,0.0,0.0,0.0,0.0,0.0,0.0,0.0,0.0,0.0,0.0,0.0,0.0,0.0,0.0,0.0,0.0,0.0,0.0,0.0,0.0,0.0,0.0,0.0,0.0,0.0,0.0,0.0,0.0,0.0,0.0,0.0,0.0,0.0,0.0,0.0,0.0,0.0,0.0,0.0,0.0,0.0,0.0,0.0,0.0,0.0,0.0,0.0,0.0,0.0,0.0,-1.73,-1.8034,-1.8662,-1.7999,-1.8051,-1.8534,-1.6096,-1.4864,-1.451,-1.3757,0.0,0.0,0.0,0.0,0.0,0.0,0.0,0.0,0.0,0.0,0.0,0.0,0.0,0.0,0.0,0.0,0.0,0.0,0.0,0.0,0.0,0.0,-1.4623,-1.3955,-1.4818,-1.527,-1.3382,0.0,0.0,0.0,0.0,0.0,0.0,0.0,0.0,0.0,0.0,0.0,-1.3693,-1.5161,-1.6483,-1.7454,-1.7581,-1.7534,-1.7439,-1.6809,-1.595,-1.4836,-1.3557,-1.2339,0.0,0.0,0.0,0.0,0.0,0.0,0.0,0.0,0.0,0.0,0.0,0.0,0.0,0.0,0.0,0.0,0.0,0.0,0.0,0.0,0.0,0.0,0.0,0.0,0.0,0.0,0.0,0.0,0.0,0.0,0.0,0.0,-1.024,-1.0336,0.0,0.0,0.0,0.0,0.0,0.0,0.0,0.0,0.0,0.0,0.0,0.0,0.0,-1.4524,-1.5267,-1.7093,-1.8005,-1.8025,-1.9113,-1.9699,-1.9784,-1.9682,-1.9699,-1.9767,-1.9367,0.0,-1.6756,-1.5327,0.0,0.0,0.0,0.0,0.0,0.0,0.0,0.0,0.0,0.0,0.0,0.0,0.0,0.0,0.0,0.0,0.0,0.0,0.0,0.0,0.0,0.0,-1.5958,-1.5835,-1.5976,-1.6046,-1.5743,-1.4347,-1.2874,-1.1885,-1.1254,-1.0875,0.0,0.0,0.0,0.0,0.0,0.0,-1.4522,-1.5526,-1.6437,-1.7321,-1.7421,-1.7117,-1.6378,-1.6203,-1.5481,-1.3877,-1.3583,-1.2772,-1.1174,-1.1014,0.0,0.0,0.0,0.0,0.0,0.0,0.0,0.0,0.0,0.0,0.0,0.0,0.0,0.0,0.0,0.0,0.0,0.0,0.0,0.0,0.0,0.0,0.0,0.0,0.0,0.0,0.0,0.0,0.0,-1.0708,-1.1721,-1.2107,-1.2394,-1.2227,0.0,0.0,0.0,0.0,0.0,0.0,0.0,0.0,0.0,-1.5769,-1.6063,-1.6578,-1.7341,-1.8585,-1.9199,-1.9212,-2.0127,-2.0557,-2.0557,-2.0557,-2.0687,-2.0869,-2.0453,-1.9984,-1.935,-1.7512,-1.6026,-1.4864,0.0,0.0,0.0,0.0,-1.3968,-1.4111,-1.5184,-1.5444,-1.5245,-1.4968,0.0,0.0,0.0,0.0,0.0,0.0,0.0,-1.4473,-1.4473,-1.5665,-1.6862,-1.6862,-1.7223,-1.7327,-1.6593,-1.5991,-1.5081,-1.3276,-1.2825,-1.2318,-1.0979,-1.0725,0.0,0.0,0.0,-1.3017,-1.389,-1.4705,-1.538,-1.5827,-1.5874,-1.5767,-1.546,-1.5427,-1.5089,-1.4265,-1.3837,-1.3028,-1.1713,-1.1307,-1.0546,0.0,0.0,0.0,0.0,0.0,0.0,0.0,0.0,0.0,0.0,0.0,0.0,0.0,0.0,0.0,0.0,0.0,0.0,0.0,0.0,0.0,0.0,0.0,0.0,0.0,0.0,0.0,0.0,-1.1839,-1.3025,-1.3513,-1.4019,-1.3938,0.0,0.0,0.0,0.0,0.0,0.0,-1.5087,-1.6079,-1.6938,-1.7597,-1.7784,-1.8172,-1.8779,-1.9578,-2.0004,-2.0004,-2.0687,-2.0991,-2.0991,-2.0991,-2.115,-2.1412,-2.0873,-2.0836,-2.1016,-1.9294,-1.7798,-1.6556,-1.6153,-1.5479,-1.4848,-1.5688,-1.5817,-1.5771,-1.703,-1.7267,-1.6883,-1.6342,-1.6026,-1.5632,-1.4537,0.0,0.0,0.0,0.0,-1.5314,-1.5314,-1.6337,-1.7373,-1.7373,-1.7778,-1.7865,-1.6875,-1.7028,-1.674,-1.4628,-1.4157,-1.3535,-1.1729,-1.1471,0.0,-1.137,-1.2248,-1.3052,-1.3417,-1.3974,-1.4386,-1.4471,-1.4506,-1.4545,-1.4644,-1.4636,-1.4526,-1.4233,-1.3698,-1.2886,-1.1748,-1.1205,-1.0547,-0.9692,0.0,0.0,0.0,0.0,0.0,0.0,0.0,0.0,0.0,0.0,0.0,0.0,0.0,0.0,0.0,0.0,0.0,0.0,0.0,0.0,0.0,0.0,0.0,0.0,0.0,0.0,0.0,0.0,0.0,-1.3775,-1.541,0.0,0.0,0.0,0.0,-1.523,-1.5949,-1.6561,-1.6933,-1.7025,-1.7258,-1.7687,-1.8302,-1.8663,-1.8693,-1.9757,-2.0285,-2.0285,-2.0781,-2.0991,-2.0991,-2.0991,-2.1007,-2.1023,-2.0991,-2.0991,-2.0957,-2.0214,-1.9452,-1.8736,-1.8714,-1.8257,-1.7687,-1.8438,-1.8049,-1.7337,-1.8434,-1.7482,-1.5935,-1.6907,-1.6162,-1.4962,-1.545,-1.4674,0.0,0.0,-1.5324,-1.6149,-1.6149,-1.6716,-1.7302,-1.7302,-1.7093,-1.6876,-1.6805,-1.7012,-1.6841,-1.5563,-1.452,-1.3774,-1.3662,0.0,-1.1745,-1.2499,-1.2675,-1.2995,-1.3768,-1.3917,-1.3941,-1.3948,-1.3931,-1.3938,-1.3945,-1.3945,-1.3649,-1.2934,-1.2851,-1.2157,-1.0644,-1.0547,-1.0155,-0.9335,-0.9277,0.0,0.0,0.0,0.0,0.0,0.0,0.0,0.0,0.0,0.0,0.0,0.0,0.0,0.0,0.0,0.0,0.0,0.0,0.0,0.0,0.0,0.0,0.0,0.0,0.0,0.0,0.0,0.0,-1.6219,-1.6921,0.0,-1.5872,-1.6593,-1.6879,-1.6287,-1.7273,-1.7987,-1.8116,-1.8539,-1.8852,-1.8972,-1.9211,-1.9348,-1.9348,-1.9718,-1.9909,-1.9927,-2.007,-2.0156,-2.0156,-2.0156,-2.0296,-2.055,-2.055,-2.0715,-2.0975,-2.0739,-2.021,-1.9497,-1.9026,-1.8686,-1.8478,-1.8735,-1.8602,-1.8329,-1.8694,-1.8329,-1.7691,-1.7644,-1.7213,-1.6687,-1.647,-1.6067,-1.5711,-1.595,-1.6292,-1.6596,-1.6596,-1.6786,-1.6977,-1.6977,-1.6892,-1.6738,-1.6514,-1.6719,-1.6761,-1.6099,-1.5254,-1.4306,-1.3267,-1.2598,-1.2215,-1.2254,-1.2573,-1.298,-1.3404,-1.3561,-1.3644,-1.3644,-1.3799,-1.3906,-1.3906,-1.346,-1.3083,-1.2824,-1.2358,-1.1599,-1.0534,-1.0376,-0.9931,-0.9119,-0.8944,-0.848,0.0,0.0,0.0,0.0,0.0,0.0,0.0,0.0,0.0,0.0,0.0,0.0,0.0,0.0,0.0,0.0,0.0,0.0,0.0,0.0,0.0,0.0,0.0,0.0,0.0,-1.5356,-1.6681,-1.7351,-1.7987,-1.8117,-1.7428,-1.7983,-1.8192,-1.7758,-1.8553,-1.9031,-1.9031,-1.9468,-1.9708,-1.9708,-1.9708,-1.9708,-1.9708,-1.9708,-1.9708,-1.9708,-1.9708,-1.9708,-1.9708,-1.9708,-1.9839,-2.0089,-2.0089,-2.0261,-2.0549,-2.0549,-2.0282,-1.9812,-1.9624,-1.954,-1.954,-1.954,-1.9321,-1.8948,-1.8561,-1.8497,-1.8477,-1.7669,-1.7438,-1.7297,-1.6667,-1.6461,-1.6461,-1.6461,-1.6541,-1.6633,-1.6633,-1.6633,-1.6633,-1.6633,-1.6541,-1.6394,-1.6177,-1.6315,-1.6394,-1.6163,-1.5499,-1.463,-1.3561,-1.2944,-1.2509,-1.223,-1.254,-1.2844,-1.2988,-1.3101,-1.3202,-1.3202,-1.3358,-1.3456,-1.3456,-1.2808,-1.2296,-1.2044,-1.1347,-1.0615,-0.9829,-0.9658,-0.935,-0.8801,-0.8617,-0.813,-0.7323,0.0,0.0,0.0,0.0,0.0,0.0,0.0,0.0,0.0,0.0,0.0,0.0,0.0,0.0,0.0,0.0,0.0,0.0,0.0,0.0,0.0,0.0,0.0,-1.4069,-1.615,-1.7499,-1.7013,-1.8567,-1.9435,-1.8792,-1.9316,-1.9708,-1.9708,-1.9708,-1.9708,-1.9708,-1.9708,-1.9708,-1.9708,-1.9708,-1.9708,-1.9708,-1.9708,-1.9708,-1.9708,-1.9708,-1.9708,-1.9708,-1.9708,-1.9708,-1.9708,-1.9708,-1.9708,-1.9708,-1.9708,-1.9708,-1.9782,-2.0632,-2.0975,-2.0975,-2.0975,-2.0288,-1.9243,-1.8146,-1.797,-1.8084,-1.709,-1.6741,-1.6622,-1.6009,-1.5814,-1.5799,-1.5799,-1.6039,-1.6287,-1.6287,-1.6287,-1.6287,-1.6274,-1.601,-1.577,-1.5755,-1.5755,-1.5755,-1.5755,-1.5162,-1.4679,-1.4701,-1.3552,-1.2636,-1.2636,-1.262,0.0,-1.2614,-1.2598,-1.2591,-1.2591,-1.2601,-1.2601,-1.2601,-1.1988,-1.1274,-1.0543,-0.9868,-0.9161,-0.8419,-0.838,-0.8367,-0.8361,-0.8361,-0.7913,-0.7004,0.0,0.0,0.0,0.0,0.0,0.0,0.0,0.0,0.0,0.0,0.0,0.0,0.0,0.0,0.0,0.0,0.0,0.0,0.0,0.0,0.0,-1.4754,-1.5967,-1.5582,-1.6525,-1.7517,-1.8262,-1.8821,-1.9203,-1.9418,-1.9588,-1.9708,-1.9708,-1.9708,-1.9708,-1.9708,-1.9708,-1.9708,-1.9708,-1.9708,-1.9708,-1.9708,-1.9708,-1.9708,-1.9708,-1.9708,-1.9708,-1.9708,-1.9708,-1.9708,-1.9708,-1.9708,-1.9708,-1.9708,-1.9708,-1.9708,-1.9711,-1.9962,-2.0067,-2.0067,-2.0067,-1.9873,-1.9584,-1.9264,-1.9206,-1.9155,-1.839,-1.7833,-1.7294,-1.6637,-1.6144,-1.5799,-1.5799,-1.587,-1.5926,-1.5926,-1.5926,-1.584,-1.5507,-1.5359,-1.521,-1.4922,-1.486,-1.486,-1.486,-1.4298,-1.4033,-1.4667,-1.4044,-1.3469,-1.3469,-1.3065,-1.2741,-1.2741,-1.2484,-1.2312,-1.2312,-1.2475,-1.2601,-1.2601,-1.1933,-1.1169,-1.0332,-0.974,-0.9049,-0.8216,-0.8043,-0.7824,-0.754,-0.7532,-0.7334,0.0,0.0,0.0,0.0,0.0,0.0,0.0,0.0,0.0,0.0,0.0,0.0,0.0,0.0,0.0,0.0,0.0,0.0,0.0,0.0,0.0,0.0,-1.5597,-1.6564,-1.6308,-1.6996,-1.7782,-1.8473,-1.8554,-1.8779,-1.9314,-1.9169,-1.9024,-1.9024,-1.9024,-1.9132,-1.935,-1.9369,-1.946,-1.969,-1.9479,-1.946,-1.9708,-1.9244,-1.9262,-1.9708,-1.946,-1.9479,-1.9708,-1.9708,-1.9708,-1.969,-1.946,-1.9369,-1.935,-1.9132,-1.9169,-1.9387,0.0,0.0,0.0,0.0,-1.9566,-1.9369,-1.9369,-1.9225,-1.8923,-1.8249,-1.7923,-1.7558,-1.6442,-1.603,-1.5831,-1.5387,-1.5255,-1.5255,-1.5255,-1.5255,-1.5195,-1.4907,-1.4845,-1.4783,-1.4549,-1.4501,-1.4418,-1.4201,-1.403,0.0,-1.4284,-1.3558,-1.2997,-1.3217,-1.2724,-1.2332,-1.2332,-1.2144,-1.1895,-1.1674,-1.1792,-1.1894,-1.1894,-1.1248,0.0,0.0,0.0,-0.8868,-0.813,-0.7983,0.0,0.0,0.0,0.0,0.0,0.0,0.0,0.0,-0.6418,-0.6634,0.0,0.0,0.0,0.0,0.0,0.0,0.0,0.0,0.0,0.0,0.0,0.0,0.0,0.0,0.0,0.0,-1.5977,-1.643,-1.6489,-1.7333,-1.7947,-1.8007,-1.8007,-1.8224,-1.8746,-1.838,-1.8106,-1.8106,-1.8106,-1.8322,-1.8779,-1.8817,0.0,0.0,0.0,-1.9043,-1.9512,-1.8574,-1.8574,-1.9512,-1.9043,-1.9062,-1.953,-1.953,-1.953,-1.9479,-1.9024,-1.8817,-1.8765,-1.8302,-1.838,-1.8855,-1.9406,-1.9603,-1.9603,-1.9548,-1.9225,-1.8817,-1.8817,0.0,0.0,-1.7413,-1.7488,-1.7526,-1.5976,-1.577,-1.5896,-1.489,-1.4582,-1.4568,-1.4515,-1.4501,-1.4485,-1.4438,-1.4438,-1.4422,-1.4358,-1.4358,-1.4196,-1.3654,-1.3948,-1.409,-1.358,-1.2663,-1.2184,-1.2649,-1.2266,-1.1869,-1.1814,-1.1759,-1.1484,-1.0966,-1.0897,0.0,-1.0897,-1.0304,-0.9903,-0.9802,-0.9139,-0.8525,-0.8049,-0.8022,-0.7766,-0.7206,-0.703,-0.6838,-0.6631,-0.6739,-0.6719,-0.6575,-0.7007,-0.7281,0.0,0.0,0.0,0.0,0.0,0.0,0.0,0.0,0.0,0.0,0.0,0.0,0.0,0.0,0.0,-1.5584,-1.6462,-1.6967,-1.6561,-1.668,-1.6972,-1.7415,-1.7442,-1.7666,-1.8204,-1.8165,-1.8106,-1.8106,-1.8106,-1.8165,-1.8263,-1.8263,-1.8302,-1.8419,-1.8322,-1.8302,-1.8419,-1.8204,-1.8204,-1.8419,-1.8302,0.0,-1.8419,-1.8419,-1.8419,-1.84,-1.8302,-1.8263,-1.8263,-1.8145,-1.8165,-1.8322,-1.8855,-1.9043,-1.9006,-1.8574,-1.8341,-1.8263,-1.8263,-1.8204,-1.8078,-1.7948,-1.7614,-1.719,-1.6844,-1.6445,0.0,-1.5332,-1.515,-1.5043,-1.461,-1.4501,-1.4422,-1.4084,-1.4019,-1.3917,-1.3531,-1.3459,-1.3293,-1.2762,-1.2785,-1.2717,-1.2177,-1.3135,-1.3987,-1.4097,-1.3557,-1.2993,-1.2554,-1.2032,-1.1484,-1.0966,-1.0897,-1.0897,-1.0897,-1.0484,-0.9927,-0.9225,-0.8286,-0.7727,-0.762,-0.7608,-0.7486,-0.721,-0.7167,-0.7025,-0.6757,-0.6786,-0.6862,-0.698,-0.7127,-0.7101,0.0,0.0,0.0,0.0,0.0,0.0,0.0,0.0,0.0,0.0,0.0,-1.3589,-1.4714,0.0,-1.5781,-1.6061,-1.6553,-1.6816,-1.6531,-1.65,-1.6689,-1.7229,-1.7055,-1.7118,-1.7646,-1.7463,-1.7312,-1.7312,-1.7312,-1.7435,-1.7686,-1.7706,-1.7827,-1.8086,-1.7847,-1.7827,-1.8106,-1.7565,-1.7565,-1.8106,-1.7827,-1.7847,-1.8106,-1.8106,-1.8106,-1.8086,-1.7827,-1.7706,-1.7706,-1.7706,-1.7706,-1.7727,-1.7987,-1.8263,-1.8477,-1.8204,-1.7927,-1.7706,-1.7706,-1.7524,-1.7312,-1.7312,-1.7256,-1.7102,-1.6553,-1.6178,-1.5739,-1.4919,-1.448,-1.4204,-1.3931,-1.3852,-1.3752,-1.3302,-1.3199,-1.3062,-1.2603,-1.2508,-1.2324,-1.1756,-1.1931,-1.1976,-1.1405,-1.2326,-1.3162,-1.3162,-1.2618,-1.2036,-1.1563,-1.1203,-1.0702,-0.993,-0.9855,-0.9855,-0.9855,-0.9662,-0.9372,-0.8928,-0.843,-0.8028,-0.7767,-0.7756,-0.7478,-0.691,-0.6767,-0.6531,-0.6195,-0.6309,-0.6392,-0.6502,-0.6737,-0.6885,0.0,0.0,0.0,0.0,0.0,0.0,0.0,-1.1052,-1.1835,-1.3297,-1.412,-1.484,-1.5693,-1.5856,-1.6007,-1.6425,-1.65,-1.65,-1.65,-1.65,-1.6659,-1.7097,-1.6752,-1.668,-1.7097,-1.6752,-1.65,-1.65,-1.65,-1.6701,-1.7105,-1.7126,-1.7353,-1.7787,-1.7374,-1.7353,-1.7787,-1.693,-1.693,-1.7787,-1.7353,-1.7374,-1.7787,-1.7787,-1.7787,-1.7767,-1.7333,-1.7126,-1.7126,-1.7126,-1.7126,-1.7126,-1.7126,-1.7415,-1.7787,-1.7787,-1.7524,-1.7126,-1.7126,-1.6858,-1.65,-1.65,-1.6795,-1.6985,-1.6127,-1.587,-1.563,-1.4555,-1.3916,-1.3473,-1.3144,-1.3047,-1.2943,-1.2473,-1.2354,-1.2264,-1.1884,-1.1792,-1.1617,-1.1026,-1.1291,-1.1461,-1.0876,-1.1187,-1.1571,-1.1774,-1.1391,-1.091,-1.0464,-1.0351,-0.9959,-0.9024,-0.8845,-0.8748,-0.8609,-0.8595,-0.8515,-0.8364,-0.835,-0.8153,-0.7729,-0.7708,-0.7348,-0.6596,-0.6366,-0.6098,-0.577,-0.5943,-0.5973,-0.5888,-0.6139,-0.651,-1.0822,-1.0459,-1.0321,-1.0577,-1.0612,-1.1083,0.0,-1.3512,-1.397,-1.5079,-1.5804,-1.6283,-1.6387,-1.64,-1.6425,-1.6488,-1.65,-1.65,-1.65,-1.65,-1.6522,-1.6573,-1.6531,-1.6522,-1.6573,-1.6531,-1.65,-1.65,-1.65,-1.6543,-1.6595,-1.6595,-1.6616,-1.668,-1.6616,-1.6616,-1.668,-1.6552,-1.6552,-1.668,-1.6616,-1.6616,-1.668,-1.668,-1.668,-1.668,-1.6616,-1.6595,-1.6595,-1.6595,-1.6595,-1.6595,-1.6595,-1.6637,-1.668,-1.668,-1.6637,-1.6595,-1.6595,-1.6552,-1.65,-1.65,-1.6531,-1.6561,-1.6446,-1.6413,-1.6204,-1.5117,-1.4758,-1.4387,-1.2944,-1.2579,-1.2473,-1.1993,-1.1884,-1.1866,-1.1811,-1.1792,-1.1617,-1.1026,-1.1003,-1.0928,-1.0374,-1.0374,-1.0774,-1.1664,-1.1747,-1.1487,-1.0904,-1.0531,-1.0067,-0.9474,-0.9057,-0.8529,-0.7888,-0.782,-0.7521,-0.6811,-0.6758,-0.6725,-0.6676,-0.6667,-0.6621,-0.6513,-0.6483,-0.6438,-0.64,-0.642,-0.6218,-0.58,-0.5491,-0.5783,-1.1706,-1.1357,-1.1106,-1.1261,-1.1455,-1.1822,-1.2675,-1.3487,-1.4245,-1.4935,-1.5832,-1.65,-1.65,-1.65,-1.65,-1.65,-1.65,-1.65,-1.65,-1.65,-1.65,-1.65,-1.65,-1.65,-1.65,-1.65,-1.65,-1.65,-1.65,-1.65,-1.65,-1.65,-1.65,-1.65,-1.65,-1.65,-1.65,-1.65,-1.65,-1.65,-1.65,-1.65,-1.65,-1.65,-1.65,-1.6466,-1.6129,-1.6173,-1.6466,-1.6117,-1.6194,-1.65,-1.65,-1.6281,-1.5986,-1.5986,-1.5986,-1.5942,-1.5577,-1.5456,-1.5456,-1.5456,-1.5456,-1.5456,-1.5456,-1.5232,-1.4855,-1.4114,-1.369,-1.3251,-1.2323,-1.2084,-1.1957,-1.1468,-1.1338,-1.1263,-1.0992,-1.0935,-1.0864,-1.0611,-1.0574,-1.0416,-0.9887,-0.9819,-0.9873,-0.9982,-1.0533,-1.0731,-1.0211,-0.9727,-0.9062,-0.8089,-0.7816,-0.7513,-0.7038,-0.7005,-0.6856,-0.6518,-0.6503,-0.6503,-0.6503,-0.6235,-0.5991,-0.5752,-0.5512,-0.5277,-0.5039,-0.5039,-0.4944,-0.4754,-0.4584,-0.4696,-1.2203,-1.1992,-1.177,-1.177,-1.208,-1.2389,-1.2389,-1.3228,-1.415,-1.4608,-1.5533,-1.6303,-1.6466,-1.65,-1.65,-1.65,-1.65,-1.65,-1.65,-1.65,-1.65,-1.65,-1.65,-1.65,-1.65,-1.65,-1.65,-1.65,-1.65,-1.65,-1.65,-1.65,-1.65,-1.65,-1.65,-1.65,-1.65,-1.65,-1.65,-1.65,-1.65,-1.65,-1.6488,-1.6324,-1.6151,-1.5976,-1.5533,-1.5599,-1.5976,-1.5521,-1.5622,-1.5998,-1.5998,-1.5744,-1.532,-1.5152,-1.5208,-1.5298,-1.4858,-1.4698,-1.4698,-1.4698,-1.4698,-1.4698,-1.4698,-1.4429,-1.4027,-1.3524,-1.3012,-1.2482,-1.1929,-1.1689,-1.1449,-1.0924,-1.0821,-1.0658,-1.0176,-1.0079,-1.004,-0.9883,-0.9863,-0.9736,-0.9339,-0.9279,-0.9139,-0.8756,-0.9359,-0.9731,-0.9385,-0.889,-0.8177,-0.7145,-0.7047,-0.6884,-0.6482,-0.645,-0.6363,-0.6175,-0.6175,-0.6106,-0.5975,-0.5651,-0.5277,-0.4881,-0.4579,-0.4301,-0.3993,-0.3993,-0.3928,-0.381,-0.3872,-0.3818,-1.2203,-1.2194,-1.2184,-1.2184,-1.2539,-1.2886,-1.2886,-1.3351,-1.3982,-1.4583,-1.5186,-1.582,-1.6402,-1.65,-1.65,-1.65,-1.65,-1.65,-1.65,-1.65,-1.65,-1.65,-1.65,-1.65,-1.65,-1.65,-1.65,-1.65,-1.65,-1.65,-1.65,-1.65,-1.65,-1.65,-1.65,-1.65,-1.65,-1.65,-1.65,-1.65,-1.65,-1.65,-1.6466,-1.5886,-1.5298,-1.4744,-1.4744,-1.4744,-1.4744,-1.4721,-1.4744,-1.4744,-1.4744,-1.4744,-1.4663,-1.4073,-1.4213,-1.4721,-1.4709,-1.4698,-1.4698,-1.4698,-1.4698,-1.4698,-1.4698,-1.4698,-1.4552,-1.4027,-1.3546,-1.2942,-1.1947,-1.1374,-1.0905,-1.0428,-1.0322,-1.0176,-0.9637,-0.9518,-0.9379,-0.8837,-0.8736,-0.8736,-0.8716,-0.8716,-0.8716,-0.8695,-0.8716,-0.8736,-0.8728,-0.8314,-0.7859,-0.743,-0.739,-0.7097,-0.6366,-0.6303,-0.6022,-0.5377,-0.534,-0.5128,-0.4676,-0.4644,-0.4441,-0.4037,-0.4026,-0.401,-0.3993,-0.3993,-0.3772,-0.3331,-0.3517,-0.3361,-1.25,-1.2451,-1.2272,-1.2588,-1.2773,-1.2905,-1.2905,-1.3372,-1.3862,-1.405,-1.4903,-1.5654,-1.5864,-1.6238,-1.65,-1.65,-1.616,-1.5908,-1.5908,-1.5555,-1.5444,-1.5876,-1.5908,-1.6051,-1.6457,-1.65,-1.65,-1.65,-1.65,-1.65,-1.65,-1.65,-1.65,-1.65,-1.65,-1.65,-1.65,-1.65,-1.65,-1.65,-1.6095,-1.5688,-1.5299,-1.5107,-1.4903,-1.4675,-1.4283,-1.4329,-1.4675,-1.426,-1.4329,-1.4698,-1.4698,-1.4468,-1.4073,-1.3862,-1.3671,-1.3501,-1.3501,-1.3501,-1.3501,-1.3501,-1.3501,-1.3501,-1.3501,-1.3501,-1.3399,-1.2902,-1.2667,-1.2397,-1.179,-1.1285,-1.0804,-1.0298,-0.997,-0.9617,-0.9079,-0.8958,-0.8918,-0.8736,-0.8695,-0.8582,-0.8234,-0.818,-0.8028,-0.762,-0.8218,-0.8574,-0.8214,-0.8039,-0.7651,-0.6956,-0.6862,-0.6539,-0.5711,-0.5794,-0.5522,-0.4627,-0.4738,-0.465,-0.4215,-0.3902,-0.367,-0.3544,-0.327,-0.3142,-0.3142,-0.3227,-0.2979,-0.2449,-0.26,-0.2379,-1.2709,-1.2559,-1.2311,-1.2773,-1.2905,-1.2905,-1.2905,-1.32,-1.3552,-1.3755,-1.4439,-1.5044,-1.5241,-1.5626,-1.5994,-1.6154,-1.5871,-1.5625,-1.5608,-1.5276,-1.5085,-1.5253,-1.5276,-1.5444,-1.581,-1.6051,-1.6259,-1.6466,-1.65,-1.65,-1.65,-1.6293,-1.6281,-1.6488,-1.6281,-1.6281,-1.65,-1.6281,-1.6086,-1.5854,-1.5466,-1.496,-1.4376,-1.4376,-1.4271,-1.4048,-1.3647,-1.3695,-1.4025,-1.3647,-1.3718,-1.4071,-1.4071,-1.3813,-1.3481,-1.3481,-1.3238,-1.2905,-1.2905,-1.2905,-1.2905,-1.2905,-1.2715,-1.2501,-1.2501,-1.2329,-1.2101,-1.1785,-1.161,-1.1435,-1.1159,-1.0746,-1.0291,-0.9837,-0.9534,-0.9182,-0.8545,-0.8419,-0.8349,-0.8144,-0.8095,-0.7972,-0.7635,-0.7579,-0.7447,-0.7063,-0.7454,-0.7745,-0.7593,-0.7405,-0.7079,-0.6523,-0.6274,-0.5875,-0.522,-0.5311,-0.5081,-0.4325,-0.4437,-0.4322,-0.388,-0.3563,-0.3227,-0.2834,-0.2577,-0.2364,-0.2192,-0.2282,-0.2123,-0.176,-0.1905,-0.1783,-1.2822,-1.2627,-1.2369,-1.2812,-1.2925,-1.2905,-1.2905,-1.2905,-1.3055,-1.3616,-1.3801,-1.4016,-1.4507,-1.4764,-1.5042,-1.5495,-1.5599,-1.5624,-1.556,-1.5499,-1.5253,-1.4721,-1.4652,-1.4675,-1.4698,-1.5208,-1.5798,-1.6358,-1.6445,-1.6445,-1.6445,-1.5886,-1.582,-1.638,-1.5842,-1.582,-1.6402,-1.5842,-1.5253,-1.4652,-1.4652,-1.4329,-1.3755,-1.3755,-1.3443,-1.2905,-1.2905,-1.2905,-1.2905,-1.2905,-1.2905,-1.2905,-1.2905,-1.2881,-1.2847,-1.2847,-1.2822,-1.2774,-1.2774,-1.2798,-1.2847,-1.2798,-1.232,-1.174,-1.174,-1.1291,-1.0788,-1.0788,-1.0524,-1.0221,-1.0221,-0.9881,-0.9455,-0.9166,-0.9069,-0.8835,-0.8021,-0.7857,-0.7683,-0.7105,-0.6979,-0.6958,-0.6958,-0.6937,-0.6915,-0.6915,-0.6477,-0.6349,-0.6894,-0.6498,-0.6157,-0.6157,-0.5631,-0.5179,-0.4892,-0.4883,-0.4749,-0.4371,-0.4328,-0.4085,-0.3546,-0.3502,-0.3,-0.1984,-0.1962,-0.1741,-0.1299,-0.1302,-0.1298,-0.1283,-0.1474,-0.1538,-1.3588,-1.348,-1.3203,-1.332,-1.3115,-1.2905,-1.2905,-1.2905,-1.2831,-1.2662,-1.2977,-1.3246,-1.3097,-1.4103,-1.5011,-1.513,-1.5047,-1.4935,-1.4926,-1.4154,-1.3695,-1.398,-1.4027,-1.4213,-1.4663,-1.4835,-1.4994,-1.5164,-1.5577,-1.582,-1.582,-1.5265,-1.4994,-1.5152,-1.5017,-1.4994,-1.5152,-1.5017,-1.4629,-1.4027,-1.4027,-1.3708,-1.3128,-1.3128,-1.3041,-1.2905,-1.2905,-1.2905,-1.2905,-1.2905,-1.2905,-1.2905,-1.2905,-1.2559,-1.208,-1.208,-1.1758,-1.1334,-1.1334,-1.1658,-1.2005,-1.1509,-1.12,-1.104,-1.104,-1.0939,-1.0788,-1.0788,-1.0722,-1.0656,-1.0656,-1.0344,-0.985,-0.9128,-0.873,-0.8259,-0.7405,-0.7231,-0.7196,-0.7021,-0.6683,-0.6413,-0.6413,-0.6039,-0.5733,-0.5733,-0.561,-0.5739,-0.6328,-0.5894,-0.5524,-0.5524,-0.5394,-0.5089,-0.4581,-0.476,-0.4549,-0.37,-0.3426,-0.3067,-0.2585,-0.2126,-0.1753,-0.1489,-0.1471,-0.1414,-0.13,-0.1445,-0.1297,-0.0851,-0.1009,-0.0838,-1.3977,-1.3938,-1.3714,-1.3555,-1.333,-1.3057,-1.2676,-1.2598,-1.2471,-1.2031,-1.2221,-1.234,-1.187,-1.3139,-1.4261,-1.4281,-1.4549,-1.4732,-1.4698,-1.3884,-1.3324,-1.3396,-1.3396,-1.3539,-1.3884,-1.4154,-1.4306,-1.4306,-1.4846,-1.5208,-1.5208,-1.4618,-1.4422,-1.4686,-1.4445,-1.4306,-1.4306,-1.4306,-1.4014,-1.3396,-1.3396,-1.3224,-1.2905,-1.2905,-1.2905,-1.2905,-1.2905,-1.2905,-1.2905,-1.2905,-1.2715,-1.2427,-1.2427,-1.1981,-1.1366,-1.1366,-1.1116,-1.0762,-1.0466,-1.0618,-1.0914,-1.0838,-1.0593,-1.0364,-1.0364,-1.0167,-0.9917,-0.9917,-0.9917,-0.9917,-0.9917,-0.9756,-0.9437,-0.8827,-0.8507,-0.8177,-0.7533,-0.7399,-0.7304,-0.6972,-0.6369,-0.5881,-0.5881,-0.557,-0.5303,-0.5303,-0.5065,-0.5022,-0.5373,-0.5108,-0.4913,-0.4913,-0.47,-0.4421,-0.4074,-0.3974,-0.3687,-0.3119,-0.2662,-0.2274,-0.1958,-0.1614,-0.1299,-0.1037,-0.1036,-0.0938,-0.0725,-0.0843,-0.0714,-0.0399,-0.0461,-0.0314,-1.426,-1.4192,-1.4026,-1.3656,-1.3506,-1.3213,-1.2389,-1.2164,-1.2002,-1.1516,-1.1479,-1.1347,-1.0823,-1.2032,-1.3159,-1.3265,-1.4015,-1.4565,-1.4585,-1.405,-1.3481,-1.2968,-1.2905,-1.2905,-1.2905,-1.3372,-1.3684,-1.3684,-1.4177,-1.4502,-1.4583,-1.4014,-1.392,-1.4445,-1.3944,-1.3684,-1.3684,-1.3684,-1.342,-1.2905,-1.2905,-1.2905,-1.2905,-1.2905,-1.2905,-1.2905,-1.2905,-1.2905,-1.2881,-1.2798,-1.2369,-1.1789,-1.169,-1.1266,-1.0669,-1.0669,-1.061,-1.044,-0.9865,-0.9666,-0.9762,-1.0338,-1.0141,-0.9666,-0.9666,-0.9263,-0.8804,-0.8804,-0.8804,-0.8804,-0.8804,-0.8804,-0.8738,-0.8469,-0.832,-0.8166,-0.7822,-0.7685,-0.7433,-0.6786,-0.6002,-0.5409,-0.5409,-0.5253,-0.5108,-0.5108,-0.4648,-0.426,-0.419,-0.4238,-0.426,-0.419,-0.3766,-0.3442,-0.3376,-0.2876,-0.2583,-0.2583,-0.2008,-0.1625,-0.1505,-0.144,-0.1143,-0.0618,-0.0598,-0.0399,0.0,0.0,0.0042,0.0127,0.011,0.0157,-1.5098,-1.465,-1.4085,-1.4016,-1.3506,-1.2852,-1.232,-1.1943,0.0,-1.0684,-1.0538,-1.04,-0.9922,-1.1112,-1.2252,-1.2604,-1.3065,-1.3526,-1.3893,-1.3443,-1.3017,-1.2905,-1.2905,-1.2905,-1.2905,-1.2992,-1.3065,-1.3065,-1.3152,-1.343,-1.3944,-1.3372,-1.3113,-1.32,-1.3104,-1.3065,-1.3065,-1.3065,-1.2992,-1.2905,-1.2905,-1.2905,-1.2905,-1.2905,-1.2905,-1.2905,-1.2905,-1.2905,-1.2856,-1.2236,-1.1922,-1.174,-1.1191,-1.0568,-0.9961,-0.9961,-0.9614,-0.9133,-0.9008,-0.8982,-0.8982,-0.9113,-0.9061,-0.8982,-0.8982,-0.8883,-0.8804,-0.8804,-0.8804,-0.8804,-0.8804,-0.8804,-0.8738,-0.8469,-0.7936,-0.7397,-0.7062,-0.6546,-0.6135,-0.5984,-0.5455,-0.5003,-0.5003,-0.4491,-0.4052,-0.4052,-0.3875,-0.3549,-0.305,-0.3435,-0.3549,-0.3048,-0.2918,-0.2652,-0.2164,-0.2008,-0.1962,-0.1962,-0.1385,-0.1048,-0.1019,-0.0532,-0.0221,-0.0132,-0.0132,-0.0088,0.0,0.0,0.0266,0.0753,0.0737,0.1006,-1.5293,-1.4951,-1.4424,-1.4163,-1.3636,-1.2978,-1.209,0.0,0.0,-1.0117,-0.9766,-0.9482,-0.9062,-1.0388,-1.1529,-1.1518,-1.2224,-1.2953,-1.3361,-1.2909,-1.2627,-1.2876,-1.2905,-1.2905,-1.2905,-1.2905,-1.2905,-1.2905,-1.2905,-1.3041,-1.331,-1.3065,-1.2905,-1.2905,-1.2905,-1.2905,-1.2905,-1.2905,-1.2905,-1.2905,-1.2905,-1.2905,-1.2881,-1.2501,-1.232,-1.232,-1.1965,-1.1816,-1.1792,-1.1425,-1.1065,-1.0745,-1.0415,-0.9865,-0.929,-0.929,-0.9087,-0.8804,-0.8804,-0.8804,-0.8804,-0.8804,-0.8804,-0.8804,-0.8804,-0.8804,-0.8804,-0.8804,-0.8804,-0.8804,-0.8804,-0.8804,-0.8666,-0.8157,-0.7463,-0.6901,-0.6725,-0.6154,-0.5638,-0.5638,-0.5054,-0.4543,-0.4543,-0.4182,-0.3784,-0.3398,-0.3265,-0.2996,-0.2326,-0.2477,-0.2544,-0.2273,-0.2228,-0.2119,-0.183,-0.1518,-0.134,-0.134,-0.0761,-0.0426,-0.0426,-0.0157,0.0157,0.0471,0.0157,0.0314,0.094,0.0627,0.0784,0.1362,0.1362,0.1518,-1.5049,-1.4834,-1.4424,-1.4055,-1.3656,-1.3057,-1.1881,-1.1173,-1.0517,-0.9659,-0.9143,-0.877,-0.8453,-0.9674,-1.0683,-1.0562,-1.1388,-1.2225,-1.2813,-1.2506,-1.2369,-1.2856,-1.2905,-1.2905,-1.2905,-1.2905,-1.2905,-1.2905,-1.2905,-1.2905,-1.2905,-1.2905,-1.2905,-1.2905,-1.2905,-1.2905,-1.2905,-1.2905,-1.2905,-1.2905,-1.2749,-1.2666,-1.2652,-1.1931,-1.1591,-1.1566,-1.104,-1.0788,-1.0788,-1.0644,-1.0287,-0.9788,-0.964,-0.9263,-0.8804,-0.8804,-0.8804,-0.8778,-0.8619,-0.856,-0.8533,-0.8374,-0.8533,-0.8804,-0.8804,-0.8804,-0.8804,-0.8804,-0.8804,-0.8804,-0.8804,-0.8672,-0.8342,-0.7444,-0.6799,-0.6312,-0.6182,-0.5683,-0.5296,-0.5296,-0.4742,-0.4214,-0.4025,-0.3907,-0.3549,-0.2808,-0.268,-0.2399,-0.1704,-0.1605,-0.1555,-0.1427,-0.1527,-0.1563,-0.1429,-0.0984,-0.0716,-0.0716,-0.0269,0.0067,0.018,0.0202,0.0471,0.1073,0.0627,0.0851,0.1808,0.1318,0.1407,0.1984,0.1984,0.2053,-1.4211,-1.3919,-1.3613,-1.3574,-1.3252,-1.2719,-1.1822,0.0,-1.0117,-0.9238,-0.8747,-0.8444,-0.8404,-0.8829,-0.9444,-1.0193,-1.0439,-1.0922,-1.2119,-1.2227,-1.2369,-1.2856,-1.2905,-1.2905,-1.2905,-1.2905,-1.2905,-1.2905,-1.2905,-1.2905,-1.2905,-1.2905,-1.2905,-1.2905,-1.2905,-1.2905,-1.2905,-1.2905,-1.2905,-1.2881,-1.2212,-1.1907,-1.1884,-1.12,-1.0889,-1.0889,-1.0838,-1.0788,-1.0737,-1.0141,-0.9865,-0.9736,-0.914,-0.8857,-0.8804,-0.8804,-0.8804,-0.8699,-0.8023,-0.7803,-0.7696,-0.702,-0.7696,-0.8804,-0.8804,-0.8804,-0.8804,-0.8804,-0.8804,-0.8804,-0.8804,-0.8295,-0.745,-0.6032,-0.5651,-0.5433,-0.4814,-0.4653,-0.4598,-0.4598,-0.4532,-0.4247,-0.3495,-0.3267,-0.2928,-0.2183,-0.1968,-0.1674,-0.1072,-0.0973,-0.0763,-0.0214,-0.0665,-0.0761,-0.0202,-0.0112,-0.009,-0.009,-0.0022,0.0247,0.0784,0.0828,0.1096,0.1697,0.1652,0.1697,0.1808,0.1741,0.2029,0.2605,0.2605,0.2921,-1.4036,-1.3802,-1.3506,-1.3506,-1.3193,-1.267,-1.1802,-1.0919,-1.0058,-0.918,-0.8457,-0.7973,-0.7973,-0.834,-0.8828,0.0,0.0,0.0,-1.1268,-1.1414,-1.1677,-1.2379,-1.249,-1.2588,-1.2876,-1.2905,-1.2905,-1.2905,-1.2905,-1.2905,-1.2905,-1.2905,-1.2905,-1.2905,-1.2905,-1.2691,-1.2236,-1.2236,-1.2039,-1.1633,-1.135,-1.1191,-1.1183,-1.0491,-1.0192,-1.0185,-0.9612,-0.9354,-0.9329,-0.9058,-0.8964,-0.8959,-0.8842,-0.8804,-0.8804,-0.8804,-0.8507,-0.8103,-0.7803,-0.7396,-0.6993,-0.6696,-0.6993,-0.7477,-0.7477,-0.7477,-0.7477,-0.7477,-0.7477,-0.7477,-0.7477,-0.6929,-0.6222,-0.5651,-0.5191,-0.4814,-0.457,-0.4491,-0.4349,-0.3873,-0.3818,-0.3594,-0.2788,-0.2593,-0.2309,-0.157,-0.1415,-0.1135,-0.0455,-0.0353,-0.0273,-0.0024,-0.0212,-0.0254,-0.0023,0.0,0.0157,0.0515,0.0538,0.0806,0.1407,0.1451,0.1719,0.2339,0.1984,0.2164,0.2882,0.2519,0.2655,0.3239,0.3239,0.3376,-1.3627,-1.3545,-1.332,-1.332,-1.3008,-1.2451,-1.1594,-1.0723,-0.9853,-0.8994,-0.8217,-0.7695,-0.7695,-0.7978,-0.833,0.0,0.0,-0.9728,-1.0605,-1.083,-1.1191,-1.1921,-1.2125,-1.233,-1.2656,-1.2827,-1.2905,-1.2905,-1.2905,-1.2905,-1.2905,-1.2691,-1.2666,-1.2881,-1.2691,-1.232,-1.1814,-1.1591,-1.1266,-1.0788,-1.0593,-1.0491,-1.0491,-0.9814,-0.9517,-0.947,-0.8719,-0.8295,-0.8137,-0.8087,-0.7961,-0.7828,-0.805,-0.8156,-0.8156,-0.8156,-0.783,-0.7343,-0.7122,-0.6713,-0.6231,-0.6041,-0.5991,-0.5991,-0.5991,-0.6263,-0.6588,-0.6588,-0.6588,-0.6561,-0.634,-0.59,-0.546,-0.5242,-0.4842,-0.4436,-0.4211,-0.4153,-0.3901,-0.3121,-0.301,-0.2788,-0.2009,-0.187,-0.1633,-0.0893,-0.0782,-0.0588,-0.0078,0.0,0.0077,0.0244,0.0267,0.0262,0.027,0.0269,0.0515,0.1118,0.1199,0.1502,0.209,0.2161,0.2475,0.3075,0.2627,0.2834,0.371,0.3206,0.3232,0.3707,0.3686,0.3689,-1.2798,-1.2915,-1.2915,-1.2915,-1.2559,-1.1979,-1.1113,-1.0235,-0.9377,-0.8581,-0.8037,-0.7695,-0.7695,-0.7705,-0.7856,-0.8326,-0.874,0.0,-1.0185,-1.0645,-1.1074,-1.1557,-1.1963,-1.2203,-1.2213,-1.2627,-1.2905,-1.2905,-1.2905,-1.2905,-1.2905,-1.2212,-1.2153,-1.2881,-1.2187,-1.1814,-1.1789,-1.1141,-1.0813,-1.0788,-1.0141,-0.9814,-0.9788,-0.9106,-0.8804,-0.8791,-0.8529,-0.8062,-0.7507,-0.7367,-0.6954,-0.6427,-0.6578,-0.6615,-0.6615,-0.6615,-0.6615,-0.6507,-0.5787,-0.5515,-0.5406,-0.4732,-0.4515,-0.4515,-0.4515,-0.55,-0.6588,-0.6588,-0.6588,-0.6421,-0.5706,-0.5515,-0.5324,-0.468,-0.4519,-0.4294,-0.3566,-0.3372,-0.3093,-0.2343,-0.2204,-0.1981,-0.1229,-0.1118,-0.0866,-0.0112,0.0,0.0,0.0,0.0,0.0218,0.0838,0.0882,0.088,0.0901,0.0895,0.114,0.1763,0.1925,0.2253,0.2866,0.3025,0.3362,0.3966,0.3842,0.3839,0.3991,0.3724,0.3731,0.3987,0.386,0.387,-1.1966,-1.2005,-1.1927,-1.1602,-1.165,-1.1465,-1.0283,-0.9787,-0.9377,-0.8571,-0.8027,-0.7622,-0.7333,-0.7519,-0.795,-0.8683,-0.9151,-0.9718,-1.0586,-1.1105,-1.1428,-1.1587,-1.225,-1.2676,-1.2676,-1.2352,-1.2153,-1.2153,-1.2153,-1.1956,-1.1484,-1.1674,-1.1922,-1.2138,-1.1475,-1.0889,-1.044,-1.0218,-0.9891,-0.9439,-0.9211,-0.9106,-0.908,-0.8362,-0.8049,-0.8004,-0.7229,-0.6748,-0.6487,-0.6517,-0.639,-0.6166,-0.6469,-0.6588,-0.6588,-0.6588,-0.6285,-0.5814,-0.5569,-0.5191,-0.4787,-0.457,-0.4491,-0.4491,-0.4491,-0.4818,-0.5171,-0.5171,-0.5171,-0.5117,-0.4869,-0.4814,-0.4618,-0.3871,-0.3707,-0.3541,-0.276,-0.2565,-0.2343,-0.1591,-0.1452,-0.1202,-0.0476,-0.0336,-0.028,-0.0028,0.0,0.0,0.0,0.0448,0.0824,0.1023,0.1487,0.1746,0.1665,0.1655,0.1957,0.2639,0.2722,0.3011,0.3627,0.3695,0.3795,0.3994,0.3947,0.3947,0.3994,0.3927,0.3927,0.3994,0.3947,0.395,-1.1469,-1.1467,-1.1271,-1.0977,-1.0869,-1.0576,-0.9591,-0.926,-0.8904,-0.808,-0.7675,-0.7353,-0.6942,-0.7205,-0.766,-0.8191,-0.8891,-0.962,-1.0312,-1.0937,-1.1457,-1.179,-1.2076,-1.2315,-1.2467,-1.1832,-1.1541,-1.1789,-1.1566,-1.1366,-1.1191,-1.1091,-1.104,-1.104,-1.0644,-1.0218,-0.9814,-0.9536,-0.9211,-0.8804,-0.8804,-0.8646,-0.8374,-0.791,-0.7563,-0.7251,-0.652,-0.6015,0.0,-0.578,-0.5608,-0.5363,-0.5677,-0.58,-0.58,-0.58,-0.5523,-0.5136,-0.5136,-0.4842,-0.4491,-0.4491,-0.4491,-0.4491,-0.4491,-0.4491,-0.4491,-0.4491,-0.4294,-0.407,-0.4042,-0.3846,-0.3511,-0.301,-0.2926,-0.2732,-0.1952,-0.1786,-0.1563,-0.0838,-0.0671,-0.0532,-0.0084,0.0,0.0084,0.0364,0.042,0.0504,0.0783,0.1229,0.1598,0.1837,0.2278,0.2629,0.2812,0.2569,0.2696,0.3387,0.349,0.3694,0.4053,0.4158,0.4185,0.4185,0.4109,0.4105,0.4185,0.4185,0.4158,0.4082,0.4161,0.4185,0.0,-1.1105,-1.0762,-1.0732,-1.0137,-0.9445,-0.9014,-0.8616,0.0,-0.7284,-0.7094,-0.6969,-0.6567,-0.6824,-0.7113,-0.713,-0.8169,-0.9116,-0.9512,-1.032,-1.1159,-1.2007,-1.1551,-1.1322,-1.1679,-1.1116,-1.099,-1.1616,-1.1091,-1.099,-1.1566,-1.044,-0.9762,-0.9658,-0.9658,-0.9684,-0.9744,-0.9106,-0.8804,-0.8804,-0.8752,-0.8362,-0.7694,-0.7587,-0.7154,-0.6499,-0.6181,-0.5733,-0.5202,-0.5102,-0.4714,-0.421,-0.4433,-0.4491,-0.4491,-0.4491,-0.4491,-0.4491,-0.4491,-0.4491,-0.4491,-0.4491,-0.4491,-0.4491,-0.4491,-0.4491,-0.4491,-0.4436,-0.3929,-0.3372,-0.3262,-0.2702,-0.2174,-0.2148,-0.212,-0.1925,-0.1174,-0.1034,-0.0811,-0.014,0.0,0.0,0.0,0.0056,0.0308,0.1006,0.1146,0.1424,0.212,0.2259,0.2509,0.3074,0.317,0.3488,0.4158,0.3584,0.3435,0.3999,0.4159,0.421,0.421,0.4392,0.4491,0.4491,0.4304,0.4301,0.4491,0.4491,0.4395,0.4214,0.4399,0.4515,-0.9609,0.0,-0.9375,-0.9053,-0.9062,-0.8938,0.0,-0.7929,-0.7711,-0.72,-0.7094,-0.6952,-0.6448,-0.6763,-0.7193,-0.7432,-0.8206,-0.8901,-0.9312,-0.9954,-1.055,-1.1061,-1.0988,-1.0923,-1.1032,-1.044,-1.009,-1.0261,-1.0115,-0.9891,-0.951,-0.9684,-0.9321,-0.8223,-0.819,-0.8468,-0.9035,-0.8883,-0.8804,-0.8778,-0.8235,-0.7808,-0.7501,-0.6385,-0.5759,-0.5575,-0.4935,-0.4584,-0.4463,-0.4604,-0.4479,-0.421,-0.4433,-0.4491,-0.4491,-0.4491,-0.4491,-0.4491,-0.4491,-0.4491,-0.4491,-0.4491,-0.4491,-0.4491,-0.4491,-0.4491,-0.4377,-0.3763,-0.3456,-0.3176,-0.2619,-0.2343,-0.2063,-0.148,-0.1369,-0.1146,-0.042,-0.0252,-0.0196,-0.0028,0.0,0.0,0.0,0.0476,0.0895,0.1062,0.1591,0.2009,0.2174,0.2732,0.3169,0.3309,0.3832,0.4245,0.4412,0.4118,0.4056,0.4378,0.4419,0.444,0.444,0.447,0.4491,0.4491,0.4457,0.4457,0.4491,0.4491,0.447,0.444,0.4474,0.4787,-0.8519,-0.8685,-0.8945,-0.8737,-0.856,-0.8323,-0.7863,-0.7444,-0.7033,-0.6636,0.0,-0.644,-0.6099,-0.6415,-0.6884,-0.7334,-0.8079,-0.8873,-0.9608,-1.0154,-1.0549,-1.0763,-1.0542,-1.0338,-1.0338,-0.9736,-0.9465,-0.9788,-0.951,-0.9309,-0.9263,-0.8988,-0.8481,-0.7723,-0.7369,-0.7402,-0.7777,-0.7777,-0.7777,-0.7777,-0.7375,-0.695,-0.6463,-0.5724,-0.5171,-0.4767,-0.4474,-0.4345,-0.4351,-0.4457,-0.4443,-0.4355,-0.446,-0.4491,-0.4491,-0.4491,-0.4491,-0.4491,-0.4491,-0.4267,-0.3901,-0.3566,-0.3456,-0.3456,-0.3456,-0.3456,-0.3428,-0.3372,-0.2843,-0.2202,-0.1786,-0.1452,-0.109,-0.0699,-0.0588,-0.0476,-0.0084,0.0,0.0,0.0,0.0,0.0112,0.0448,0.0838,0.134,0.2009,0.2454,0.2843,0.3204,0.3624,0.3901,0.3901,0.4267,0.4491,0.4491,0.4392,0.4379,0.4484,0.4491,0.4491,0.4491,0.4491,0.4491,0.4491,0.4491,0.4653,0.4948,0.4653,0.4846,0.5445,0.5113,0.5328,-0.7915,-0.8383,-0.8984,-0.8926,-0.8354,-0.781,-0.781,0.0,0.0,0.0,0.0,0.0,-0.58,-0.6134,-0.6588,-0.7093,-0.7873,-0.8771,-0.9843,-1.0282,-1.0491,-1.0491,-0.9987,-0.964,-0.964,-0.9133,-0.9035,-0.9614,-0.9106,-0.9008,-0.9451,-0.8349,-0.7584,-0.7364,-0.6745,-0.6372,-0.629,-0.648,-0.6588,-0.6588,-0.6475,-0.6042,-0.5306,-0.5298,-0.4889,-0.42,-0.4351,-0.4447,-0.4487,-0.4467,-0.447,-0.4491,-0.4491,-0.4491,-0.4491,-0.4349,-0.4322,-0.4322,-0.4184,-0.3707,-0.3037,-0.2397,-0.2202,-0.2202,-0.2202,-0.212,-0.2174,-0.2843,-0.212,-0.1062,-0.095,-0.0476,0.0,0.0,0.0,0.0,0.0,0.0,0.0028,0.014,0.0168,0.0392,0.1146,0.1369,0.187,0.3121,0.34,0.3732,0.4405,0.4491,0.4491,0.4491,0.4491,0.4491,0.4491,0.4491,0.4491,0.4491,0.4598,0.4708,0.4818,0.4818,0.4818,0.4818,0.4818,0.5085,0.5678,0.5085,0.5445,0.6588,0.5955,0.6064,-0.8316,-0.8633,-0.8916,-0.8581,-0.8146,-0.781,-0.781,0.0,0.0,0.0,0.0,0.0,0.0,-0.6635,-0.7054,-0.7038,-0.7577,-0.8225,-0.8928,-0.9059,-0.9113,-0.9113,-0.9008,-0.8956,-0.8956,-0.8857,-0.8831,-0.8936,-0.8857,-0.856,-0.8037,-0.783,-0.7122,-0.5864,-0.5733,-0.541,-0.4818,-0.6014,-0.6588,-0.6588,-0.5955,-0.5529,-0.528,-0.4684,-0.4319,-0.419,-0.4109,-0.4229,-0.4481,-0.4304,-0.4355,-0.4491,-0.4491,-0.4491,-0.4405,-0.3732,-0.3511,-0.3483,-0.2788,-0.2482,-0.2343,-0.2232,-0.2202,-0.2202,-0.2202,-0.1758,-0.1284,-0.1424,-0.1284,-0.095,-0.0336,-0.0084,0.0,0.0,0.0,0.0,0.0,0.0,0.0196,0.0811,0.0923,0.1174,0.1898,0.2593,0.3121,0.3345,0.3929,0.4349,0.4491,0.4491,0.4491,0.4491,0.4491,0.4491,0.4491,0.4491,0.4491,0.4491,0.503,0.5628,0.6258,0.629,0.629,0.629,0.629,0.6312,0.6421,0.6312,0.6399,0.6588,0.6475,0.6831,-0.8027,-0.834,-0.8623,-0.8354,-0.8154,-0.798,-0.7881,-0.7133,0.0,0.0,0.0,0.0,-0.6868,-0.6997,-0.7231,-0.7672,-0.8116,-0.8472,-0.8771,-0.8804,-0.8804,-0.8804,-0.8804,-0.8804,-0.8804,-0.8804,-0.8804,-0.8804,-0.8427,-0.8049,-0.7723,-0.6956,-0.6195,-0.5515,-0.5136,-0.4814,-0.4491,-0.5144,-0.5473,-0.5473,-0.5113,-0.4865,-0.4688,-0.4461,-0.4294,-0.419,-0.4123,-0.4267,-0.4481,-0.4281,-0.4331,-0.446,-0.407,-0.3873,-0.3763,-0.2982,-0.273,-0.2649,-0.187,-0.1619,-0.1535,-0.1146,-0.1006,-0.1006,-0.1006,-0.0783,-0.0504,-0.0504,-0.0504,-0.042,-0.0084,0.0,0.0,0.0,0.0308,0.0588,0.0588,0.0895,0.1284,0.1619,0.1703,0.1924,0.2676,0.3093,0.3483,0.3929,0.4294,0.4491,0.4491,0.4491,0.4491,0.4491,0.4491,0.4653,0.5003,0.503,0.503,0.503,0.5324,0.5842,0.6561,0.6588,0.6588,0.6588,0.6588,0.6804,0.7182,0.6804,0.702,0.7777,0.7369,0.7589,-0.7564,-0.7828,-0.8071,-0.7956,0.0,-0.794,-0.7901,-0.7226,0.0,0.0,0.0,0.0,-0.7417,-0.7395,-0.752,-0.8143,-0.8553,-0.8725,-0.856,-0.8699,-0.8804,-0.8804,-0.8646,-0.8533,-0.8533,-0.8401,-0.8289,-0.8289,-0.775,-0.7369,-0.7203,-0.6113,-0.5433,-0.5273,-0.4759,-0.4491,-0.4491,-0.4491,-0.4491,-0.4491,-0.4491,-0.4433,-0.4274,-0.444,-0.4429,-0.4271,-0.421,-0.4304,-0.4481,-0.4281,-0.4197,-0.4153,-0.3624,-0.3148,-0.2702,-0.2147,-0.1842,-0.1591,-0.1034,-0.0838,-0.0755,-0.0196,0.0,0.0,0.0,0.0,0.0,0.0,0.0,0.0,0.0,0.0,0.0056,0.0224,0.0699,0.1146,0.1312,0.1814,0.2259,0.2425,0.2482,0.2704,0.3456,0.3566,0.379,0.4405,0.4491,0.4491,0.4491,0.4491,0.457,0.4704,0.4732,0.5003,0.5706,0.576,0.5842,0.6005,0.6005,0.6335,0.7074,0.7128,0.7128,0.7128,0.7128,0.7396,0.7963,0.7396,0.7696,0.8778,0.8209,0.8262,-0.7141,-0.7171,-0.7173,-0.7109,-0.7141,-0.7302,-0.7795,-0.7226,0.0,-0.694,0.0,-0.7732,-0.7538,-0.7933,-0.8182,-0.7805,-0.8329,-0.8566,-0.7883,-0.8374,-0.8804,-0.8804,-0.8209,-0.7777,-0.7777,-0.7155,-0.675,-0.675,-0.6696,-0.6394,-0.5706,-0.5569,-0.5218,-0.4598,-0.4515,-0.4491,-0.4491,-0.4491,-0.4491,-0.4491,-0.4491,-0.4484,-0.4474,-0.4484,-0.4484,-0.4467,-0.4277,-0.4304,-0.4481,-0.4281,-0.3872,-0.3398,-0.34,-0.251,-0.1257,-0.1202,-0.0755,-0.014,-0.0084,-0.0084,-0.0084,-0.0028,0.0,0.0,0.0,0.0,0.0,0.0,0.0,0.0,0.0,0.0,0.0168,0.0866,0.1062,0.1284,0.1981,0.2174,0.2397,0.3093,0.3262,0.3541,0.4294,0.4405,0.4436,0.4491,0.4491,0.4491,0.4491,0.4491,0.4732,0.5351,0.5433,0.5737,0.6453,0.6529,0.6799,0.7503,0.753,0.7883,0.8619,0.8646,0.8646,0.8646,0.8646,0.8672,0.8725,0.8672,0.8699,0.8804,0.8752,0.8752,-0.685,-0.6911,-0.6917,-0.6638,-0.6871,0.0,0.0,-0.7522,-0.7533,-0.8012,-0.817,-0.8041,-0.748,-0.7336,-0.721,-0.7031,-0.7262,-0.7343,-0.7047,-0.7262,-0.7423,-0.7423,-0.7182,-0.702,-0.702,-0.675,-0.6588,-0.6588,-0.6177,-0.5787,-0.5515,-0.5109,-0.4759,-0.4519,-0.4491,-0.4491,-0.4491,-0.4491,-0.4447,-0.4304,-0.4447,-0.4491,-0.4491,-0.4491,-0.4236,-0.3754,-0.358,-0.3353,-0.3058,-0.2906,-0.2734,-0.2565,-0.2148,-0.134,-0.042,-0.042,-0.0252,0.0,0.0,0.0,0.0,0.0,0.0,0.0,0.0,0.0,0.0,0.0,0.0,0.0,0.0,0.0,0.0196,0.0923,0.1452,0.1981,0.273,0.3289,0.3707,0.3984,0.407,0.4181,0.446,0.4491,0.4491,0.4491,0.4866,0.5109,0.5109,0.5523,0.5905,0.6145,0.6605,0.6988,0.7262,0.7696,0.8103,0.8374,0.7963,0.8023,0.8778,0.8804,0.8804,0.8804,0.8804,0.8804,0.8804,0.8804,0.8804,0.8804,0.8804,0.8804,-0.645,-0.6454,-0.6484,-0.6314,0.0,0.0,-0.7416,-0.7651,-0.7976,-0.8664,-0.8462,-0.8011,-0.7516,-0.6966,-0.6529,-0.6285,-0.6448,-0.6529,-0.6285,-0.6453,-0.6588,-0.6588,-0.6394,-0.6253,-0.6253,-0.6068,-0.5937,-0.5937,-0.5464,-0.5191,-0.5191,-0.4759,-0.4491,-0.4491,-0.4491,-0.4491,-0.4491,-0.4447,-0.4261,-0.3951,-0.4028,-0.4049,-0.4066,-0.4134,-0.3707,-0.295,-0.2859,-0.2594,-0.2199,-0.2097,-0.1969,-0.1786,-0.1034,-0.0448,0.0,0.0,0.0,0.0,0.0,0.0,0.0,0.0,0.0,0.0,0.0,0.0,0.0,0.0,0.0168,0.0336,0.0336,0.0336,0.0588,0.1591,0.2202,0.276,0.3511,0.4098,0.4491,0.4491,0.4491,0.4491,0.4491,0.468,0.4814,0.4814,0.541,0.5846,0.5846,0.6285,0.6696,0.6912,0.7616,0.8049,0.8049,0.8507,0.8804,0.8804,0.8321,0.8262,0.8785,0.8804,0.8804,0.8804,0.8804,0.8804,0.8804,0.8804,0.8804,0.8804,0.8804,0.8804,-0.5917,-0.5697,-0.5785,-0.6122,0.0,0.0,-0.7363,-0.752,-0.7752,-0.8624,-0.8209,-0.767,-0.767,-0.7074,-0.634,-0.5597,-0.6091,-0.6312,-0.5597,-0.6118,-0.6588,-0.6588,-0.5928,-0.5487,-0.5487,-0.4893,-0.4491,-0.4491,-0.4491,-0.4491,-0.4491,-0.4491,-0.4491,-0.4491,-0.4487,-0.4487,-0.4487,-0.4291,-0.3921,-0.3384,-0.3194,-0.31,-0.3107,-0.3294,-0.2954,-0.2202,-0.2202,-0.2174,-0.2174,-0.2174,-0.1758,-0.1006,-0.028,0.0,0.0,0.0,0.0,0.0,0.0,0.0,0.0,0.0,0.0,0.0,0.0,0.0,0.0,0.0028,0.056,0.1118,0.1118,0.1118,0.1507,0.3037,0.3345,0.3511,0.4322,0.4491,0.4491,0.4491,0.4491,0.4491,0.4519,0.5054,0.5515,0.5515,0.6145,0.6615,0.6615,0.6615,0.6912,0.7643,0.8374,0.8804,0.8804,0.8804,0.8804,0.8804,0.8804,0.8804,0.8804,0.8804,0.8804,0.8804,0.8804,0.8804,0.8804,0.8804,0.8804,0.8804,0.8804,0.8804,-0.565,-0.5761,-0.6082,-0.6169,-0.6874,-0.7612,0.0,-0.8127,0.0,0.0,-0.7036,-0.6167,-0.6167,-0.5578,-0.5062,-0.4842,-0.4979,-0.5034,-0.4814,-0.4979,-0.5117,-0.5117,-0.4924,-0.4787,-0.4787,-0.4625,-0.4491,-0.4491,-0.4491,-0.4491,-0.4491,-0.4491,-0.4491,-0.4491,-0.4365,-0.4121,-0.3738,-0.3536,-0.3076,-0.2407,-0.2447,-0.2455,-0.2458,-0.2515,-0.2152,-0.1429,-0.1436,-0.1146,-0.0643,-0.0643,-0.0532,-0.0308,-0.0084,0.0,0.0,0.0,0.0,0.0,0.0,0.0,0.0,0.0,0.0,0.0084,0.0615,0.0783,0.0895,0.1396,0.1703,0.1981,0.2508,0.2649,0.2788,0.3289,0.3345,0.3511,0.4322,0.4491,0.4491,0.4491,0.4491,0.4653,0.5109,0.5378,0.5678,0.6199,0.6912,0.7563,0.8076,0.8156,0.8242,0.8454,0.8672,0.8804,0.8804,0.8804,0.8804,0.8804,0.8804,0.8804,0.8804,0.8804,0.8804,0.8804,0.8804,0.8804,0.8804,0.8804,0.8804,0.8804,0.8804,0.8804,-0.5775,-0.6015,-0.6424,-0.666,-0.7098,-0.751,-0.7642,-0.7914,-0.7957,-0.7368,-0.633,-0.5515,-0.5515,-0.4948,-0.4491,-0.4491,-0.4491,-0.4491,-0.4491,-0.4491,-0.4491,-0.4491,-0.4491,-0.4491,-0.4491,-0.4491,-0.4491,-0.4491,-0.4491,-0.4491,-0.4491,-0.4491,-0.4349,-0.4042,-0.3911,-0.3545,-0.2937,-0.2762,-0.2319,-0.1639,-0.1678,-0.1564,-0.1328,-0.1623,-0.1352,-0.0665,-0.0662,-0.042,0.0,0.0,0.0,0.0,0.0,0.0,0.0,0.0,0.0196,0.0448,0.0448,0.0615,0.0867,0.0867,0.0867,0.095,0.1396,0.1535,0.1619,0.2063,0.2397,0.2732,0.3176,0.3539,0.379,0.3818,0.3818,0.3901,0.4405,0.4491,0.4491,0.4491,0.4708,0.503,0.5433,0.5977,0.6519,0.6966,0.767,0.8295,0.8752,0.8804,0.8804,0.8804,0.8804,0.8804,0.8804,0.8804,0.8804,0.8804,0.8804,0.8804,0.8804,0.8804,0.8804,0.8804,0.8804,0.8804,0.8804,0.8804,0.8804,0.8804,0.8804,0.8804,-0.6073,-0.629,-0.67,-0.7264,-0.7082,-0.6729,-0.6546,-0.702,-0.7316,-0.6637,-0.5928,-0.5406,-0.5406,-0.4924,-0.4491,-0.4491,-0.4491,-0.4491,-0.4491,-0.4491,-0.4491,-0.4491,-0.4491,-0.4491,-0.4491,-0.4491,-0.4491,-0.4491,-0.4491,-0.4491,-0.4491,-0.4436,-0.407,-0.3345,-0.3214,-0.283,-0.2109,-0.1955,-0.1591,-0.0994,-0.0867,-0.0539,-0.0023,-0.0707,-0.0636,0.0,0.0,0.0,0.0,0.0,0.0,0.0,0.0084,0.0112,0.0112,0.0168,0.0615,0.1202,0.1202,0.1647,0.2202,0.2202,0.2202,0.2204,0.2286,0.2286,0.2313,0.2397,0.2899,0.34,0.34,0.3959,0.4491,0.4491,0.4491,0.4491,0.4491,0.4491,0.4515,0.457,0.5085,0.5542,0.5678,0.6821,0.7723,0.7777,0.8374,0.8804,0.8804,0.8804,0.8804,0.8804,0.8804,0.8804,0.8804,0.8804,0.8804,0.8804,0.8804,0.8804,0.8804,0.8804,0.8804,0.8804,0.8804,0.8804,0.8804,0.8804,0.8804,0.8804,0.8804,0.8804,-0.5495,-0.5836,-0.6343,-0.657,-0.6632,-0.6489,-0.5878,-0.5869,-0.5923,-0.576,-0.5195,-0.4708,-0.4708,-0.4598,-0.4491,-0.4491,-0.4491,-0.4491,-0.4491,-0.4491,-0.4491,-0.4491,-0.4491,-0.4491,-0.4491,-0.4491,-0.4491,-0.4491,-0.4491,-0.4491,-0.4491,-0.3901,-0.3511,-0.3372,-0.2674,-0.1974,-0.1351,-0.1214,-0.0824,-0.0228,-0.0203,-0.0114,0.0,-0.0174,-0.0155,0.0,0.0,0.0,0.0,0.0,0.0,0.0056,0.0643,0.0866,0.0923,0.1507,0.1813,0.1952,0.1952,0.2063,0.2202,0.2202,0.2202,0.2313,0.2899,0.3065,0.3204,0.3818,0.4125,0.4236,0.4236,0.4377,0.4491,0.4491,0.4491,0.4491,0.4491,0.4491,0.4653,0.5191,0.5406,0.5869,0.7036,0.7477,0.7889,0.848,0.8699,0.8804,0.8804,0.8804,0.8804,0.8804,0.8804,0.8804,0.8804,0.8804,0.8804,0.8804,0.8804,0.8804,0.8804,0.8804,0.8804,0.8804,0.8804,0.8804,0.8804,0.8804,0.8804,0.8804,0.8804,0.8804,-0.4994,-0.5422,-0.5943,-0.5875,-0.5913,-0.5819,-0.5175,-0.503,-0.503,-0.503,-0.4732,-0.4491,-0.4491,-0.4491,-0.4491,-0.4491,-0.4491,-0.4491,-0.4491,-0.4491,-0.4491,-0.4491,-0.4491,-0.4491,-0.4491,-0.4153,-0.3929,-0.3959,-0.3624,-0.34,-0.34,-0.2991,-0.2638,-0.2313,-0.1813,-0.1249,-0.059,-0.0495,-0.032,0.0,0.0,0.0,0.0,0.0,0.0,0.0,0.0,0.0,0.0,0.0,0.0196,0.056,0.095,0.1312,0.1675,0.2063,0.2454,0.276,0.2732,0.2982,0.3287,0.3287,0.3287,0.3372,0.3763,0.3873,0.3956,0.4377,0.4491,0.4491,0.4491,0.4491,0.4491,0.4491,0.4491,0.4598,0.4921,0.4976,0.5195,0.59,0.6308,0.6794,0.7557,0.7996,0.8348,0.8752,0.8804,0.8804,0.8804,0.8804,0.8804,0.8804,0.8804,0.8804,0.8804,0.8804,0.8804,0.8804,0.8804,0.8804,0.8804,0.8804,0.8804,0.8804,0.8804,0.8804,0.8804,0.8804,0.8804,0.8804,0.8804,0.8858,-0.4596,-0.5026,-0.5439,-0.5211,-0.5131,-0.5008,-0.4559,-0.447,-0.4491,-0.4491,-0.4491,-0.4491,-0.4491,-0.4491,-0.4491,-0.4491,-0.4491,-0.4491,-0.4491,-0.4377,-0.4294,-0.4294,-0.4181,-0.4098,-0.4098,-0.3511,-0.3121,-0.3178,-0.2565,-0.2197,-0.2211,-0.2071,-0.1717,-0.1131,-0.0967,-0.0616,0.0,0.0,0.0,0.0,0.0,0.0,0.0,0.0,0.0,0.0,0.014,0.0196,0.0194,0.0335,0.0727,0.1312,0.1424,0.1842,0.2397,0.2538,0.301,0.3594,0.3539,0.3932,0.4491,0.4491,0.4491,0.4491,0.4491,0.4491,0.4491,0.4491,0.4491,0.4491,0.4491,0.4491,0.4491,0.4491,0.4598,0.4814,0.5378,0.5597,0.5896,0.6642,0.7375,0.7883,0.7883,0.8401,0.8804,0.8804,0.8804,0.8804,0.8804,0.8804,0.8804,0.8804,0.8804,0.8804,0.8804,0.8804,0.8804,0.8804,0.8804,0.8804,0.8804,0.8804,0.8804,0.8804,0.8804,0.8804,0.8804,0.8804,0.8831,0.8858,0.8858,0.9011,-0.4429,-0.4588,-0.4704,-0.4547,-0.4435,-0.4332,-0.4247,-0.4372,-0.4491,-0.4491,-0.4491,-0.4491,-0.4491,-0.4491,-0.4491,-0.4491,-0.4491,-0.4491,-0.4491,-0.3959,-0.3511,-0.3456,-0.2899,-0.2508,-0.2508,-0.2397,-0.2343,-0.2371,-0.2258,-0.2203,-0.219,-0.1594,-0.1204,-0.1093,-0.049,-0.0096,0.0,0.0,0.0,0.0,0.0,0.0,0.0,0.0,0.0,0.0027,0.0663,0.0962,0.0991,0.1654,0.1952,0.212,0.276,0.3065,0.3234,0.3929,0.4267,0.4349,0.4349,0.4405,0.4491,0.4491,0.4491,0.4491,0.4491,0.4491,0.4491,0.4491,0.4491,0.4491,0.4491,0.4491,0.4491,0.4491,0.4948,0.5378,0.5487,0.6009,0.6664,0.7396,0.8156,0.8646,0.8646,0.8725,0.8804,0.8804,0.8804,0.8804,0.8804,0.8804,0.8804,0.8804,0.8804,0.8804,0.8804,0.8804,0.8804,0.8804,0.8804,0.8804,0.8804,0.8804,0.8804,0.8804,0.8804,0.8804,0.8804,0.8804,0.8911,0.9158,0.9158,0.9311,-0.4083,-0.3801,-0.3596,-0.3877,-0.3908,-0.3893,-0.4058,-0.4142,-0.4239,-0.4324,-0.4341,-0.4368,-0.4474,-0.4491,-0.4491,-0.4491,-0.4125,-0.3846,-0.3876,-0.3204,-0.2704,-0.2676,-0.2397,-0.2202,-0.2202,-0.1813,-0.1591,-0.1591,-0.1202,-0.0964,-0.0957,-0.0651,-0.0482,-0.049,-0.0165,0.0,0.0,0.0,0.018,0.0493,0.0502,0.0713,0.1133,0.1125,0.0949,0.063,0.0972,0.1329,0.1748,0.2078,0.2454,0.2899,0.3176,0.3566,0.4015,0.4377,0.4491,0.4491,0.4491,0.4491,0.4491,0.4491,0.4491,0.4491,0.4491,0.4491,0.4491,0.4491,0.4491,0.4491,0.4491,0.4491,0.4598,0.4976,0.5601,0.6226,0.6632,0.6988,0.7423,0.8182,0.8586,0.8804,0.8804,0.8804,0.8804,0.8804,0.8804,0.8804,0.8804,0.8804,0.8804,0.8804,0.8804,0.8804,0.8804,0.8804,0.8804,0.8804,0.8804,0.8804,0.8804,0.8804,0.8804,0.8804,0.8804,0.8804,0.8804,0.8944,0.9084,0.9217,0.9384,0.9646,-0.3491,-0.3076,-0.2806,-0.3258,-0.3457,-0.3592,-0.3849,-0.394,-0.4038,-0.4164,-0.4197,-0.4211,-0.4183,-0.4349,-0.4436,-0.4236,-0.368,-0.3262,-0.3121,-0.2425,-0.1925,-0.1925,-0.1758,-0.1647,-0.1647,-0.1146,-0.0811,-0.0811,-0.0306,0.0,0.0,0.0,0.0,0.0,0.0,0.0,0.0,0.0157,0.0448,0.0895,0.1086,0.1461,0.2014,0.2031,0.1899,0.1647,0.1647,0.1981,0.2508,0.2704,0.3148,0.368,0.3622,0.3984,0.4491,0.4491,0.4491,0.4491,0.4491,0.4491,0.4491,0.4491,0.4491,0.4491,0.4491,0.4491,0.4491,0.4491,0.4625,0.4708,0.4546,0.4763,0.5117,0.5433,0.6199,0.7074,0.783,0.799,0.8129,0.8699,0.8804,0.8804,0.8804,0.8804,0.8804,0.8804,0.8804,0.8804,0.8804,0.8804,0.8804,0.8804,0.8804,0.8857,0.9035,0.891,0.8883,0.9035,0.8883,0.8883,0.9035,0.9156,0.9231,0.9178,0.9273,0.92,0.8891,0.9289,0.9451,0.9437,0.9693,0.9953,-0.2522,-0.2589,-0.271,-0.2744,-0.3027,-0.3363,-0.3565,-0.3819,-0.4038,-0.4164,-0.4197,-0.4025,-0.3462,-0.3984,-0.4239,-0.3483,-0.3317,-0.3065,-0.2371,-0.1619,-0.1146,-0.1146,-0.0532,-0.0112,-0.0112,-0.0084,-0.0056,-0.0056,-0.0027,0.0,0.0,0.0,0.0,0.0,0.0,0.0,0.0,0.056,0.0873,0.0918,0.1604,0.196,0.2015,0.2134,0.2558,0.3176,0.3176,0.3234,0.34,0.4098,0.4405,0.4436,0.4436,0.446,0.4491,0.4491,0.4491,0.4491,0.4491,0.4491,0.4491,0.4491,0.4491,0.4491,0.4491,0.4491,0.4491,0.4491,0.4948,0.5296,0.4653,0.55,0.6312,0.5651,0.66,0.7857,0.8593,0.8752,0.8752,0.8778,0.8804,0.8804,0.8804,0.8804,0.8804,0.8804,0.8804,0.8804,0.8804,0.8804,0.8804,0.8804,0.8804,0.9061,0.9684,0.9159,0.9087,0.9718,0.9159,0.9087,0.971,1.0173,1.0339,1.023,1.0611,1.0263,0.9191,0.9899,1.0186,1.0043,1.0057,1.0254,-0.2399,-0.2323,-0.2304,-0.252,-0.2744,-0.2961,-0.3113,-0.3357,-0.3494,-0.3283,-0.3305,-0.3196,-0.2695,-0.3239,-0.3539,-0.273,-0.2202,-0.1786,-0.1535,-0.0866,-0.0392,-0.0392,-0.0168,0.0,0.0,0.0,0.0,0.0,0.0,0.0,0.0,0.0,0.0,0.0,0.0,0.018,0.0583,0.0784,0.1297,0.2053,0.233,0.2738,0.3291,0.3335,0.362,0.407,0.407,0.407,0.4125,0.4377,0.4491,0.4491,0.4491,0.4491,0.4491,0.4491,0.4491,0.4491,0.4491,0.4491,0.4491,0.4491,0.4491,0.4491,0.4491,0.4491,0.4598,0.503,0.5003,0.5003,0.5691,0.5873,0.6064,0.674,0.7664,0.848,0.8752,0.8804,0.8804,0.8804,0.8804,0.8804,0.8804,0.8804,0.8804,0.8804,0.8804,0.8804,0.8804,0.8804,0.8804,0.8804,0.9185,0.9361,0.9185,0.9718,0.9987,0.9814,0.9987,1.0086,1.012,1.0777,1.0988,1.0697,1.1762,1.138,0.9526,0.9967,1.0144,1.012,1.0314,1.0486,-0.2173,-0.2077,-0.2004,-0.2321,-0.2471,-0.2598,-0.2852,-0.304,-0.3087,-0.2767,-0.2778,-0.2619,-0.1952,-0.2257,-0.2445,-0.1918,-0.1424,-0.1006,-0.0755,-0.0308,0.0,0.0,0.0,0.0,0.0,0.0,0.0,0.0,0.0,0.0,0.0,0.0,0.0092,0.0292,0.0292,0.0583,0.1207,0.1407,0.1897,0.2696,0.296,0.3373,0.3944,0.4024,0.4176,0.4392,0.4467,0.4491,0.4491,0.4491,0.4491,0.4491,0.4491,0.4491,0.4491,0.4491,0.4491,0.4491,0.4491,0.4491,0.4491,0.4491,0.4491,0.4491,0.4491,0.4491,0.4598,0.503,0.5195,0.5363,0.6036,0.6226,0.6546,0.7777,0.8454,0.8804,0.8804,0.8804,0.8804,0.8804,0.8804,0.8804,0.8804,0.8804,0.8804,0.8804,0.8804,0.8804,0.8804,0.9008,0.9133,0.9133,0.9736,1.0118,1.0057,1.0649,1.0926,1.0735,1.1049,1.1172,1.1027,1.1822,1.2121,1.1801,1.2898,1.2597,1.0821,1.1123,1.1084,1.0683,1.1164,1.1421,0.0,0.0,0.0,-0.2124,-0.2187,-0.2303,-0.2767,-0.2854,-0.281,-0.2676,-0.2639,-0.2325,-0.1265,-0.1057,-0.1057,-0.1075,-0.1059,-0.081,-0.0112,0.0,0.0,0.0,0.0,0.0,0.0,0.0,0.0,0.0,0.0,0.0,0.0,0.0023,0.0314,0.0918,0.0918,0.1206,0.183,0.2406,0.2719,0.2741,0.3458,0.3788,0.3802,0.4075,0.4184,0.4197,0.4392,0.4484,0.4484,0.4487,0.4491,0.4491,0.4491,0.4491,0.4491,0.4491,0.4491,0.4491,0.4491,0.4491,0.4491,0.4491,0.4491,0.4519,0.4515,0.4515,0.4543,0.4546,0.5555,0.6448,0.5733,0.6632,0.791,0.8619,0.8804,0.8804,0.8804,0.8804,0.8811,0.8818,0.8824,0.8824,0.8831,0.8824,0.8824,0.8824,0.8811,0.8837,0.8844,0.942,0.984,0.9855,1.0448,1.1277,1.2392,1.1904,1.1825,1.2473,1.2284,1.2272,1.2526,1.3359,1.375,1.3616,1.4015,1.3846,1.3039,1.3389,1.2978,1.1865,1.2634,1.3009,-0.1803,0.0,0.0,0.0,0.0,0.0,-0.1932,-0.1953,-0.1823,-0.1359,-0.1329,-0.1182,-0.0428,-0.0315,-0.0296,-0.031,-0.0292,-0.0245,-0.0028,0.0,0.0,0.0,0.0,0.0,0.0,0.0,0.0,0.0,0.0,0.0,0.0,0.0416,0.0918,0.1541,0.1541,0.1852,0.245,0.2605,0.2921,0.335,0.3552,0.3716,0.3795,0.388,0.3954,0.4065,0.4217,0.4281,0.4291,0.4447,0.4491,0.4491,0.4491,0.4491,0.4491,0.4491,0.4491,0.4491,0.4491,0.4491,0.4491,0.4491,0.4491,0.4598,0.5085,0.5218,0.5328,0.5878,0.629,0.6669,0.7015,0.7797,0.8533,0.8752,0.8804,0.8804,0.8804,0.8804,0.8871,0.9051,0.9091,0.9158,0.9406,0.9259,0.9091,0.9091,0.9325,0.9649,0.9989,1.0322,1.0639,1.1001,1.1328,1.1599,1.1756,1.2489,1.2939,1.2932,1.333,1.3469,1.3293,1.4091,1.4374,1.4042,1.472,1.4658,1.3885,1.3382,1.3,1.2665,1.2917,1.3009,0.0,0.0,0.0,0.0,0.0,0.0,-0.1473,-0.1435,-0.1262,-0.079,-0.0758,-0.0652,-0.0108,0.0,0.0,0.0,0.0,0.0,0.0,0.0,0.0,0.0,0.0,0.0,0.0,0.0,0.0,0.0,0.0222,0.0497,0.0744,0.1088,0.1563,0.2162,0.2184,0.2475,0.3078,0.3078,0.3262,0.3604,0.3604,0.3648,0.373,0.3829,0.3934,0.4008,0.422,0.4495,0.4763,0.4856,0.4759,0.4491,0.4491,0.4491,0.4543,0.4814,0.4732,0.4546,0.4814,0.4732,0.4546,0.4814,0.4921,0.5003,0.5378,0.5515,0.5597,0.6009,0.6583,0.7235,0.7969,0.848,0.8804,0.8804,0.8804,0.8883,0.9159,0.9211,0.9329,0.9658,0.9748,0.9958,1.0585,1.0392,1.0171,1.0171,1.02,1.0314,1.0596,1.0971,1.1327,1.1602,1.2018,1.2279,1.2322,1.3202,1.3683,1.3538,1.4216,1.4475,1.4119,1.4715,1.4955,1.4717,1.5167,1.5177,1.4688,1.4243,1.3995,1.3995,1.3666,1.3666,-0.1822,-0.1833,0.0,0.0,-0.144,0.0,-0.1208,-0.1084,-0.0906,-0.067,-0.0627,-0.0495,-0.0076,0.0,0.0,0.0,0.0,0.0,0.0,0.0,0.0,0.0,0.0,0.0,0.0,0.0,0.0025,0.01,0.0652,0.1254,0.1876,0.1895,0.2184,0.2785,0.2807,0.3056,0.3604,0.3604,0.3604,0.3604,0.3604,0.361,0.3634,0.3877,0.3981,0.4011,0.4421,0.4922,0.5485,0.5588,0.5273,0.4736,0.4736,0.4736,0.4814,0.541,0.5246,0.4818,0.541,0.5191,0.4708,0.53,0.546,0.5406,0.5487,0.5515,0.5538,0.5701,0.6686,0.7857,0.8619,0.8804,0.8804,0.8804,0.8857,0.9087,0.9658,0.9865,1.0067,1.0616,1.069,1.0985,1.1955,1.185,1.1591,1.1481,1.1189,1.0981,1.0981,1.1543,1.194,1.1977,1.2577,1.3125,1.3545,1.3938,1.4202,1.425,1.4962,1.5244,1.4873,1.5215,1.541,1.541,1.541,1.541,1.541,1.541,1.541,1.5381,1.4569,1.4569,-0.1985,-0.2043,-0.2034,-0.1686,-0.1364,0.0,-0.0657,-0.0389,-0.0195,-0.0143,-0.0132,-0.0106,-0.0017,0.0,0.0,0.0,0.0,0.0,0.0,0.0,0.0,0.0,0.0,0.0,0.0,0.0,0.0193,0.0698,0.1273,0.1891,0.2497,0.2517,0.281,0.3398,0.342,0.349,0.3604,0.3604,0.3604,0.3604,0.3604,0.3662,0.3751,0.3809,0.3904,0.4054,0.4799,0.5226,0.5392,0.6111,0.6312,0.6182,0.6182,0.6182,0.6204,0.634,0.6312,0.6204,0.634,0.59,0.5324,0.546,0.5136,0.4787,0.5324,0.5515,0.5756,0.6929,0.7477,0.7857,0.8619,0.8804,0.8804,0.8804,0.9211,0.964,0.9762,1.0218,1.0903,1.1913,1.1849,1.178,1.2249,1.2365,1.2144,1.143,1.1817,1.2173,1.2173,1.246,1.2826,1.3128,1.3303,1.3555,1.3948,1.4404,1.4805,1.5137,1.5322,1.5342,1.5293,1.5371,1.541,1.541,1.541,1.541,1.541,1.541,1.541,1.5381,1.4569,1.4273,-0.1726,-0.1694,-0.1633,-0.1125,-0.0875,0.0,0.0,-0.0095,0.0,0.0,0.0,0.0,0.0,0.0,0.0,0.0,0.0,0.0042,0.0174,0.0093,0.0,0.0,0.0,0.0119,0.0428,0.0444,0.0831,0.1727,0.2076,0.2519,0.3126,0.3148,0.3284,0.3578,0.3604,0.3604,0.3604,0.3604,0.3604,0.3604,0.3675,0.3747,0.3795,0.3948,0.4232,0.467,0.5173,0.5805,0.6533,0.6972,0.7369,0.7616,0.6885,0.6588,0.6642,0.702,0.6912,0.6642,0.702,0.6416,0.5569,0.5928,0.5574,0.514,0.5846,0.6308,0.674,0.7503,0.7969,0.8421,0.9126,0.9061,0.8962,0.964,0.9788,0.9987,1.0636,1.1065,1.1639,1.2786,1.2836,1.2824,1.3174,1.3148,1.2905,1.2464,1.2565,1.2708,1.2708,1.2835,1.2983,1.3174,1.3193,1.3359,1.3763,1.4192,1.4648,1.5068,1.5293,1.541,1.541,1.541,1.541,1.541,1.541,1.541,1.541,1.4991,1.4805,1.4776,1.3567,1.3205,-0.1395,-0.1285,-0.116,-0.0596,-0.046,-0.0376,0.0,0.0,0.0,0.0,0.0,0.0,0.0,0.0046,0.008,0.0079,0.0158,0.028,0.0474,0.0328,0.0182,0.0091,0.0022,0.0242,0.0839,0.1053,0.158,0.2625,0.2743,0.3026,0.3575,0.3604,0.3604,0.3604,0.3604,0.3604,0.3604,0.3604,0.3617,0.3645,0.3896,0.3961,0.3887,0.4386,0.4883,0.5361,0.5748,0.66,0.7723,0.7857,0.8268,0.8672,0.7482,0.702,0.7101,0.7696,0.7536,0.7101,0.7696,0.7036,0.6005,0.6448,0.6091,0.5651,0.6367,0.7128,0.7696,0.7696,0.8242,0.8956,0.9614,0.9387,0.9283,1.0517,1.0491,1.0491,1.1566,1.1922,1.228,1.321,1.3389,1.3516,1.3919,1.3773,1.3549,1.3408,1.3164,1.3023,1.3023,1.3023,1.3023,1.3023,1.3179,1.335,1.3603,1.4065,1.4504,1.4883,1.5225,1.541,1.541,1.541,1.541,1.541,1.541,1.5323,1.5177,1.4362,1.4064,1.4154,1.2565,1.2143,-0.128,-0.1203,-0.1192,-0.0775,-0.0668,-0.0548,-0.0108,0.0,0.0,0.0,0.0,0.0,0.0,0.0,0.0,0.0357,0.0707,0.0937,0.0853,0.0916,0.0827,0.0396,0.0137,0.0243,0.0842,0.1607,0.2236,0.2659,0.2926,0.3208,0.3587,0.3604,0.3604,0.3604,0.3604,0.3604,0.3604,0.3604,0.3665,0.3791,0.445,0.4554,0.4195,0.5539,0.5908,0.554,0.6864,0.753,0.775,0.8401,0.8725,0.8778,0.8619,0.856,0.8566,0.8646,0.8619,0.856,0.8646,0.8129,0.7369,0.6777,0.6091,0.5651,0.6367,0.7128,0.7696,0.7696,0.8242,0.8956,0.9614,0.9736,0.9865,1.0618,1.1191,1.1616,1.1765,1.232,1.2808,1.2939,1.2974,1.3111,1.3506,1.3821,1.3782,1.3091,1.3232,1.3437,1.3437,1.3437,1.3437,1.3437,1.4111,1.4424,1.4065,1.4777,1.5293,1.5342,1.5381,1.541,1.541,1.541,1.541,1.541,1.541,1.505,1.4323,1.3524,1.3485,1.4154,1.2565,1.1865,-0.0842,-0.0736,-0.0693,-0.0374,-0.0294,-0.0241,-0.005,0.0,0.0,0.0,0.0,0.0,0.0,0.0,0.0,0.0,0.0563,0.0792,0.1096,0.104,0.0904,0.0708,0.0586,0.0788,0.1478,0.2253,0.2775,0.2926,0.303,0.3195,0.3414,0.3531,0.3604,0.3604,0.3604,0.3604,0.3604,0.3682,0.3961,0.4439,0.4913,0.5245,0.5513,0.6204,0.66,0.6821,0.7423,0.7937,0.8374,0.8672,0.8804,0.8804,0.8804,0.8804,0.8804,0.8804,0.8804,0.8804,0.8804,0.8315,0.7589,0.6831,0.6691,0.6821,0.7155,0.775,0.8421,0.8797,0.887,0.9133,1.0593,1.0389,1.0174,1.1667,1.1907,1.1922,1.2344,1.2691,1.2905,1.2905,1.2905,1.3042,1.3437,1.3447,1.3369,1.3262,1.3184,1.332,1.3782,1.3627,1.3603,1.3821,1.4189,1.4406,1.4502,1.4844,1.5146,1.54,1.541,1.541,1.541,1.541,1.541,1.541,1.541,1.4991,1.4213,1.3394,1.294,1.2779,1.1624,1.1108,-0.042,-0.0284,-0.0251,-0.0045,0.0,0.0,0.0,0.0,0.0,0.0,0.0,0.0,0.0,0.0,0.0,0.0,0.0,0.1015,0.1383,0.1299,0.1157,0.1023,0.1128,0.1423,0.1998,0.2591,0.2988,0.3091,0.3005,0.3037,0.3293,0.3435,0.3534,0.36,0.3604,0.3604,0.3604,0.3924,0.4388,0.4954,0.5592,0.6102,0.6478,0.6967,0.7375,0.7723,0.791,0.8315,0.8804,0.8804,0.8804,0.8804,0.8804,0.8804,0.8804,0.8804,0.8804,0.8804,0.8804,0.8315,0.7643,0.7316,0.7423,0.775,0.7937,0.8374,0.891,0.9387,0.9316,0.9458,1.1091,1.0939,1.0779,1.2495,1.2476,1.2236,1.2774,1.2905,1.2905,1.2905,1.2993,1.3154,1.3457,1.3262,1.3193,1.3588,1.3418,1.3486,1.4192,1.4043,1.3975,1.425,1.4387,1.4543,1.4766,1.4893,1.5088,1.5391,1.541,1.541,1.541,1.541,1.541,1.541,1.5167,1.4688,1.3885,1.3061,1.2266,1.1469,1.0863,1.0593,-0.0134,-0.0017,-0.0016,0.0,0.0,0.0,0.0,0.0,0.0,0.0,0.0,0.0,0.0,0.0588,0.0,0.0,0.0,0.0,0.0,0.1884,0.1793,0.1335,0.1695,0.2021,0.218,0.2393,0.2685,0.3067,0.2737,0.2747,0.3276,0.3313,0.3404,0.3597,0.3604,0.3604,0.3604,0.4442,0.4944,0.5107,0.667,0.7123,0.6632,0.807,0.8348,0.775,0.8454,0.8785,0.8804,0.8804,0.8804,0.8804,0.8804,0.8804,0.8804,0.8804,0.8804,0.8804,0.8804,0.8315,0.7803,0.8507,0.8268,0.783,0.8533,0.8785,0.8804,0.8831,0.929,0.9935,1.0644,1.1291,1.1922,1.2715,1.2881,1.2881,1.2881,1.2905,1.2905,1.2905,1.3213,1.3486,1.3506,1.3496,1.3633,1.4026,1.4075,1.4221,1.4707,1.4784,1.4746,1.4793,1.5127,1.5215,1.4814,1.5156,1.54,1.541,1.541,1.541,1.541,1.541,1.541,1.541,1.4628,1.3846,1.3039,1.2235,1.1406,1.0656,1.0624,1.0593,-0.005,0.0,0.0,0.0,0.0,0.0041,0.0223,0.0366,0.0519,0.0696,0.08,0.0858,0.0855,0.0,0.0,0.0,0.0,0.0,0.0,0.1836,0.1837,0.1775,0.2101,0.2255,0.2093,0.2335,0.2563,0.2699,0.2568,0.2661,0.3017,0.3202,0.3354,0.3471,0.3549,0.3604,0.3604,0.4564,0.5292,0.5848,0.7044,0.7773,0.8076,0.856,0.8672,0.8454,0.8699,0.8804,0.8804,0.8804,0.8804,0.8804,0.8804,0.8804,0.8804,0.8804,0.8804,0.8804,0.8804,0.8646,0.848,0.8725,0.8619,0.848,0.8725,0.9113,0.9562,0.9987,1.0295,1.072,1.19,1.2005,1.1996,1.2715,1.2905,1.2905,1.2905,1.2905,1.2983,1.3242,1.3408,1.3691,1.4258,1.4355,1.4404,1.4541,1.4289,1.4367,1.5107,1.4951,1.4893,1.5176,1.5322,1.5352,1.5215,1.5332,1.541,1.541,1.541,1.5167,1.4628,1.4599,1.4362,1.3816,1.3545,1.3,1.2205,1.1919,1.1382,1.0593,1.0593,1.0593,0.0,0.0,0.0033,0.0203,0.0254,0.0312,0.0592,0.0745,0.0888,0.1065,0.1167,0.1236,0.1296,0.139,0.0,0.0,0.0,0.0,0.0,0.1803,0.1829,0.1916,0.2157,0.229,0.2191,0.2259,0.239,0.2551,0.2465,0.2549,0.289,0.3118,0.3273,0.3368,0.3709,0.388,0.388,0.5165,0.6043,0.6533,0.758,0.8348,0.8804,0.8804,0.8804,0.8804,0.8804,0.8804,0.8804,0.8804,0.8804,0.8804,0.8804,0.8804,0.8804,0.8804,0.8804,0.8804,0.8804,0.8804,0.8804,0.8804,0.8804,0.8804,0.8804,0.9263,0.9884,1.0312,1.0788,1.1366,1.227,1.2344,1.232,1.2798,1.2905,1.2905,1.2905,1.2905,1.3032,1.3428,1.3633,1.3929,1.4658,1.4912,1.501,1.501,1.4775,1.4767,1.5342,1.5176,1.5107,1.5381,1.541,1.541,1.541,1.541,1.541,1.541,1.5138,1.4746,1.4213,1.3944,1.3524,1.3009,1.2734,1.2328,1.1803,1.15,1.1108,1.0593,1.0593,1.0593]},{"header":{"parameterUnit":"m.s-1","parameterCategory":1,"la1":30.6,"la2":29.2853,"lo1":-89.7004,"lo2":-87.6739,"dy":0.0162,"dx":0.0183,"nx":112,"ny":82,"refTime":"2026-03-12T00:00:00:Z","depth":0,"parameterNumber":3,"parameterNumberName":"V-component_of_WINDS"},"data":[0.0,0.0,0.0,0.0,0.0,0.0,0.0,0.0,0.0,0.0,0.0,0.0,0.0,0.0,0.0,0.0,0.0,0.0,0.0,0.0,0.0,0.0,0.0,0.0,0.0,0.0,0.0,0.0,0.0,0.0,0.0,0.0,0.0,0.0,0.0,0.0,0.0,0.0,0.0,0.0,0.0,0.0,0.0,0.0,0.0,0.0,0.0,0.0,0.0,0.0,0.0,0.0,0.0,0.0,0.0,0.0,0.0,0.0,0.0,0.0,0.0,0.0,0.0,0.0,0.0,0.0,0.0,0.0,0.0,0.0,0.0,0.0,0.0,0.0,0.0,0.0,0.0,0.0,0.0,0.0,0.0,0.0,0.0,0.0,0.0,0.0,0.0,0.0,0.0,0.0,0.1045,0.0097,-0.1221,-0.2286,-0.2899,-0.3607,-0.383,-0.3449,0.0,0.0,0.0,0.0,0.0,0.0,0.0,0.0,0.0,0.0,0.0,0.0,0.0,0.0,0.0,0.0,0.0,0.0,0.0,0.0,0.0,0.0,0.0,0.0,0.0,0.0,0.0,0.0,0.0,0.0,0.0,0.0,0.0,0.0,0.0,0.0,0.0,0.0,0.0,0.0,0.0,0.0,0.0,0.0,0.0,0.0,0.0,0.0,0.0,0.0,0.0,0.0,0.0,0.0,0.0,0.0,0.0,0.0,0.0,0.0,0.0,0.0,0.0,0.0,0.0,0.0,0.0,0.0,0.0,0.0,0.0,0.0,0.0,0.0,0.0,0.0,0.0,0.0,0.0,0.0,0.0,0.0,0.0,0.0,0.0,0.0,0.0,0.0,0.0,0.0,0.0,0.0,0.0,0.0,0.0,0.0,0.0,0.0,0.0,0.0,0.0,0.0,0.0,0.0,0.0434,0.0054,-0.0748,-0.1312,-0.1424,-0.2447,-0.2961,-0.2677,0.0,0.0,0.0,0.0,0.0,0.0,0.0,0.0,0.0,0.0,0.0,0.0,0.0,0.0,0.0,0.0,0.0,0.0,0.0,0.0,0.0,0.0,0.0,0.0,0.0,0.0,0.0,0.0,0.0,0.0,0.0,0.0,0.0,0.0,0.0,0.0,0.0,0.0,0.0,0.0,0.0,0.0,0.0,0.0,0.0,0.0,0.0,0.0,0.0,0.0,0.0,0.0,0.0,0.0,0.0,0.0,0.0,0.0,0.0,0.0,0.0,0.0,0.0,0.0,0.0,0.0,0.0,0.0,0.0,0.0,0.0,0.0,0.0,0.0,0.0,0.0,0.0,0.0,0.0,0.0,0.0,0.0,0.0,0.0,0.0,0.0,0.0,0.0,0.0,0.0,0.0,0.0,0.0,0.0,0.0,0.0,0.0,0.0,0.0,0.0,0.0,0.0,0.0,0.0684,0.0144,0.0,-0.0671,-0.109,-0.109,-0.1913,-0.2432,-0.2496,-0.2367,0.0,0.0,0.0,0.0,0.0,0.0,0.0,0.0,0.0,0.0,0.0,0.0,0.0,0.0,0.0,0.0,0.0,0.0,0.0,0.0,0.0,0.0,0.0,0.0,0.0,0.0,0.0,0.0,0.0,0.0,0.0,0.0,0.0,0.0,0.0,0.0,0.0,0.0,0.0,0.0,0.0,0.0,0.0,0.0,0.0,0.0,0.0,0.0,0.0,0.0,0.0,0.0,0.0,0.0,0.0,0.0,0.0,0.0,0.0,0.0,0.0,0.0,0.0,0.0,0.0,0.0,0.0,0.0,0.0,0.0,0.0,0.0,0.0,0.0,0.0,0.0,0.0,0.0,0.0,0.0,0.0,0.0,0.0,0.0,0.0,0.0,0.0,0.0,0.0,0.0,0.0,0.0,0.0,0.0,0.0,0.0,0.0,0.0,0.0,0.0,0.0,0.0,0.0753,0.0151,0.0028,-0.0504,-0.0838,-0.0838,-0.1395,-0.1838,-0.2064,-0.1896,0.0,0.0,0.0,0.0,0.0,0.0,0.0,0.0,0.0,0.0,0.0,0.0,0.0,0.0,0.0,0.0,0.0,0.0,0.0,0.0,0.0,0.0,0.0,0.0,0.0,0.0,0.0,0.0,0.0,0.0,0.0,0.0,0.0,0.0,0.0,0.0,0.0,0.0,0.0,0.0,0.0,0.0,0.0,0.0,0.0,0.0,0.0,0.0,0.0,0.0,0.0,0.0,0.0,0.0,0.0,0.0,0.0,0.0,0.0,0.0,0.0,0.0,0.0,0.0,0.0,0.0,0.0,0.0,0.0,0.0,0.0,0.0,0.0,0.0,0.0,0.0,0.0,0.0,0.0,0.0,0.0,0.0,0.0,0.0,0.0,0.0,0.0,0.0,0.0,0.0,0.0,0.0,0.0,0.0,0.0,0.0,0.0,0.0,0.0,0.0,0.0,0.0,0.0818,0.0621,0.0056,-0.0056,-0.0084,-0.0084,-0.0641,-0.0945,-0.0827,-0.1442,0.0,0.0,0.0,0.0,0.0,0.0,0.0,0.0,0.0,0.0,0.0,0.0,0.0,0.0,0.0,0.0,0.0,0.0,0.0,0.0,0.0,0.0,0.0,0.0,0.0,0.0,0.0,0.0,0.0,0.0,0.0,0.0,0.0,0.0,0.0,0.0,0.0,0.0,0.0,0.0,0.0,0.0,0.0,0.0,0.0,0.0,0.0,0.0,0.0,0.0,0.0,0.0,0.0,0.0,0.0,0.0,0.0,0.0,0.0,0.0,0.0,0.0,0.0,0.0,0.0,0.0,0.0,0.0,0.0,0.0,0.0,0.0,0.0,0.0,0.0,0.0,0.0,0.0,0.0,0.0,0.0,0.0,0.0,0.0,0.0,0.0,0.0,0.0,0.0,0.0,0.0,0.0,0.0,0.0,0.0,0.0,0.0,0.0,0.0,0.0,0.0,0.0,0.0964,0.0657,0.0056,0.0,0.0,0.0,-0.0198,-0.0451,-0.0683,0.0,0.0,0.0,0.0,0.0,0.0,0.0,0.0,0.0,0.0,0.0,0.0,0.0,0.0,0.0,0.0,0.0,0.0,0.0,0.0,0.0,0.0,0.0,0.0,0.0,0.0,0.0,0.0,0.0,0.0,0.0,0.0,0.0,0.0,0.0,0.0,0.0,0.0,0.0,0.0,0.0,0.0,0.0,0.0,0.0,0.0,0.0,0.0,0.0,0.0,0.0,0.0,0.0,0.0,0.0,0.0,0.0,0.0,0.0,0.0,0.0,0.0,0.0,0.0,0.0,0.0,0.0,0.0,0.0,0.0,0.0,0.0,0.0,0.0,0.0,0.0,0.0,0.0,0.0,0.0,0.0,0.0,0.0,0.0,0.0,0.0,0.0,0.0,0.0,0.0,0.0,0.0,0.0,0.0,0.0,0.0,0.0,0.0,0.0,0.0,0.0,0.0,0.1574,0.1523,0.1203,0.0383,0.0331,0.0246,0.0027,0.0,-0.013,-0.0453,0.0,0.0,0.0,0.0,0.0,0.0,0.0,0.0,0.0,0.0,0.0,0.0,0.0,0.0,0.0,0.0,0.0,0.0,0.0,0.0,0.0,0.0,0.0,0.0,0.0,0.0,0.0,0.0,0.0,0.0,0.0,0.0,0.0,0.0,0.0,0.0,0.0,0.0,0.0,0.0,0.0,0.0,0.0,0.0,0.0,0.0,0.0,0.0,0.0,0.0,0.0,0.0,0.0,0.0,0.0,0.0,0.0,0.0,0.0,0.0,0.0,0.0,0.0,0.0,0.0,0.0,0.0,0.0,0.0,0.0,0.0,0.0,0.0,0.0,0.0,0.0,0.0,0.0,0.0,0.0,0.0,0.0,0.0,0.0,0.0,0.0,0.0,0.0,0.0,0.0,0.0,0.0,0.0,0.0,0.0,0.0,0.0,0.0,0.0,0.0,0.0,0.0,0.2061,0.2529,0.2395,0.106,0.1035,0.0822,0.008,0.0022,0.002,0.0,0.0,0.0,0.0,0.0,0.0,0.0,0.0,0.0,0.0,0.0,0.0,0.0,0.0,0.0,0.0,0.0,0.0,0.0,0.0,0.0,0.0,0.0,0.0,0.0,0.0,0.0,0.0,0.0,0.0,0.0,0.0,0.0,0.0,0.0,0.0,0.0,0.0,0.0,0.0,0.0,0.0,0.0,0.0,0.0,0.0,0.0,0.0,0.0,0.0,0.0,0.0,0.0,0.0,0.0,0.0,0.0,0.0,0.0,0.0,0.0,0.0,0.0,0.0,0.0,0.0,0.0,0.0,0.0,0.0,0.0,0.0,0.0,0.0,0.0,0.0,0.0,0.0,0.0,0.0,0.0,0.0,0.0,0.0,0.0,0.0,0.0,0.0,0.0,0.0,0.0,0.0,0.0,0.0,0.0,0.0,0.0,0.0,0.0,0.0,0.0,0.0,0.0,0.2061,0.2441,0.2447,0.1629,0.156,0.1341,0.0691,0.0929,0.0809,0.0053,0.0,0.0,0.0,0.0,0.0,0.0,0.0,0.0,0.0,0.0,0.0,0.0,0.0,0.0,0.0,0.0,0.0,0.0,0.0,0.0,0.0,0.0,0.0,0.0,0.0,0.0,0.0,0.0,0.0,0.0,0.0,0.0,0.0,0.0,0.0,0.0,0.0,0.0,0.0,0.0,0.0,0.0,0.0,0.0,0.0,0.0,0.0,0.0,0.0,0.0,0.0,0.0,0.0,0.0,0.0,0.0,0.0,0.0,0.0,0.0,0.0,0.0,0.0,0.0,0.0,0.0,0.0,0.0,0.0,0.0,0.0,0.0,0.0,0.0,0.0,0.0,0.0,0.0,0.0,0.0,0.0,0.0,0.0,0.0,0.0,0.0,0.0,0.0,0.0,0.0,0.0,0.0,0.0,0.0,0.0,0.0,0.0,0.0,0.0,0.0,0.0,0.0,0.233,0.2734,0.2822,0.2224,0.2209,0.1972,0.1309,0.1476,0.1298,0.0558,0.0,0.0,0.0,0.0,0.0,0.0,0.0,0.0,0.0,0.0,0.0,0.0,0.0,0.0,0.0,0.0,0.0,0.0,0.0,0.0,0.0,0.0,0.0,0.0,0.0,0.0,0.0,0.0,0.0,0.0,0.0,0.0,0.0,0.0,0.0,0.0,0.0,0.0,0.0,0.0,0.0,0.0,0.0,0.0,0.0,0.0,0.0,0.0,0.0,0.0,0.0,0.0,0.0,0.0,0.0,0.0,0.0,0.0,0.0,0.0,0.0,0.0,0.0,0.0,0.0,0.0,0.0,0.0,0.0,0.0,0.0,0.0,0.0,0.0,0.0,0.0,0.0,0.0,0.0,0.0,0.0,0.0,0.0,0.0,0.0,0.0,0.0,0.0,0.0,0.0,0.0,0.0,0.0,0.0,0.0,0.0,0.0,0.0,0.0,0.0,0.0,0.0,0.2712,0.3215,0.3363,0.284,0.29,0.2661,0.1924,0.179,0.161,0.1305,0.0,0.0,0.0,0.0,0.0,0.0,0.0,0.0,0.0,0.0,0.0,0.0,0.0,0.0,0.0,0.0,0.0,0.0,0.0,0.0,0.0,0.0,0.0,0.0,0.0,0.0,0.0,0.0,0.0,0.0,0.0,0.0,0.0,0.0,0.0,0.0,0.0,0.0,0.0,0.0,0.0,0.0,0.0,0.0,0.0,0.0,0.0,0.0,0.0,0.0,0.0,0.0,0.0,0.0,0.0,0.0,0.0,0.0,0.0,0.0,0.4095,0.3208,0.0,0.0,0.0,0.0,0.0,0.0,0.0,0.0,0.0,0.0,0.0,0.0,0.0,0.0,0.0,0.0,0.0,0.0,0.0,0.0,0.0,0.0,0.0,0.0,0.0,0.0,0.0,0.0,0.0,0.0,0.0,0.0,0.0,0.0,0.0,0.0,0.0,0.0,0.0,0.0,0.2712,0.3081,0.337,0.3404,0.3443,0.3151,0.2421,0.2619,0.232,0.1205,0.1461,0.0,0.0,0.0,0.0,0.0,0.0,0.0,0.0,0.0,0.0,0.0,0.0,0.0,0.0,0.0,0.0,0.0,0.0,0.0,0.0,0.0,0.0,0.0,0.0,0.0,0.0,0.0,0.0,0.0,0.0,0.0,0.0,0.0,0.0,0.0,0.0,0.0,0.0,0.0,0.0,0.0,0.0,0.0,0.0,0.0,0.0,0.0,0.0,0.0,0.0,0.0,0.0,0.0,0.0,0.0,0.0,0.0,0.0,0.0,0.5714,0.4762,0.0,0.0,0.0,0.0,0.0,0.0,0.0,0.0,0.0,0.0,0.0,0.0,0.0,0.0,0.0,0.0,0.0,0.0,0.0,0.0,0.0,0.0,0.0,0.0,0.0,0.0,0.0,0.0,0.0,0.0,0.0,0.0,0.0,0.0,0.0,0.0,0.0,0.0,0.0,0.0,0.3108,0.3464,0.3719,0.3695,0.3693,0.3451,0.284,0.293,0.2758,0.2188,0.2059,0.0,0.0,0.0,0.0,0.0,0.0,0.0,0.0,0.0,0.0,0.0,0.0,0.0,0.0,0.0,0.0,0.0,0.0,0.0,0.0,0.0,0.0,0.0,0.0,0.0,0.0,0.0,0.0,0.0,0.0,0.0,0.0,0.0,0.0,0.0,0.0,0.0,0.0,0.0,0.0,0.0,0.0,0.0,0.0,0.0,0.0,0.0,0.0,0.0,0.0,0.0,0.0,0.0,0.8982,0.9263,0.9535,0.9245,0.9272,0.9443,0.772,0.6852,0.6593,0.5628,0.0,0.0,0.0,0.0,0.0,0.0,0.0,0.0,0.0,0.0,0.0,0.0,0.0,0.0,0.0,0.0,0.0,0.0,0.0,0.0,0.0,0.0,0.5668,0.5392,0.5707,0.5728,0.451,0.0,0.0,0.0,0.0,0.0,0.0,0.0,0.0,0.0,0.0,0.0,0.3605,0.3938,0.4129,0.3929,0.3898,0.3747,0.3331,0.3191,0.3209,0.3374,0.282,0.2538,0.0,0.0,0.0,0.0,0.0,0.0,0.0,0.0,0.0,0.0,0.0,0.0,0.0,0.0,0.0,0.0,0.0,0.0,0.0,0.0,0.0,0.0,0.0,0.0,0.0,0.0,0.0,0.0,0.0,0.0,0.0,0.0,0.7203,0.7271,0.0,0.0,0.0,0.0,0.0,0.0,0.0,0.0,0.0,0.0,0.0,0.0,0.0,1.0312,1.0715,1.1153,1.136,1.1291,1.123,1.1231,1.1279,1.1221,1.1231,1.1269,1.0985,0.0,0.806,0.729,0.0,0.0,0.0,0.0,0.0,0.0,0.0,0.0,0.0,0.0,0.0,0.0,0.0,0.0,0.0,0.0,0.0,0.0,0.0,0.0,0.0,0.0,0.7463,0.7405,0.7471,0.7461,0.7278,0.5888,0.4718,0.4787,0.4362,0.3985,0.0,0.0,0.0,0.0,0.0,0.0,0.3908,0.4088,0.4232,0.4319,0.4323,0.4248,0.4065,0.404,0.395,0.3751,0.364,0.3422,0.3046,0.2964,0.0,0.0,0.0,0.0,0.0,0.0,0.0,0.0,0.0,0.0,0.0,0.0,0.0,0.0,0.0,0.0,0.0,0.0,0.0,0.0,0.0,0.0,0.0,0.0,0.0,0.0,0.0,0.0,0.0,0.7691,0.8457,0.8756,0.9025,0.8823,0.0,0.0,0.0,0.0,0.0,0.0,0.0,0.0,0.0,1.1457,1.1751,1.2072,1.2484,1.2923,1.3134,1.3081,1.3259,1.335,1.335,1.335,1.3148,1.282,1.2564,1.1713,1.0452,0.9165,0.8298,0.7696,0.0,0.0,0.0,0.0,0.6737,0.6978,0.7799,0.7763,0.7415,0.775,0.0,0.0,0.0,0.0,0.0,0.0,0.0,0.7039,0.7039,0.7535,0.802,0.802,0.8169,0.8404,0.873,0.7713,0.6558,0.605,0.5477,0.4914,0.4422,0.4525,0.0,0.0,0.0,0.4609,0.4463,0.4672,0.4739,0.4538,0.4514,0.4391,0.4106,0.408,0.4131,0.4243,0.3968,0.3813,0.3834,0.3363,0.2974,0.0,0.0,0.0,0.0,0.0,0.0,0.0,0.0,0.0,0.0,0.0,0.0,0.0,0.0,0.0,0.0,0.0,0.0,0.0,0.0,0.0,0.0,0.0,0.0,0.0,0.0,0.0,0.0,0.8921,0.9815,1.0206,1.0636,1.055,0.0,0.0,0.0,0.0,0.0,0.0,1.1395,1.2089,1.2735,1.3321,1.3462,1.3694,1.3991,1.4322,1.4467,1.4501,1.462,1.4698,1.4698,1.4698,1.4468,1.4005,1.3652,1.3242,1.269,1.0916,0.9789,0.913,0.8476,0.8037,0.7812,0.8101,0.8234,0.8364,0.9198,0.9253,0.8977,0.9152,0.8837,0.8334,0.8058,0.0,0.0,0.0,0.0,0.81,0.81,0.8504,0.8924,0.8924,0.9205,0.9625,1.0065,0.9487,0.8575,0.7514,0.6658,0.5903,0.5253,0.5395,0.0,0.4652,0.5136,0.549,0.5268,0.5452,0.5468,0.5124,0.5084,0.4973,0.467,0.4632,0.472,0.4918,0.455,0.439,0.4495,0.3872,0.3503,0.3408,0.0,0.0,0.0,0.0,0.0,0.0,0.0,0.0,0.0,0.0,0.0,0.0,0.0,0.0,0.0,0.0,0.0,0.0,0.0,0.0,0.0,0.0,0.0,0.0,0.0,0.0,0.0,0.0,0.0,1.1507,1.2902,0.0,0.0,0.0,0.0,1.1399,1.1774,1.2423,1.3319,1.3391,1.3851,1.4776,1.5289,1.5557,1.5582,1.554,1.553,1.553,1.496,1.4698,1.4698,1.4698,1.4675,1.4652,1.463,1.4596,1.4404,1.2357,1.123,1.079,1.075,1.0488,1.0186,1.0565,1.0765,1.0807,1.0804,1.0871,1.0952,1.0901,1.0471,1.0092,1.0693,1.0132,0.0,0.0,1.0288,1.0239,1.0239,1.0547,1.0864,1.0864,1.126,1.1653,1.1685,1.1206,1.0421,0.9213,0.7721,0.6644,0.6608,0.0,0.5681,0.5962,0.6046,0.6146,0.6384,0.6434,0.6427,0.6412,0.6404,0.6388,0.6373,0.6373,0.622,0.586,0.5806,0.5492,0.4809,0.4737,0.4561,0.4242,0.4228,0.0,0.0,0.0,0.0,0.0,0.0,0.0,0.0,0.0,0.0,0.0,0.0,0.0,0.0,0.0,0.0,0.0,0.0,0.0,0.0,0.0,0.0,0.0,0.0,0.0,0.0,0.0,0.0,1.3639,1.4261,0.0,1.3171,1.3709,1.3853,1.3219,1.3956,1.4565,1.4901,1.5248,1.5575,1.5919,1.612,1.6199,1.6199,1.6182,1.6194,1.6173,1.5964,1.5854,1.5854,1.5854,1.5644,1.5276,1.5276,1.505,1.4653,1.389,1.3345,1.2936,1.2623,1.2427,1.2317,1.2459,1.2518,1.2538,1.2521,1.2538,1.2532,1.2155,1.1886,1.1684,1.1586,1.1276,1.1001,1.1272,1.1329,1.13,1.13,1.1403,1.1505,1.1505,1.1664,1.1884,1.2192,1.1843,1.1439,1.1299,0.9789,0.8385,0.7992,0.7777,0.7467,0.6898,0.7168,0.74,0.724,0.6984,0.6821,0.6821,0.6637,0.6503,0.6503,0.6259,0.6049,0.5912,0.5616,0.5256,0.4814,0.4922,0.4857,0.4559,0.4894,0.4883,0.0,0.0,0.0,0.0,0.0,0.0,0.0,0.0,0.0,0.0,0.0,0.0,0.0,0.0,0.0,0.0,0.0,0.0,0.0,0.0,0.0,0.0,0.0,0.0,0.0,1.3086,1.4121,1.505,1.5329,1.5236,1.4689,1.5123,1.5299,1.4934,1.5567,1.5969,1.5969,1.63,1.65,1.65,1.65,1.65,1.65,1.65,1.65,1.65,1.65,1.65,1.65,1.65,1.6281,1.5908,1.5908,1.5688,1.531,1.531,1.5145,1.4828,1.4127,1.3841,1.3841,1.3841,1.3845,1.3893,1.3892,1.3781,1.3579,1.3224,1.311,1.3005,1.2446,1.2264,1.2264,1.2264,1.2156,1.2029,1.2029,1.2029,1.2029,1.2029,1.2156,1.2354,1.2668,1.249,1.2354,1.2685,1.1132,0.9638,0.9233,0.8959,0.8557,0.7848,0.8124,0.8301,0.8037,0.7775,0.7603,0.7603,0.7405,0.7268,0.7268,0.6864,0.6538,0.6387,0.5907,0.5496,0.5185,0.5298,0.529,0.5107,0.545,0.5445,0.5069,0.0,0.0,0.0,0.0,0.0,0.0,0.0,0.0,0.0,0.0,0.0,0.0,0.0,0.0,0.0,0.0,0.0,0.0,0.0,0.0,0.0,0.0,0.0,1.3293,1.4257,1.5178,1.5692,1.6211,1.6308,1.5768,1.6208,1.65,1.65,1.65,1.65,1.65,1.65,1.65,1.65,1.65,1.65,1.65,1.65,1.65,1.65,1.65,1.65,1.65,1.65,1.65,1.65,1.65,1.65,1.65,1.65,1.65,1.638,1.5197,1.4755,1.4755,1.4755,1.4808,1.4866,1.4926,1.4617,1.4161,1.415,1.4141,1.4009,1.3403,1.321,1.3198,1.3198,1.2873,1.2526,1.2526,1.2526,1.2526,1.2544,1.2878,1.3232,1.325,1.325,1.325,1.325,1.1714,1.0398,1.0366,0.9555,0.8889,0.8889,0.8878,0.0,0.8853,0.8841,0.8816,0.8816,0.8803,0.8803,0.8803,0.8316,0.7803,0.7348,0.6814,0.6326,0.5922,0.5909,0.5927,0.5936,0.5936,0.5855,0.5659,0.0,0.0,0.0,0.0,0.0,0.0,0.0,0.0,0.0,0.0,0.0,0.0,0.0,0.0,0.0,0.0,0.0,0.0,0.0,0.0,0.0,1.4216,1.5152,1.5548,1.6204,1.6696,1.6844,1.6984,1.6878,1.6329,1.64,1.65,1.65,1.65,1.65,1.65,1.65,1.65,1.65,1.65,1.65,1.65,1.65,1.65,1.65,1.65,1.65,1.65,1.65,1.65,1.65,1.65,1.65,1.65,1.65,1.65,1.6466,1.6129,1.5998,1.5998,1.5998,1.6022,1.6037,1.6057,1.5973,1.579,1.5397,1.4997,1.4576,1.4022,1.3546,1.3198,1.3198,1.3112,1.3012,1.3012,1.3012,1.3087,1.3421,1.3619,1.3785,1.4068,1.4133,1.4133,1.4133,1.3391,1.2553,1.193,1.1271,1.0834,1.0834,1.0463,1.018,1.018,0.9622,0.9235,0.9235,0.8981,0.8803,0.8803,0.8394,0.7985,0.761,0.6996,0.6485,0.6135,0.6298,0.6536,0.6834,0.6842,0.6884,0.0,0.0,0.0,0.0,0.0,0.0,0.0,0.0,0.0,0.0,0.0,0.0,0.0,0.0,0.0,0.0,0.0,0.0,0.0,0.0,0.0,0.0,1.6081,1.6966,1.772,1.7716,1.7628,1.7646,1.7646,1.7435,1.69,1.7034,1.7167,1.7167,1.7167,1.7076,1.6858,1.6837,1.6731,1.6522,1.671,1.6731,1.65,1.6951,1.693,1.65,1.6731,1.671,1.65,1.65,1.65,1.6522,1.6731,1.6837,1.6858,1.7076,1.7034,1.6816,0.0,0.0,0.0,0.0,1.6637,1.6837,1.6837,1.6972,1.7076,1.654,1.5997,1.5466,1.4869,1.4276,1.3822,1.3764,1.3735,1.3735,1.3735,1.3735,1.3802,1.4084,1.4149,1.4214,1.4454,1.4501,1.4418,1.4139,1.4061,0.0,1.3003,1.2234,1.1806,1.2058,1.1583,1.1202,1.1202,1.0768,1.0341,1.0059,0.9829,0.9675,0.9675,0.9231,0.0,0.0,0.0,0.7541,0.7051,0.7188,0.0,0.0,0.0,0.0,0.0,0.0,0.0,0.0,0.7334,0.7716,0.0,0.0,0.0,0.0,0.0,0.0,0.0,0.0,0.0,0.0,0.0,0.0,0.0,0.0,0.0,0.0,1.7862,1.853,1.9564,1.8874,1.8263,1.8204,1.8204,1.7987,1.7442,1.7827,1.8106,1.8106,1.8106,1.7887,1.7435,1.7394,0.0,0.0,0.0,1.7146,1.6701,1.7626,1.7626,1.6701,1.7146,1.7126,1.668,1.668,1.668,1.671,1.7167,1.7394,1.7422,1.7907,1.7827,1.7353,1.6795,1.6595,1.6595,1.6659,1.6972,1.7394,1.7394,0.0,0.0,1.7528,1.7036,1.6487,1.5871,1.5329,1.4856,1.4664,1.4614,1.46,1.4515,1.4501,1.4517,1.4564,1.4564,1.458,1.4643,1.4643,1.4446,1.3774,1.4224,1.4495,1.3819,1.2858,1.2371,1.29,1.2482,1.2078,1.1995,1.194,1.1635,1.0966,1.0897,0.0,1.0897,1.0439,1.0121,1.0084,0.961,0.9062,0.8463,0.8435,0.8166,0.7594,0.7757,0.7953,0.8152,0.8984,0.9529,0.9794,0.932,0.9553,0.0,0.0,0.0,0.0,0.0,0.0,0.0,0.0,0.0,0.0,0.0,0.0,0.0,0.0,0.0,1.8206,1.8607,1.8968,1.9606,1.953,1.9225,1.8798,1.8746,1.8535,1.8007,1.8046,1.8106,1.8106,1.8106,1.8046,1.7947,1.7947,1.7907,1.7787,1.7887,1.7907,1.7787,1.8007,1.8007,1.7787,1.7907,0.0,1.7787,1.7787,1.7787,1.7807,1.7907,1.7947,1.7947,1.8066,1.8046,1.7887,1.7353,1.7146,1.7188,1.7626,1.7867,1.7947,1.7947,1.8007,1.8078,1.7987,1.7576,1.7115,1.6992,1.6589,0.0,1.5466,1.5316,1.5175,1.4641,1.4501,1.458,1.4907,1.4968,1.5089,1.5463,1.5551,1.5359,1.4681,1.5304,1.5739,1.507,1.4429,1.4048,1.4159,1.3705,1.3164,1.2609,1.2164,1.1635,1.0966,1.0897,1.0897,1.0897,1.0999,1.0904,1.0588,1.0255,1.0024,0.9909,0.9893,0.9912,0.9947,0.9978,1.0102,1.0307,1.0474,1.0982,1.1733,1.0742,1.0453,0.0,0.0,0.0,0.0,0.0,0.0,0.0,0.0,0.0,0.0,0.0,1.6159,1.7458,0.0,1.8113,1.9056,1.9253,1.9387,1.9657,1.9708,1.9497,1.8968,1.9151,1.9095,1.8554,1.8727,1.8893,1.8893,1.8893,1.8779,1.8516,1.8496,1.838,1.8125,1.8361,1.838,1.8106,1.8631,1.8631,1.8106,1.838,1.8361,1.8106,1.8106,1.8106,1.8125,1.838,1.8496,1.8496,1.8496,1.8496,1.8477,1.8224,1.7947,1.7727,1.8007,1.8283,1.8496,1.8496,1.8669,1.8893,1.8893,1.8545,1.8101,1.8025,1.7387,1.6621,1.6211,1.5872,1.5569,1.5236,1.5149,1.524,1.5609,1.5695,1.581,1.6203,1.6301,1.6097,1.5425,1.5978,1.6334,1.5662,1.5601,1.5651,1.5651,1.5138,1.4504,1.378,1.347,1.2896,1.1861,1.1745,1.1745,1.1745,1.1879,1.1862,1.1662,1.1523,1.1307,1.0965,1.0949,1.0881,1.0743,1.0856,1.0978,1.1148,1.162,1.2085,1.2557,1.2344,1.2262,0.0,0.0,0.0,0.0,0.0,0.0,0.0,1.5675,1.5635,1.7566,1.7593,1.7608,1.8702,1.8897,1.9076,1.9618,1.9708,1.9708,1.9708,1.9708,1.9548,1.9114,1.9442,1.953,1.9114,1.9442,1.9708,1.9708,1.9708,1.9512,1.908,1.9062,1.8855,1.8419,1.8836,1.8855,1.8419,1.9262,1.9262,1.8419,1.8855,1.8836,1.8419,1.8419,1.8419,1.8438,1.8874,1.9062,1.9062,1.9062,1.9062,1.9062,1.9062,1.8798,1.8419,1.8419,1.8669,1.9062,1.9062,1.935,1.9708,1.9708,1.9406,1.903,1.8924,1.8217,1.7359,1.7004,1.6548,1.6128,1.5945,1.5898,1.5983,1.6328,1.6394,1.6461,1.6738,1.6802,1.6591,1.5931,1.639,1.6676,1.6011,1.6508,1.6955,1.6815,1.6344,1.5727,1.5014,1.4783,1.4223,1.2947,1.2691,1.2639,1.2734,1.2743,1.2774,1.2849,1.2858,1.2614,1.2074,1.2041,1.1875,1.1482,1.1634,1.1777,1.1897,1.2637,1.3032,1.3071,1.3708,1.3881,1.865,1.7935,1.7609,1.8092,1.7617,1.7694,0.0,1.9342,1.833,1.9695,1.9647,1.9405,1.9573,1.9588,1.9618,1.9693,1.9708,1.9708,1.9708,1.9708,1.969,1.9621,1.9657,1.969,1.9621,1.9657,1.9708,1.9708,1.9708,1.9672,1.9603,1.9603,1.9584,1.953,1.9584,1.9584,1.953,1.9639,1.9639,1.953,1.9584,1.9584,1.953,1.953,1.953,1.953,1.9584,1.9603,1.9603,1.9603,1.9603,1.9603,1.9603,1.9566,1.953,1.953,1.9566,1.9603,1.9603,1.9639,1.9708,1.9708,1.9657,1.9606,1.96,1.9474,1.914,1.7936,1.7549,1.7299,1.6457,1.6246,1.6328,1.6659,1.6738,1.6751,1.6789,1.6802,1.6591,1.5931,1.6584,1.703,1.6363,1.7053,1.7496,1.6892,1.6738,1.6444,1.5755,1.511,1.441,1.3657,1.2995,1.2764,1.3193,1.321,1.3361,1.3736,1.3741,1.3713,1.365,1.3633,1.3612,1.3577,1.3592,1.3613,1.3609,1.3729,1.3843,1.396,1.4211,1.4179,2.0327,1.9672,1.914,1.9456,1.9592,1.992,2.1094,2.028,1.9562,2.0509,2.0174,1.9708,1.9708,1.9708,1.9708,1.9708,1.9708,1.9708,1.9708,1.9708,1.9708,1.9708,1.9708,1.9708,1.9708,1.9708,1.9708,1.9708,1.9708,1.9708,1.9708,1.9708,1.9708,1.9708,1.9708,1.9708,1.9708,1.9708,1.9708,1.9708,1.9708,1.9708,1.9708,1.9708,1.9708,1.9711,1.9962,1.9927,1.9711,1.9947,1.9909,1.9708,1.9708,1.9839,2.0052,2.0052,2.0052,2.0087,2.0347,2.0464,2.0464,2.0464,2.0464,2.0464,2.0464,2.0168,1.9669,1.8687,1.8126,1.7625,1.6806,1.6594,1.6686,1.7002,1.7089,1.7138,1.7337,1.7372,1.7302,1.7022,1.7297,1.7552,1.743,1.7759,1.7997,1.787,1.7573,1.7131,1.642,1.6189,1.5697,1.4631,1.4247,1.3945,1.3665,1.3638,1.3714,1.3899,1.3906,1.3906,1.3906,1.3964,1.4071,1.4191,1.4265,1.4353,1.448,1.448,1.4513,1.4576,1.4651,1.4616,2.119,2.0771,2.0335,2.0335,2.0923,2.1512,2.1512,2.0914,2.0492,2.0911,2.0381,1.9821,1.9711,1.9708,1.9708,1.9708,1.9708,1.9708,1.9708,1.9708,1.9708,1.9708,1.9708,1.9708,1.9708,1.9708,1.9708,1.9708,1.9708,1.9708,1.9708,1.9708,1.9708,1.9708,1.9708,1.9708,1.9708,1.9708,1.9708,1.9708,1.9708,1.9708,1.9693,1.9803,1.9945,2.0085,2.0381,2.033,2.0085,2.0365,2.0313,2.0067,2.0067,2.0243,2.0516,2.0617,2.06,2.0533,2.0878,2.0991,2.0991,2.0991,2.0991,2.0991,2.0991,2.0654,2.0125,1.9404,1.8714,1.8035,1.7397,1.7087,1.7014,1.7356,1.7444,1.7521,1.785,1.7905,1.7927,1.8014,1.8025,1.8072,1.828,1.831,1.8381,1.8566,1.827,1.783,1.7285,1.7215,1.6765,1.5589,1.5462,1.515,1.4389,1.4317,1.4249,1.4076,1.4076,1.4085,1.412,1.421,1.4353,1.4534,1.4632,1.4757,1.4904,1.4904,1.4921,1.4932,1.5178,1.5312,2.119,2.1173,2.1156,2.1156,2.1718,2.2262,2.2262,2.1895,2.1428,2.1071,2.0616,2.0158,1.9764,1.9708,1.9708,1.9708,1.9708,1.9708,1.9708,1.9708,1.9708,1.9708,1.9708,1.9708,1.9708,1.9708,1.9708,1.9708,1.9708,1.9708,1.9708,1.9708,1.9708,1.9708,1.9708,1.9708,1.9708,1.9708,1.9708,1.9708,1.9708,1.9708,1.9711,2.0106,2.0533,2.0959,2.0959,2.0959,2.0959,2.0975,2.0959,2.0959,2.0959,2.0959,2.1039,2.1414,2.1322,2.0975,2.1007,2.0991,2.0991,2.0991,2.0991,2.0991,2.0991,2.0991,2.0831,2.0173,1.9436,1.8786,1.8441,1.7811,1.7368,1.7704,1.7789,1.785,1.8125,1.8187,1.8259,1.8528,1.8576,1.8576,1.8585,1.8585,1.8585,1.8595,1.8585,1.8576,1.8558,1.7932,1.7195,1.6446,1.6357,1.6082,1.5417,1.5359,1.5093,1.4525,1.4476,1.4532,1.4663,1.4673,1.4756,1.4872,1.4895,1.49,1.4904,1.4904,1.4921,1.5026,1.5865,1.6338,2.1651,2.1566,2.1309,2.1803,2.2124,2.2296,2.2296,2.1928,2.1552,2.143,2.0797,2.0263,2.0124,1.9874,1.9708,1.9708,1.9912,2.0089,2.0089,2.0364,2.0448,2.0139,2.0089,2.0,1.9744,1.9708,1.9708,1.9708,1.9708,1.9708,1.9708,1.9708,1.9708,1.9708,1.9708,1.9708,1.9708,1.9708,1.9708,1.9708,1.9965,2.0261,2.0581,2.0698,2.0845,2.1007,2.1275,2.1244,2.1007,2.1291,2.1244,2.0991,2.0991,2.115,2.1414,2.1552,2.172,2.1871,2.1871,2.1871,2.1871,2.1871,2.1871,2.1871,2.1871,2.1871,2.1705,2.1002,2.0619,2.028,1.9621,1.8921,1.8434,1.8722,1.8411,1.8135,1.841,1.8469,1.8489,1.8576,1.8595,1.8669,1.8825,1.887,1.8913,1.904,1.8789,1.8651,1.8834,1.8654,1.8246,1.7601,1.7533,1.726,1.6645,1.5974,1.5594,1.5557,1.4971,1.4692,1.4822,1.4888,1.4927,1.4977,1.5059,1.5106,1.5106,1.5687,1.5975,1.6025,1.6891,1.7338,2.1958,2.1752,2.1376,2.2124,2.2296,2.2296,2.2296,2.2077,2.1794,2.1643,2.0862,2.0284,2.0503,1.9689,1.9189,1.9816,1.9819,1.9865,2.0249,2.055,2.0715,2.0566,2.055,2.0448,2.0191,2.0,1.9856,1.9711,1.9708,1.9708,1.9708,1.9854,1.9839,1.9693,1.9839,1.9839,1.9708,1.9839,1.9997,2.0156,2.0431,2.0781,2.1213,2.1213,2.1307,2.1478,2.1735,2.1705,2.1493,2.1735,2.169,2.1462,2.1462,2.163,2.1838,2.1838,2.2032,2.2296,2.2296,2.2296,2.2296,2.2296,2.236,2.2436,2.2436,2.2531,2.2521,2.2048,2.1721,2.1393,2.0877,2.0211,1.9612,1.9516,1.9122,1.8773,1.875,1.8743,1.8753,1.8843,1.8842,1.8895,1.9076,1.9119,1.915,1.9274,1.9105,1.8989,1.9092,1.9166,1.906,1.8679,1.8682,1.8422,1.7765,1.7105,1.6685,1.6574,1.5998,1.5584,1.5418,1.5434,1.5348,1.5108,1.5193,1.5248,1.5234,1.6109,1.6544,1.6567,1.775,1.8312,2.2209,2.187,2.1478,2.2192,2.233,2.2296,2.2296,2.2296,2.2163,2.1685,2.0752,2.0204,2.0814,1.9198,1.8329,1.9967,1.9436,1.9165,2.0187,2.0382,2.0566,2.0975,2.1023,2.1007,2.0991,2.06,2.0176,1.98,1.9729,1.9729,1.9729,2.0106,2.0158,1.9782,2.0141,2.0158,1.9764,2.0141,2.0566,2.1023,2.1023,2.1244,2.1643,2.1643,2.1884,2.2296,2.2296,2.2296,2.2296,2.2296,2.2296,2.2296,2.2296,2.231,2.2307,2.2307,2.2321,2.2349,2.2349,2.2335,2.2307,2.2335,2.2514,2.2733,2.2733,2.296,2.32,2.32,2.2698,2.2171,2.2171,2.1619,2.0868,2.0055,1.9842,1.9669,1.9128,1.9027,1.9077,1.9259,1.9305,1.9312,1.9312,1.932,1.9327,1.9327,1.9499,1.9541,1.9335,1.9492,1.9603,1.9603,1.9719,1.95,1.8747,1.8628,1.828,1.753,1.744,1.7097,1.6418,1.6388,1.609,1.5459,1.5423,1.5429,1.5434,1.6315,1.6727,1.6767,1.8476,1.9275,2.3594,2.3408,2.2868,2.3071,2.2716,2.2296,2.2296,2.2296,2.2113,2.1443,2.0818,2.0252,1.9882,1.9279,1.8956,1.9409,2.0013,2.0509,2.0781,2.1385,2.1705,2.1476,2.1445,2.1322,2.1039,2.0894,2.078,2.0681,2.0347,2.0158,2.0158,2.0582,2.078,2.0665,2.0764,2.078,2.0665,2.0764,2.1039,2.1445,2.1445,2.1673,2.212,2.212,2.2194,2.2296,2.2296,2.2296,2.2296,2.2296,2.2296,2.2296,2.2296,2.2426,2.2599,2.2599,2.2768,2.2982,2.2982,2.2819,2.2639,2.2895,2.3026,2.3081,2.3081,2.3129,2.32,2.32,2.3059,2.2917,2.2917,2.2373,2.1676,2.1056,2.0504,1.9939,1.9354,1.9212,1.9246,1.9289,1.9409,1.952,1.952,1.9599,1.967,1.967,1.9726,1.9688,1.9548,1.9663,1.975,1.975,1.9786,1.9766,1.9649,1.9003,1.8592,1.86,1.7937,1.7507,1.7426,1.7469,1.7412,1.724,1.7242,1.7247,1.7236,1.8106,1.8548,1.8555,1.9662,2.0197,2.4271,2.4203,2.3814,2.3477,2.3088,2.2615,2.1955,2.182,2.16,2.0839,2.009,1.9511,1.9229,1.8721,1.8501,1.8952,1.9751,2.0464,2.0943,2.1584,2.1957,2.1913,2.1913,2.1825,2.1584,2.1385,2.126,2.126,2.0862,2.06,2.06,2.1023,2.1181,2.1023,2.1166,2.126,2.126,2.126,2.1477,2.1913,2.1913,2.2063,2.2296,2.2296,2.2296,2.2296,2.2296,2.2296,2.2296,2.2296,2.236,2.2477,2.2477,2.2652,2.2923,2.2923,2.3045,2.3212,2.3369,2.33,2.3141,2.3177,2.3311,2.3414,2.3414,2.3522,2.3649,2.3649,2.3649,2.3649,2.3649,2.3336,2.2855,2.2196,2.1734,2.1234,2.0558,2.0399,2.0412,2.0466,2.0355,2.0257,2.0257,2.0001,1.979,1.979,1.9852,1.9863,1.9792,1.9841,1.989,1.989,1.9962,2.0046,2.0139,1.9641,1.9419,1.9557,1.9093,1.869,1.8431,1.8445,1.8294,1.7919,1.79,1.7905,1.7954,1.8829,1.9245,1.9254,2.0131,2.0564,2.4762,2.4643,2.4355,2.3712,2.3393,2.2885,2.1512,2.1123,2.0788,1.9896,1.8964,1.8381,1.8559,1.7964,1.7743,1.8727,1.9246,1.9909,2.0927,2.143,2.1838,2.2237,2.2296,2.2296,2.2296,2.1928,2.1688,2.1688,2.1369,2.115,2.1071,2.1477,2.1538,2.1166,2.1522,2.1688,2.1688,2.1688,2.1899,2.2296,2.2296,2.2296,2.2296,2.2296,2.2296,2.2296,2.2296,2.2296,2.231,2.2335,2.2487,2.2708,2.2759,2.2972,2.3277,2.3277,2.3282,2.338,2.3671,2.3774,2.3714,2.3426,2.3533,2.3774,2.3774,2.3976,2.419,2.419,2.419,2.419,2.419,2.419,2.4006,2.3189,2.3015,2.2821,2.2011,2.1852,2.1898,2.2025,2.1644,2.1297,2.1297,2.059,2.0023,2.0023,2.0034,2.0041,2.0035,2.0045,2.0041,2.0035,2.0199,2.0296,2.0307,2.0305,2.0305,2.0305,2.039,2.0091,1.9395,1.938,1.9028,1.8271,1.8252,1.8296,1.8359,1.9102,1.9473,1.9472,2.0234,2.0585,2.615,2.5439,2.4457,2.4338,2.3393,2.226,2.1393,2.0686,0.0,1.8459,1.8024,1.7743,1.7185,1.7653,1.838,1.9178,1.988,2.0582,2.1393,2.1884,2.2209,2.2296,2.2296,2.2296,2.2296,2.2223,2.218,2.218,2.2106,2.1915,2.1522,2.1928,2.2152,2.2077,2.2135,2.218,2.218,2.218,2.2223,2.2296,2.2296,2.2296,2.2296,2.2296,2.2296,2.2296,2.2296,2.2296,2.2324,2.2537,2.266,2.2733,2.3009,2.3323,2.361,2.361,2.3795,2.4026,2.4094,2.4103,2.4103,2.4054,2.4074,2.4103,2.4103,2.4161,2.419,2.419,2.419,2.419,2.419,2.419,2.4006,2.3189,2.313,2.3021,2.2143,2.2098,2.2215,2.2236,2.2291,2.2337,2.2337,2.1708,2.1218,2.1218,2.0655,2.0258,2.026,2.0258,2.0258,2.0241,2.0279,2.0316,2.0374,2.039,2.0374,2.0374,2.0441,2.0422,2.0287,2.0325,2.0292,2.0136,2.0136,2.0136,2.0156,2.0293,2.035,2.0298,2.0455,2.0483,2.6488,2.5896,2.4983,2.4592,2.3678,2.2479,2.094,0.0,0.0,1.7523,1.6915,1.6424,1.5697,1.6747,1.7711,1.7694,1.8959,2.0186,2.0922,2.1432,2.187,2.2245,2.2296,2.2296,2.2296,2.2296,2.2296,2.2296,2.2296,2.2194,2.1988,2.218,2.2296,2.2296,2.2296,2.2296,2.2296,2.2296,2.2296,2.2296,2.2296,2.2296,2.231,2.2436,2.2514,2.2514,2.2682,2.276,2.2773,2.2915,2.3069,2.3242,2.3392,2.3671,2.3966,2.3966,2.4064,2.419,2.419,2.419,2.419,2.419,2.419,2.419,2.419,2.419,2.419,2.419,2.419,2.419,2.419,2.419,2.4136,2.3859,2.3942,2.3968,2.3551,2.3585,2.3714,2.3714,2.3526,2.3371,2.3371,2.2704,2.2021,2.1609,2.1215,2.0821,2.0415,2.0358,2.0349,2.0342,2.0347,2.0378,2.0406,2.0432,2.0444,2.0444,2.0513,2.0542,2.0542,2.0585,2.0585,2.0541,2.0585,2.0564,2.0506,2.0537,2.0512,2.0443,2.0443,2.0432,2.6065,2.5693,2.4983,2.4406,2.3712,2.2615,2.0475,1.9304,1.8262,1.6773,1.5876,1.5189,1.4605,1.5787,1.6769,1.6499,1.7918,1.9422,2.0505,2.0968,2.1478,2.2212,2.2296,2.2296,2.2296,2.2296,2.2296,2.2296,2.2296,2.2296,2.2296,2.2296,2.2296,2.2296,2.2296,2.2296,2.2296,2.2296,2.2296,2.2296,2.2363,2.2388,2.2419,2.2678,2.281,2.2822,2.3081,2.32,2.32,2.3288,2.3448,2.3703,2.3785,2.3976,2.419,2.419,2.419,2.4199,2.4256,2.4257,2.4266,2.4321,2.4266,2.419,2.419,2.419,2.419,2.419,2.419,2.419,2.419,2.4237,2.4312,2.454,2.4727,2.4855,2.4908,2.4987,2.5052,2.5052,2.4685,2.4365,2.4377,2.3664,2.2891,2.2265,2.2025,2.1684,2.1064,2.0974,2.0919,2.0732,2.0549,2.0429,2.0438,2.0484,2.0515,2.0515,2.0565,2.0586,2.0585,2.0585,2.0541,2.048,2.0537,2.051,2.0408,2.0446,2.044,2.0372,2.0372,2.0385,2.4677,2.4169,2.3579,2.3511,2.2953,2.1975,2.0373,0.0,1.7479,1.6001,1.5112,1.4588,1.452,1.5177,1.6153,1.7434,1.7811,1.8682,2.0833,2.1177,2.1478,2.2212,2.2296,2.2296,2.2296,2.2296,2.2296,2.2296,2.2296,2.2296,2.2296,2.2296,2.2296,2.2296,2.2296,2.2296,2.2296,2.2296,2.2296,2.231,2.255,2.2691,2.2769,2.3026,2.3153,2.3153,2.3177,2.32,2.3224,2.3533,2.3671,2.3724,2.4044,2.417,2.419,2.419,2.419,2.4228,2.4419,2.4469,2.4503,2.4685,2.4503,2.419,2.419,2.419,2.419,2.419,2.419,2.419,2.419,2.4348,2.4559,2.4885,2.4974,2.5022,2.5208,2.5259,2.5269,2.5269,2.5221,2.5211,2.5267,2.4608,2.4061,2.4042,2.3374,2.2868,2.2846,2.285,2.2565,2.1835,2.1005,2.0513,2.0585,2.0586,2.0586,2.0586,2.0605,2.0565,2.0512,2.0511,2.0478,2.0418,2.0422,2.0418,2.0408,2.0414,2.0368,2.0302,2.0302,2.0299,2.4372,2.3966,2.3393,2.3393,2.2852,2.189,2.0339,1.8865,1.7377,1.59,1.4648,1.3845,1.3845,1.4445,1.5291,0.0,0.0,0.0,1.9565,1.9819,2.0276,2.1495,2.1634,2.1803,2.2245,2.2296,2.2296,2.2296,2.2296,2.2296,2.2296,2.2296,2.2296,2.2296,2.2296,2.2374,2.2537,2.2537,2.2643,2.2832,2.2952,2.3009,2.3056,2.3357,2.3511,2.3493,2.3205,2.3079,2.3089,2.3217,2.3275,2.3339,2.3968,2.419,2.419,2.419,2.4275,2.4393,2.4469,2.4575,2.4693,2.4775,2.4693,2.4551,2.4551,2.4551,2.4551,2.4551,2.4551,2.4551,2.4551,2.467,2.4838,2.4974,2.5094,2.5208,2.5274,2.5308,2.5313,2.535,2.5359,2.5372,2.5453,2.5199,2.4834,2.4363,2.4001,2.3625,2.316,2.3103,2.2791,2.1992,2.1561,2.1131,2.0644,2.0605,2.0585,2.054,2.054,2.0511,2.044,2.0437,2.0416,2.0335,2.0372,2.0374,2.0344,2.0333,2.0335,2.031,2.031,2.0307,2.3661,2.346,2.3071,2.3071,2.253,2.1566,2.0031,1.8527,1.7067,1.5578,1.4268,1.3396,1.3396,1.3819,1.4428,0.0,0.0,1.6891,1.8369,1.8758,1.9384,2.0699,2.1055,2.141,2.1921,2.2161,2.2296,2.2296,2.2296,2.2296,2.2296,2.2374,2.2388,2.231,2.2374,2.2514,2.2695,2.281,2.2972,2.32,2.3311,2.3357,2.3357,2.3692,2.3855,2.3811,2.3243,2.3024,2.3059,2.3077,2.3121,2.3228,2.406,2.4375,2.4375,2.4375,2.4461,2.4591,2.4636,2.473,2.4876,2.4923,2.4955,2.4955,2.4955,2.4888,2.4804,2.4804,2.4804,2.4811,2.4849,2.4936,2.5016,2.5063,2.5203,2.5317,2.5336,2.5326,2.5346,2.5415,2.5428,2.5453,2.5526,2.5537,2.5338,2.4808,2.4714,2.4505,2.3945,2.3867,2.3457,2.2362,2.2244,2.1795,2.0662,2.0565,2.054,2.0477,2.0707,2.0825,2.0754,2.1002,2.1105,2.1046,2.0831,2.0824,2.1043,2.0532,2.0548,2.1023,2.0769,2.0788,2.211,2.2313,2.2313,2.2313,2.1752,2.0801,1.9249,1.7771,1.6282,1.4825,1.3921,1.3396,1.3396,1.3413,1.3642,1.4385,1.5138,0.0,1.7597,1.8437,1.9181,1.9917,2.072,2.119,2.1207,2.187,2.2296,2.2296,2.2296,2.2296,2.2296,2.255,2.256,2.231,2.2563,2.2695,2.2708,2.3033,2.3189,2.32,2.3533,2.3692,2.3703,2.4036,2.419,2.4153,2.3354,2.3086,2.319,2.3276,2.3382,2.3573,2.4443,2.4797,2.4797,2.4797,2.4797,2.4825,2.4943,2.5004,2.5028,2.5224,2.5284,2.5284,2.5284,2.5068,2.4804,2.4804,2.4804,2.4828,2.4962,2.5004,2.5046,2.5253,2.5303,2.5322,2.5376,2.5402,2.5418,2.5498,2.551,2.5529,2.5595,2.5601,2.561,2.5683,2.5684,2.5684,2.5664,2.5664,2.5019,2.3266,2.3089,2.2385,2.0644,2.0508,2.0476,2.0412,2.1202,2.166,2.1588,2.2414,2.284,2.2782,2.1932,2.1912,2.2778,2.1119,2.1158,2.2759,2.1889,2.1947,2.0673,2.0741,2.0606,2.0094,2.0179,1.9858,1.7856,1.7037,1.6282,1.4808,1.3904,1.3438,1.3576,1.3496,1.4016,1.591,1.6298,1.6874,1.8335,1.9186,1.9744,1.9968,2.1164,2.1955,2.1955,2.234,2.256,2.256,2.256,2.2665,2.2908,2.2789,2.266,2.259,2.289,2.3153,2.338,2.35,2.366,2.3886,2.3996,2.4036,2.4046,2.4284,2.441,2.4363,2.3646,2.3056,2.2623,2.3204,2.3138,2.2814,2.4249,2.4804,2.4804,2.4804,2.4862,2.4937,2.4992,2.5094,2.5214,2.5274,2.5308,2.5308,2.5308,2.5228,2.5138,2.5138,2.5138,2.5149,2.5198,2.5208,2.5225,2.5331,2.5375,2.5399,2.5456,2.5477,2.5498,2.5556,2.5564,2.5597,2.566,2.5662,2.5682,2.5703,2.5703,2.5703,2.5703,2.566,2.5182,2.4041,2.3879,2.3157,2.1459,2.1323,2.1552,2.2089,2.2374,2.2495,2.2423,2.2689,2.2831,2.2797,2.2528,2.2528,2.2797,2.2274,2.2274,2.2797,2.2528,2.2547,1.9765,1.9811,1.9473,1.9012,1.8826,1.8318,1.6654,1.6079,1.554,1.4391,1.3811,1.3543,1.3736,1.3622,1.3998,1.5487,1.604,1.6705,1.7907,1.8944,1.9794,2.0369,2.1398,2.216,2.2433,2.273,2.2835,2.2708,2.2822,2.2923,2.3009,2.3057,2.3081,2.3081,2.3288,2.35,2.3692,2.3827,2.3996,2.419,2.419,2.4247,2.4321,2.4435,2.4545,2.4578,2.3811,2.3258,0.0,2.3398,2.336,2.3116,2.4467,2.5,2.5,2.5,2.5043,2.5105,2.5105,2.5203,2.5308,2.5308,2.5308,2.5308,2.5308,2.5308,2.5308,2.5308,2.5322,2.5339,2.5344,2.5354,2.5383,2.5428,2.5438,2.5459,2.5511,2.5543,2.5558,2.5611,2.5636,2.5658,2.5683,2.5703,2.5683,2.5661,2.5661,2.5659,2.5633,2.5595,2.5223,2.4364,2.4209,2.3761,2.2698,2.2333,2.2358,2.2836,2.3176,2.3323,2.3283,2.3581,2.3735,2.3735,2.3451,2.3432,2.3735,2.3735,2.3581,2.3297,2.3601,2.3735,0.0,1.9186,1.864,1.8589,1.7602,1.64,1.5612,1.4962,0.0,1.3735,1.3592,1.3678,1.3963,1.3838,1.3736,1.3881,1.4967,1.6071,1.6812,1.8195,1.9673,2.1168,2.1553,2.1982,2.2677,2.3045,2.3105,2.2797,2.3057,2.3105,2.2822,2.338,2.3714,2.3756,2.3756,2.3746,2.3742,2.4036,2.419,2.419,2.4209,2.4284,2.4402,2.4435,2.4545,2.4686,2.3901,2.3651,2.3833,2.3875,2.3974,2.4187,2.4981,2.5308,2.5308,2.5308,2.5308,2.5308,2.5308,2.5308,2.5308,2.5308,2.5308,2.5308,2.5308,2.5308,2.5308,2.5317,2.5342,2.5402,2.5417,2.5443,2.5493,2.5515,2.5517,2.5533,2.5598,2.5604,2.5632,2.5683,2.5703,2.5703,2.5703,2.5703,2.5662,2.5605,2.5599,2.5566,2.5517,2.5506,2.5188,2.4377,2.4286,2.4242,2.4196,2.3458,2.2987,2.2975,2.374,2.4187,2.4187,2.4909,2.5308,2.5308,2.4567,2.4548,2.5308,2.5308,2.4928,2.4206,2.4947,2.5284,1.6644,0.0,1.6238,1.568,1.5697,1.552,0.0,1.4341,1.4503,1.3757,1.3592,1.3906,1.4873,1.4259,1.4309,1.6403,1.74,1.815,1.8883,2.0352,2.1691,2.2616,2.2781,2.29,2.3064,2.338,2.3555,2.3459,2.3544,2.366,2.3837,2.3746,2.3891,2.4311,2.4301,2.4248,2.4084,2.4161,2.419,2.4199,2.4348,2.4119,2.352,2.3827,2.3986,2.403,2.399,2.4,2.4082,2.4692,2.4615,2.4187,2.4981,2.5308,2.5308,2.5308,2.5308,2.5308,2.5308,2.5308,2.5308,2.5308,2.5308,2.5308,2.5308,2.5308,2.5308,2.5367,2.5391,2.5408,2.5451,2.5498,2.5503,2.5563,2.5588,2.5599,2.5661,2.5682,2.5683,2.5703,2.5703,2.5703,2.5703,2.566,2.5629,2.5603,2.5556,2.5526,2.5493,2.5459,2.535,2.5135,2.508,2.5033,2.5024,2.4282,2.4075,2.4673,2.4904,2.5019,2.5019,2.5192,2.5308,2.5308,2.5115,2.5115,2.5308,2.5308,2.5192,2.5019,2.5212,2.5214,1.4793,1.508,1.5494,1.5095,1.5129,1.5015,1.4221,1.4224,1.4302,1.3951,0.0,1.4214,1.5336,1.493,1.515,1.7383,1.8253,1.9137,2.0604,2.1837,2.2752,2.3147,2.3335,2.3426,2.3426,2.3724,2.3876,2.3703,2.3837,2.3937,2.3976,2.4039,2.4201,2.4495,2.4583,2.4594,2.4478,2.4478,2.4478,2.4478,2.4602,2.4238,2.3503,2.4075,2.42,2.3964,2.4438,2.4639,2.4678,2.5115,2.5038,2.4697,2.5135,2.5308,2.5308,2.5308,2.5308,2.5308,2.5308,2.5327,2.5346,2.5376,2.5391,2.5391,2.5391,2.5391,2.5395,2.5402,2.5447,2.5491,2.5543,2.5564,2.5602,2.5635,2.5657,2.566,2.5683,2.5703,2.5703,2.5703,2.5703,2.5683,2.566,2.5611,2.557,2.5526,2.5488,2.5447,2.5404,2.5387,2.5346,2.5346,2.5327,2.5308,2.5308,2.4909,2.4832,2.5269,2.5308,2.5308,2.5308,2.5308,2.5308,2.5308,2.5308,2.5259,2.5163,2.5259,2.5222,2.508,2.513,2.5065,1.3743,1.4556,1.5561,1.546,1.511,1.4805,1.4805,0.0,0.0,0.0,0.0,0.0,1.5722,1.5825,1.6255,1.7778,1.8661,1.9933,2.2107,2.2959,2.3357,2.3357,2.3599,2.3785,2.3785,2.4026,2.4084,2.3795,2.4036,2.4094,2.384,2.4247,2.4518,2.4564,2.4741,2.4861,2.4881,2.4832,2.4804,2.4804,2.4814,2.446,2.381,2.4532,2.4577,2.4129,2.4678,2.5058,2.5288,2.5173,2.5192,2.5308,2.5308,2.5308,2.5308,2.5313,2.5317,2.5317,2.534,2.5375,2.5425,2.5473,2.5491,2.5491,2.5491,2.5517,2.5493,2.5447,2.5517,2.5603,2.5607,2.566,2.5703,2.5703,2.5703,2.5703,2.5703,2.5703,2.5703,2.5683,2.5683,2.5661,2.5599,2.5588,2.5537,2.5415,2.5398,2.5352,2.5303,2.5308,2.5308,2.5308,2.5308,2.5308,2.5308,2.5308,2.5308,2.5308,2.5269,2.5248,2.5228,2.5228,2.5228,2.5228,2.5228,2.5135,2.4968,2.5135,2.508,2.4804,2.4923,2.4897,1.4368,1.4952,1.5443,1.4825,1.4734,1.4805,1.4805,0.0,0.0,0.0,0.0,0.0,0.0,1.7118,1.7793,1.8887,2.0333,2.1926,2.3644,2.3991,2.4054,2.4054,2.4094,2.4113,2.4113,2.417,2.418,2.4141,2.417,2.4257,2.4373,2.4461,2.4636,2.4905,2.4955,2.5047,2.5228,2.4929,2.4804,2.4804,2.4923,2.4561,2.3816,2.41,2.4188,2.4072,2.3451,2.3985,2.525,2.4567,2.4697,2.5308,2.5308,2.5308,2.5303,2.5352,2.5383,2.5387,2.5453,2.5485,2.5498,2.5508,2.5491,2.5491,2.5491,2.5545,2.5573,2.5566,2.5573,2.5607,2.5662,2.5683,2.5703,2.5703,2.5703,2.5703,2.5703,2.5703,2.5683,2.5632,2.5628,2.5598,2.5535,2.5474,2.5415,2.5406,2.5342,2.5313,2.5308,2.5308,2.5308,2.5308,2.5308,2.5308,2.5308,2.5308,2.5308,2.5308,2.5146,2.4999,2.4869,2.4881,2.4881,2.4881,2.4881,2.4855,2.4828,2.4855,2.4854,2.4804,2.4814,2.4738,1.3904,1.4445,1.5048,1.5266,1.5748,1.6361,1.6949,1.6959,0.0,0.0,0.0,0.0,1.868,1.8715,1.9212,2.1006,2.2299,2.3355,2.4098,2.419,2.419,2.419,2.419,2.419,2.419,2.419,2.419,2.419,2.4303,2.441,2.4495,2.4663,2.4845,2.5004,2.5105,2.5208,2.5308,2.5143,2.5074,2.5074,2.513,2.4741,2.398,2.4519,2.4509,2.4072,2.3687,2.4197,2.525,2.4432,2.4562,2.5293,2.5339,2.535,2.5367,2.5431,2.544,2.5468,2.5537,2.5554,2.5559,2.5599,2.5605,2.5605,2.5605,2.5633,2.5659,2.5659,2.5659,2.5661,2.5683,2.5703,2.5703,2.5703,2.5662,2.5657,2.5657,2.5629,2.5573,2.5554,2.5549,2.5513,2.5465,2.5418,2.5387,2.5342,2.5322,2.5308,2.5308,2.5308,2.5308,2.5308,2.5308,2.5259,2.5152,2.5146,2.5146,2.5146,2.5046,2.493,2.4811,2.4804,2.4804,2.4804,2.4804,2.4746,2.4639,2.4746,2.4685,2.4478,2.4583,2.4537,1.3717,1.4195,1.4864,1.5871,0.0,1.7223,1.867,1.8523,0.0,0.0,0.0,0.0,2.0309,2.0317,2.0874,2.2995,2.3823,2.4218,2.4257,2.4228,2.419,2.419,2.4247,2.4266,2.4266,2.4312,2.433,2.433,2.4486,2.4583,2.4612,2.4865,2.5022,2.5077,2.5219,2.5308,2.5308,2.5308,2.5308,2.5308,2.5308,2.4981,2.4394,2.5019,2.4962,2.4375,2.4187,2.4567,2.525,2.4432,2.4586,2.5326,2.5387,2.5411,2.5443,2.5496,2.5539,2.5556,2.5604,2.5611,2.5633,2.5683,2.5703,2.5703,2.5703,2.5703,2.5703,2.5703,2.5703,2.5703,2.5703,2.5703,2.5703,2.5683,2.5635,2.5599,2.5572,2.5541,2.5506,2.5471,2.5485,2.5462,2.5391,2.5376,2.5363,2.5303,2.5308,2.5308,2.5308,2.5308,2.5274,2.5229,2.5224,2.5152,2.4962,2.4949,2.493,2.4891,2.4891,2.483,2.467,2.4654,2.4654,2.4654,2.4654,2.4575,2.4418,2.4575,2.4503,2.4199,2.4357,2.4339,1.464,1.4908,1.521,1.6204,1.5806,1.5839,1.8419,1.8523,0.0,1.9132,0.0,2.1317,2.0639,2.1722,2.3106,2.4202,2.4275,2.4275,2.4444,2.4321,2.419,2.419,2.4357,2.4478,2.4478,2.4647,2.476,2.476,2.4775,2.4835,2.4962,2.4992,2.5088,2.5269,2.5284,2.5308,2.5308,2.5308,2.5308,2.5308,2.5308,2.5269,2.5212,2.5269,2.5269,2.5173,2.4413,2.4567,2.525,2.4432,2.4619,2.5379,2.5398,2.5482,2.5594,2.5597,2.5633,2.5683,2.5683,2.5683,2.5683,2.5703,2.5703,2.5703,2.5703,2.5703,2.5703,2.5703,2.5703,2.5703,2.5703,2.5703,2.5683,2.561,2.5603,2.5573,2.5529,2.5493,2.5473,2.5418,2.5417,2.5399,2.5322,2.5303,2.5317,2.5308,2.5308,2.5308,2.5308,2.5308,2.5224,2.504,2.5022,2.4974,2.484,2.4799,2.4727,2.4543,2.4534,2.4444,2.4256,2.4247,2.4247,2.4247,2.4247,2.4237,2.4218,2.4237,2.4228,2.419,2.4209,2.4209,1.33,1.4209,1.5178,1.5685,1.6286,0.0,0.0,2.0187,2.0766,2.2088,2.2446,2.2472,2.2274,2.3265,2.4243,2.4621,2.4615,2.4591,2.4678,2.4615,2.4567,2.4567,2.4639,2.4685,2.4685,2.476,2.4804,2.4804,2.4889,2.4943,2.5004,2.5111,2.5219,2.5303,2.5308,2.5308,2.5308,2.5308,2.5058,2.4567,2.5058,2.5308,2.5308,2.5308,2.5312,2.5309,2.4505,2.4636,2.5363,2.4555,2.4712,2.5477,2.5515,2.557,2.5661,2.5661,2.5682,2.5703,2.5703,2.5703,2.5703,2.5703,2.5703,2.5703,2.5703,2.5703,2.5703,2.5703,2.5703,2.5703,2.5703,2.5703,2.5683,2.5628,2.5564,2.5529,2.544,2.5413,2.5375,2.5333,2.5339,2.5321,2.5293,2.5308,2.5308,2.5308,2.5179,2.5111,2.5111,2.5043,2.4955,2.4877,2.4759,2.4674,2.4615,2.4503,2.4393,2.4321,2.4418,2.4419,2.4199,2.419,2.419,2.419,2.419,2.419,2.419,2.419,2.419,2.419,2.419,2.419,1.3043,1.4122,1.5368,1.5776,0.0,0.0,2.0101,2.0951,2.1914,2.3804,2.3815,2.3517,2.3659,2.4294,2.4799,2.4862,2.4821,2.4799,2.4862,2.484,2.4804,2.4804,2.4835,2.485,2.485,2.4916,2.4968,2.4968,2.5036,2.5094,2.5094,2.5219,2.5308,2.5308,2.5308,2.5308,2.5308,2.5058,2.4634,2.4092,2.4396,2.469,2.4964,2.521,2.5375,2.5396,2.4856,2.4944,2.5452,2.4912,2.502,2.5543,2.5604,2.566,2.5703,2.5703,2.5703,2.5703,2.5703,2.5703,2.5703,2.5703,2.5703,2.5703,2.5703,2.5703,2.5703,2.5703,2.5683,2.5662,2.5662,2.5662,2.5657,2.5556,2.5491,2.5456,2.5383,2.5335,2.5308,2.5308,2.5308,2.5308,2.5308,2.5253,2.5208,2.5208,2.5047,2.4949,2.4949,2.4862,2.4775,2.4716,2.4528,2.441,2.441,2.4275,2.419,2.419,2.4339,2.4339,2.4218,2.419,2.419,2.419,2.419,2.419,2.419,2.419,2.419,2.419,2.419,2.419,1.4419,1.4989,1.5894,1.6707,0.0,0.0,2.0162,2.0521,2.1226,2.3694,2.4357,2.4512,2.4512,2.467,2.4849,2.4986,2.4891,2.4855,2.4986,2.4884,2.4804,2.4804,2.493,2.501,2.501,2.5173,2.5308,2.5308,2.5308,2.5308,2.5308,2.5308,2.5308,2.5308,2.5288,2.5288,2.5288,2.449,2.4077,2.408,2.3278,2.335,2.4215,2.5018,2.5434,2.5491,2.5491,2.5493,2.5493,2.5493,2.5545,2.5605,2.5662,2.5703,2.5703,2.5703,2.5703,2.5703,2.5703,2.5703,2.5703,2.5703,2.5703,2.5703,2.5703,2.5703,2.5703,2.5703,2.5658,2.5601,2.5601,2.5601,2.5561,2.5425,2.5406,2.5383,2.5317,2.5308,2.5308,2.5308,2.5308,2.5308,2.5303,2.5122,2.5004,2.5004,2.4877,2.4797,2.4797,2.4797,2.4716,2.452,2.4321,2.419,2.419,2.419,2.419,2.419,2.419,2.419,2.419,2.419,2.419,2.419,2.419,2.419,2.419,2.419,2.419,2.419,2.419,2.419,1.2578,1.444,1.6597,1.6835,1.8823,2.0986,0.0,2.2254,0.0,0.0,2.464,2.4852,2.4852,2.5031,2.516,2.5203,2.5176,2.5165,2.5208,2.5176,2.5149,2.5149,2.5187,2.5214,2.5214,2.5264,2.5308,2.5308,2.5308,2.5308,2.5308,2.5308,2.5308,2.5308,2.4755,2.446,2.4462,2.3663,2.2979,2.243,2.2799,2.3112,2.3387,2.4186,2.4593,2.4685,2.5291,2.5599,2.5636,2.5636,2.5658,2.5662,2.5683,2.5703,2.5703,2.5703,2.5703,2.5703,2.5703,2.5703,2.5703,2.5703,2.5703,2.5683,2.5637,2.5633,2.5629,2.5567,2.5549,2.5529,2.5463,2.5468,2.5453,2.5413,2.5406,2.5383,2.5317,2.5308,2.5308,2.5308,2.5308,2.5259,2.5111,2.5034,2.4968,2.4864,2.4716,2.4545,2.4401,2.4375,2.4367,2.4294,2.4237,2.419,2.419,2.419,2.419,2.419,2.419,2.419,2.419,2.419,2.419,2.419,2.419,2.419,2.419,2.419,2.419,2.419,2.419,2.419,1.3164,1.5222,1.7532,1.8174,2.0112,2.2202,2.3434,2.3652,2.3782,2.4482,2.4811,2.5004,2.5004,2.5163,2.5308,2.5308,2.5308,2.5308,2.5308,2.5308,2.5308,2.5308,2.5308,2.5308,2.5308,2.5308,2.5308,2.5308,2.5308,2.5308,2.5308,2.5308,2.5313,2.5344,2.487,2.4451,2.4138,2.3333,2.2537,2.1735,2.1928,2.2015,2.2109,2.3577,2.4279,2.4385,2.5265,2.5661,2.5703,2.5703,2.5703,2.5703,2.5703,2.5703,2.5703,2.5703,2.5683,2.566,2.566,2.5637,2.563,2.563,2.563,2.5607,2.5567,2.5559,2.5554,2.5503,2.5473,2.5459,2.5408,2.5379,2.5363,2.5359,2.5359,2.5346,2.5303,2.5308,2.5308,2.5308,2.5248,2.5146,2.5022,2.4898,2.4762,2.47,2.4512,2.4348,2.4209,2.419,2.419,2.419,2.419,2.419,2.419,2.419,2.419,2.419,2.419,2.419,2.419,2.419,2.419,2.419,2.419,2.419,2.419,2.419,2.419,2.419,2.419,2.419,1.503,1.6602,1.8408,2.0094,2.1398,2.2716,2.4431,2.4685,2.4599,2.4771,2.493,2.5028,2.5028,2.5187,2.5308,2.5308,2.5308,2.5308,2.5308,2.5308,2.5308,2.5308,2.5308,2.5308,2.5308,2.5308,2.5308,2.5308,2.5308,2.5308,2.5308,2.5317,2.5339,2.5406,2.5265,2.4839,2.4107,2.3219,2.2404,2.1676,2.09,2.0579,2.0801,2.3134,2.4269,2.4453,2.5312,2.5644,2.5586,2.5664,2.5703,2.5703,2.5683,2.5683,2.5683,2.5683,2.5637,2.5597,2.5597,2.5552,2.5491,2.5491,2.5491,2.551,2.5484,2.5484,2.5481,2.5473,2.5441,2.5398,2.5398,2.5357,2.5308,2.5308,2.5308,2.5308,2.5308,2.5308,2.5284,2.5274,2.5135,2.4998,2.4968,2.47,2.4495,2.4478,2.4321,2.419,2.419,2.419,2.419,2.419,2.419,2.419,2.419,2.419,2.419,2.419,2.419,2.419,2.419,2.419,2.419,2.419,2.419,2.419,2.419,2.419,2.419,2.419,2.419,2.419,1.3515,1.5354,1.7727,2.0147,2.248,2.4325,2.4841,2.4924,2.4911,2.4949,2.5113,2.5248,2.5248,2.5269,2.5308,2.5308,2.5308,2.5308,2.5308,2.5308,2.5308,2.5308,2.5308,2.5308,2.5308,2.5308,2.5308,2.5308,2.5308,2.5308,2.5308,2.5346,2.5383,2.5402,2.4169,2.3452,2.334,2.1802,2.098,2.0858,2.0663,2.0937,2.166,2.2831,2.3749,2.4453,2.5312,2.5312,2.4727,2.543,2.5703,2.5683,2.5636,2.561,2.5628,2.5561,2.5522,2.5511,2.5511,2.5503,2.5491,2.5491,2.5491,2.5481,2.5441,2.5421,2.5404,2.5359,2.533,2.5312,2.5312,2.5308,2.5308,2.5308,2.5308,2.5308,2.5308,2.5308,2.5259,2.5094,2.5028,2.4924,2.464,2.4551,2.4462,2.4284,2.4228,2.419,2.419,2.419,2.419,2.419,2.419,2.419,2.419,2.419,2.419,2.419,2.419,2.419,2.419,2.419,2.419,2.419,2.419,2.419,2.419,2.419,2.419,2.419,2.419,2.419,1.3584,1.5691,1.8359,2.1456,2.3284,2.4474,2.5017,2.5146,2.5146,2.5146,2.5224,2.5308,2.5308,2.5308,2.5308,2.5308,2.5308,2.5308,2.5308,2.5308,2.5308,2.5308,2.5308,2.5308,2.5308,2.5326,2.5342,2.5357,2.5387,2.5398,2.5398,2.5037,2.4841,2.4873,2.37,2.2876,2.2531,2.1615,2.0974,2.0605,2.0605,2.1289,2.2559,2.3359,2.4199,2.5059,2.5508,2.5449,2.5059,2.5508,2.5683,2.5658,2.5607,2.5572,2.5551,2.5503,2.5488,2.5456,2.5459,2.5431,2.5394,2.5394,2.5394,2.5402,2.5367,2.535,2.5337,2.5308,2.5308,2.5308,2.5308,2.5308,2.5308,2.5308,2.5308,2.5269,2.5168,2.5157,2.5113,2.4936,2.4836,2.4708,2.4526,2.4428,2.433,2.4209,2.419,2.419,2.419,2.419,2.419,2.419,2.419,2.419,2.419,2.419,2.419,2.419,2.419,2.419,2.419,2.419,2.419,2.419,2.419,2.419,2.419,2.419,2.419,2.419,2.419,2.442,1.3785,1.6313,1.9206,2.235,2.3509,2.4075,2.4899,2.5192,2.5308,2.5308,2.5308,2.5308,2.5308,2.5308,2.5308,2.5308,2.5308,2.5308,2.5308,2.5308,2.5322,2.5322,2.5321,2.5335,2.5335,2.5383,2.5415,2.5427,2.5477,2.5433,2.5274,2.46,2.4177,2.4095,2.332,2.257,2.1914,2.1758,2.1309,2.0605,2.0742,2.1641,2.3203,2.4023,2.4785,2.5488,2.5625,2.5605,2.5468,2.5603,2.5634,2.5572,2.5566,2.5539,2.5473,2.5479,2.5428,2.5372,2.5379,2.5361,2.5308,2.5308,2.5308,2.5308,2.5308,2.5308,2.5308,2.5308,2.5308,2.5308,2.5308,2.5308,2.5308,2.5308,2.5269,2.5208,2.5034,2.4986,2.4917,2.479,2.4602,2.4444,2.4444,2.4312,2.419,2.419,2.419,2.419,2.419,2.419,2.419,2.419,2.419,2.419,2.419,2.419,2.419,2.419,2.419,2.419,2.419,2.419,2.419,2.419,2.419,2.419,2.419,2.419,2.4263,2.442,2.442,2.4842,1.2168,1.5487,1.8956,2.0198,2.2297,2.4106,2.424,2.4793,2.5308,2.5308,2.5308,2.5308,2.5308,2.5308,2.5308,2.5308,2.5308,2.5308,2.5308,2.5357,2.5383,2.5391,2.5441,2.5463,2.5463,2.5473,2.5498,2.5495,2.5486,2.5177,2.4414,2.4323,2.3974,2.3275,2.2475,2.2011,2.1894,2.1152,2.0723,2.0605,2.1367,2.2207,2.3144,2.4004,2.4453,2.4609,2.5304,2.5177,2.4531,2.5239,2.5511,2.5517,2.5456,2.5421,2.542,2.5342,2.5327,2.5313,2.5313,2.5303,2.5308,2.5308,2.5308,2.5308,2.5308,2.5308,2.5308,2.5308,2.5308,2.5308,2.5308,2.5308,2.5308,2.5308,2.5163,2.5034,2.501,2.491,2.4763,2.4575,2.4375,2.4247,2.4247,2.4218,2.419,2.419,2.419,2.419,2.419,2.419,2.419,2.419,2.419,2.419,2.419,2.419,2.419,2.419,2.419,2.419,2.419,2.419,2.419,2.419,2.419,2.419,2.419,2.419,2.4566,2.5246,2.5246,2.5668,1.315,1.5176,1.7286,1.9601,2.1086,2.222,2.3163,2.3644,2.4043,2.4524,2.462,2.4774,2.5212,2.5308,2.5308,2.5308,2.533,2.5354,2.537,2.5404,2.5462,2.5465,2.5473,2.5491,2.5491,2.5522,2.5556,2.5556,2.5597,2.5235,2.4356,2.3878,2.3257,2.2456,2.1601,2.1172,2.1172,2.0781,2.0585,2.0541,2.0931,2.1785,2.3058,2.343,2.4141,2.509,2.545,2.5356,2.4997,2.5345,2.5488,2.5441,2.5408,2.5376,2.5348,2.5308,2.5308,2.5308,2.5308,2.5308,2.5308,2.5308,2.5308,2.5308,2.5308,2.5308,2.5308,2.5308,2.5308,2.5308,2.5308,2.5308,2.5269,2.5157,2.5005,2.4857,2.4752,2.4674,2.4567,2.4366,2.4247,2.419,2.419,2.419,2.419,2.419,2.419,2.419,2.419,2.419,2.419,2.419,2.419,2.419,2.419,2.419,2.419,2.419,2.419,2.419,2.419,2.419,2.419,2.419,2.419,2.419,2.419,2.4658,2.5044,2.5411,2.587,2.6502,1.338,1.4242,1.5232,1.8246,1.9481,2.0369,2.1831,2.2489,2.3047,2.3918,2.411,2.4346,2.5163,2.5313,2.5317,2.5312,2.5379,2.5417,2.5415,2.5471,2.5533,2.5533,2.5545,2.5552,2.5552,2.5599,2.5632,2.5632,2.5467,2.498,2.4121,2.3262,2.2422,2.1602,2.0937,2.0605,2.0605,2.0585,2.0542,2.0508,2.0714,2.1572,2.3017,2.3212,2.4125,2.5552,2.5552,2.5529,2.5463,2.5462,2.5411,2.5379,2.5368,2.5333,2.5308,2.5308,2.5308,2.5308,2.5308,2.5308,2.5308,2.5308,2.5308,2.5308,2.5308,2.5308,2.5308,2.5308,2.5264,2.5248,2.5298,2.5238,2.5149,2.5022,2.4864,2.467,2.4461,2.4409,2.4384,2.4228,2.419,2.419,2.419,2.419,2.419,2.419,2.419,2.419,2.419,2.419,2.419,2.419,2.419,2.417,2.4084,2.4151,2.4161,2.4084,2.4161,2.4161,2.4084,2.4247,2.4365,2.4385,2.4557,2.4606,2.4511,2.501,2.5533,2.6017,2.6631,2.7346,1.1204,1.2049,1.3101,1.4985,1.7276,1.9319,2.0215,2.1658,2.3047,2.3918,2.411,2.4377,2.5232,2.5333,2.5331,2.5387,2.5409,2.5421,2.5495,2.5554,2.5599,2.5599,2.5658,2.5683,2.5683,2.5683,2.5683,2.5683,2.4922,2.4082,2.3203,2.2402,2.1562,2.0703,2.0625,2.0605,2.0605,2.0539,2.0509,2.0507,2.1268,2.212,2.3037,2.3791,2.4594,2.5408,2.5408,2.542,2.5398,2.5335,2.5303,2.5317,2.5317,2.5293,2.5308,2.5308,2.5308,2.5308,2.5308,2.5308,2.5308,2.5308,2.5308,2.5308,2.5308,2.5308,2.5308,2.5308,2.5163,2.5052,2.5259,2.5068,2.4855,2.4974,2.474,2.4452,2.4266,2.4209,2.4209,2.4199,2.419,2.419,2.419,2.419,2.419,2.419,2.419,2.419,2.419,2.419,2.419,2.419,2.419,2.4074,2.3746,2.4016,2.4064,2.3753,2.4016,2.4064,2.3735,2.441,2.4807,2.4852,2.5539,2.5724,2.5338,2.5049,2.5859,2.7688,2.7725,2.8172,1.1051,1.1546,1.2206,1.3934,1.5462,1.6792,1.7657,1.9161,2.0604,2.1489,2.2118,2.2923,2.4363,2.5026,2.5379,2.544,2.5491,2.5543,2.5559,2.561,2.5661,2.5661,2.5683,2.5703,2.5703,2.5703,2.5703,2.5703,2.4883,2.4023,2.3144,2.2344,2.1504,2.0625,2.0605,2.0585,2.0539,2.0512,2.0467,2.0385,2.065,2.1526,2.287,2.3179,2.4045,2.5339,2.5339,2.5339,2.533,2.5308,2.5308,2.5308,2.5308,2.5308,2.5308,2.5308,2.5308,2.5308,2.5308,2.5308,2.5308,2.5308,2.5308,2.5308,2.5308,2.5308,2.5269,2.5146,2.5152,2.5152,2.5025,2.4943,2.4897,2.4723,2.4493,2.4284,2.4209,2.419,2.419,2.419,2.419,2.419,2.419,2.419,2.419,2.419,2.419,2.419,2.419,2.419,2.419,2.419,2.4006,2.3917,2.4006,2.3753,2.3599,2.3692,2.3599,2.3833,2.4432,2.4492,2.4825,2.5588,2.544,2.5634,2.6172,2.6571,2.7131,2.7805,2.8338,2.8712,1.0739,1.0937,1.1368,1.3077,1.3923,1.4734,1.6176,1.7353,1.8573,2.0005,2.0752,2.1718,2.3493,2.427,2.4821,2.5436,2.5566,2.5605,2.5633,2.5662,2.5703,2.5703,2.5703,2.5703,2.5703,2.5703,2.5703,2.5703,2.4648,2.373,2.3164,2.207,2.1191,2.0584,2.0564,2.0539,2.0472,2.044,2.04,2.031,2.0569,2.1297,2.237,2.297,2.3836,2.4909,2.5173,2.5308,2.5308,2.5308,2.5308,2.5308,2.5308,2.5308,2.5308,2.5308,2.5308,2.5308,2.5308,2.5308,2.5308,2.5308,2.5308,2.5308,2.5308,2.5308,2.5269,2.5146,2.5113,2.5097,2.4904,2.4857,2.4754,2.4478,2.4294,2.419,2.419,2.419,2.419,2.419,2.419,2.419,2.419,2.419,2.419,2.419,2.419,2.419,2.419,2.4094,2.4026,2.4026,2.3724,2.3692,2.4057,2.3779,2.3632,2.3762,2.3898,2.4164,2.4551,2.4786,2.5271,2.6045,2.5869,2.619,2.7036,2.7188,2.752,2.8012,2.8433,2.8626,0.0,0.0,0.0,1.2199,1.2644,1.3318,1.5795,1.6394,1.7134,1.9662,2.0219,2.0808,2.2719,2.3062,2.3609,2.5251,2.5544,2.5593,2.5683,2.5703,2.5703,2.5703,2.5703,2.5703,2.5703,2.5684,2.5664,2.5664,2.4102,2.3164,2.3164,2.1523,2.0564,2.0507,2.0507,2.0453,2.0406,2.0327,2.0307,2.0304,2.1086,2.1485,2.1562,2.3259,2.4033,2.411,2.4909,2.5269,2.5269,2.5288,2.5308,2.5308,2.5308,2.5308,2.5308,2.5308,2.5308,2.5308,2.5308,2.5308,2.5308,2.5308,2.5308,2.5303,2.5284,2.5284,2.5279,2.5298,2.5056,2.4821,2.4955,2.4752,2.4435,2.4256,2.419,2.419,2.419,2.419,2.4208,2.4226,2.4245,2.4245,2.4263,2.4245,2.4245,2.4245,2.4208,2.4198,2.4217,2.3915,2.3682,2.3718,2.3398,2.3379,2.3869,2.4138,2.4177,2.396,2.4909,2.5024,2.3998,2.5325,2.6135,2.6227,2.6922,2.747,2.7883,2.6781,2.6982,2.8381,2.8047,2.7897,1.0094,0.0,0.0,0.0,0.0,0.0,1.2646,1.3788,1.5263,1.7271,1.8154,1.9319,2.1773,2.2224,2.2596,2.3689,2.4354,2.496,2.5605,2.5703,2.5703,2.5703,2.5703,2.5703,2.5703,2.5137,2.4766,2.4766,2.3203,2.2266,2.2266,2.1168,2.0507,2.043,2.043,2.0404,2.0322,2.0302,2.0299,2.0292,2.0535,2.0942,2.1523,2.2004,2.2566,2.3201,2.4067,2.4432,2.449,2.5058,2.5308,2.5308,2.5308,2.5308,2.5308,2.5308,2.5308,2.5308,2.5308,2.5308,2.5308,2.5308,2.5308,2.5269,2.5135,2.5088,2.5065,2.4962,2.4881,2.4782,2.4666,2.4451,2.4266,2.4209,2.419,2.419,2.419,2.419,2.4373,2.4952,2.5062,2.5246,2.5841,2.5438,2.5062,2.5062,2.4371,2.4034,2.457,2.388,2.3548,2.407,2.3355,2.32,2.4102,2.3863,2.3955,2.4645,2.4743,2.5001,2.5536,2.5685,2.6132,2.6974,2.69,2.7067,2.7472,2.7438,2.7642,2.8034,2.794,2.7897,0.0,0.0,0.0,0.0,0.0,0.0,1.1783,1.2476,1.3574,1.5722,1.6526,1.7566,1.9843,2.0566,2.1094,2.1973,2.2812,2.3789,2.498,2.5156,2.5156,2.5156,2.4844,2.4629,2.4648,2.418,2.3867,2.3867,2.2616,2.1693,2.1296,2.0753,2.0429,2.0354,2.0352,2.0338,2.0295,2.0295,2.0306,2.0308,2.0308,2.0558,2.1019,2.1716,2.2312,2.2874,2.4086,2.4553,2.4502,2.4982,2.5219,2.5308,2.5308,2.5308,2.5279,2.5208,2.5224,2.5298,2.5208,2.5224,2.5298,2.5208,2.5168,2.5152,2.5034,2.5004,2.4986,2.491,2.4785,2.4623,2.4436,2.4284,2.419,2.419,2.419,2.4161,2.4016,2.3996,2.4223,2.4996,2.5149,2.5361,2.6036,2.5482,2.4939,2.4939,2.4102,2.365,2.4081,2.346,2.316,2.3591,2.2963,2.2913,2.3861,2.3878,2.4124,2.4741,2.5191,2.5584,2.5937,2.6009,2.6366,2.7035,2.6808,2.6825,2.7051,2.7288,2.7394,2.7394,2.756,2.756,1.0269,1.0327,0.0,0.0,1.0941,0.0,1.2127,1.1943,1.2193,1.4614,1.5124,1.5656,1.7383,1.8418,1.9238,1.9902,2.0996,2.2344,2.4023,2.4258,2.4258,2.4258,2.3574,2.3125,2.3184,2.3047,2.2969,2.2968,2.2139,2.1272,2.0422,2.0381,2.0352,2.0298,2.0295,2.0299,2.0308,2.0308,2.0308,2.0308,2.0308,2.0346,2.0481,2.1985,2.272,2.2893,2.4447,2.5028,2.4871,2.4948,2.5077,2.5243,2.5243,2.5243,2.5208,2.5047,2.5082,2.5228,2.5047,2.5094,2.5248,2.5071,2.5016,2.5028,2.501,2.5004,2.4979,2.4943,2.4737,2.4452,2.4256,2.419,2.419,2.419,2.417,2.4064,2.3756,2.3671,2.3862,2.4562,2.4806,2.504,2.5565,2.5054,2.4507,2.4343,2.3724,2.3283,2.3283,2.29,2.2695,2.2764,2.2573,2.2733,2.346,2.4203,2.466,2.4745,2.598,2.6404,2.5761,2.6353,2.6691,2.6691,2.6691,2.6691,2.6691,2.6691,2.6691,2.6708,2.7115,2.7115,1.1331,1.1658,1.2076,1.1538,1.1855,0.0,1.0937,1.1146,1.1912,1.3144,1.3398,1.3906,1.5605,1.6621,1.7031,1.6504,1.8906,2.1465,2.3184,2.3398,2.3359,2.3359,2.3203,2.3105,2.3125,2.2519,2.2108,2.2059,2.1192,2.0577,2.0336,2.0313,2.0314,2.0304,2.03,2.0308,2.0308,2.0308,2.0308,2.0308,2.0308,2.0635,2.1273,2.16,2.2139,2.2846,2.3719,2.4068,2.4071,2.4624,2.4855,2.4908,2.4908,2.4908,2.4883,2.4849,2.4855,2.4883,2.4849,2.4936,2.5046,2.5016,2.5105,2.5214,2.5046,2.5004,2.493,2.467,2.4551,2.4452,2.4256,2.419,2.419,2.419,2.3996,2.3785,2.3714,2.35,2.3448,2.3959,2.4773,2.5625,2.6419,2.6366,2.5822,2.4582,2.4029,2.3763,2.3763,2.2949,2.2612,2.3204,2.3217,2.3477,2.422,2.4949,2.5642,2.6218,2.6539,2.664,2.6488,2.6623,2.6691,2.6691,2.6691,2.6691,2.6691,2.6691,2.6691,2.6708,2.7115,2.7272,1.1551,1.1773,1.2097,1.2096,1.2136,0.0,0.0,1.0937,1.1328,1.2637,1.2559,1.2754,1.4434,1.5469,1.5918,1.5469,1.7598,1.9453,1.9902,2.1426,2.25,2.25,2.2129,2.1836,2.1812,2.1441,2.1156,2.1062,2.0618,2.0333,2.0308,2.0304,2.0303,2.0292,2.0308,2.0308,2.0308,2.0308,2.0308,2.0308,2.0712,2.1115,2.1523,2.2389,2.2973,2.3346,2.4079,2.4297,2.4172,2.4516,2.4583,2.4528,2.4723,2.4804,2.479,2.4685,2.4716,2.479,2.4685,2.4809,2.4992,2.493,2.5011,2.5124,2.4949,2.4836,2.4723,2.4543,2.4436,2.4284,2.4008,2.4074,2.4132,2.3785,2.3703,2.3599,2.3271,2.3069,2.3092,2.3549,2.4077,2.4701,2.551,2.5325,2.4791,2.4008,2.3447,2.3103,2.3103,2.2629,2.2431,2.2818,2.2852,2.3139,2.3898,2.4643,2.5372,2.6099,2.6488,2.6691,2.6691,2.6691,2.6691,2.6691,2.6691,2.6691,2.6691,2.6906,2.6987,2.7003,2.7587,2.7762,1.2009,1.21,1.2328,1.2701,1.2394,1.1889,0.0,0.0,0.0,1.2148,1.1836,1.1758,1.3125,1.4062,1.459,1.4433,1.6132,1.7127,1.6087,1.8786,2.0878,2.0898,2.043,2.0135,2.0236,2.009,2.0075,2.028,1.9988,1.9948,2.0273,2.0308,2.0308,2.0308,2.0308,2.0308,2.0308,2.0308,2.0385,2.0538,2.1148,2.1633,2.2043,2.3381,2.4,2.4058,2.4651,2.474,2.4495,2.4452,2.4358,2.4237,2.4569,2.4685,2.4662,2.4503,2.4553,2.4662,2.4503,2.464,2.4891,2.4821,2.4891,2.4974,2.4842,2.4654,2.4503,2.4503,2.4367,2.4113,2.3795,2.3907,2.3947,2.3346,2.3357,2.3357,2.2822,2.266,2.2735,2.3112,2.319,2.341,2.4169,2.3915,2.3526,2.3224,2.2801,2.2499,2.2499,2.2499,2.2499,2.2499,2.2769,2.3122,2.3562,2.4423,2.5185,2.5778,2.637,2.6691,2.6691,2.6691,2.6691,2.6691,2.6691,2.6741,2.6825,2.7225,2.738,2.7334,2.8057,2.8264,1.3926,1.4285,1.4541,1.3141,1.3304,1.3211,1.0956,0.0,1.1289,1.0703,0.0,1.0508,1.0703,0.0,0.0,1.0912,1.3497,1.5049,1.3469,1.5539,1.7226,1.7281,1.789,1.8573,1.9278,1.8603,1.8715,2.0197,1.8876,1.8672,2.0212,2.0308,2.0308,2.0308,2.0308,2.0308,2.0308,2.0308,2.0654,2.1365,2.1278,2.2134,2.3793,2.3637,2.403,2.4859,2.4648,2.4534,2.4486,2.4312,2.4218,2.4199,2.4256,2.4257,2.4275,2.4247,2.4256,2.4257,2.4247,2.4384,2.4583,2.4753,2.4891,2.4974,2.4842,2.4654,2.4503,2.4503,2.4367,2.4113,2.3795,2.3724,2.3671,2.33,2.3009,2.2797,2.2721,2.2514,2.2352,2.2412,2.2415,2.2651,2.3393,2.4,2.3932,2.2617,2.2919,2.3274,2.3274,2.3274,2.3274,2.3274,2.4441,2.4983,2.4423,2.5659,2.6488,2.6573,2.664,2.6691,2.6691,2.6691,2.6691,2.6691,2.6691,2.6873,2.7224,2.7651,2.7648,2.7334,2.8057,2.8381,1.4018,1.4337,1.4436,1.3725,1.3473,1.2986,1.1406,1.0957,1.0898,1.1035,0.0,0.0,0.0,0.0,0.0,0.0,1.2585,1.3434,1.2217,1.3397,1.4777,1.5824,1.6278,1.6798,1.7555,1.7709,1.803,1.8738,1.8108,1.8238,1.9488,2.0023,2.0308,2.0308,2.0308,2.0308,2.0308,2.075,2.1116,2.134,2.2277,2.3063,2.3763,2.4097,2.4417,2.47,2.4567,2.4426,2.4321,2.4237,2.419,2.419,2.419,2.419,2.419,2.419,2.419,2.419,2.419,2.4321,2.4537,2.4738,2.4756,2.47,2.4647,2.4486,2.4284,2.4088,2.4124,2.4026,2.3311,2.3403,2.354,2.2837,2.2691,2.266,2.25,2.2374,2.2296,2.2296,2.2296,2.2533,2.3274,2.3291,2.3156,2.297,2.2835,2.3071,2.3932,2.3661,2.3562,2.4,2.4577,2.5015,2.5118,2.571,2.6234,2.6674,2.6691,2.6691,2.6691,2.6691,2.6691,2.6691,2.6691,2.6906,2.7303,2.7692,2.7908,2.796,2.8502,2.8749,1.4271,1.447,1.4353,1.3887,1.332,1.2617,1.1504,1.1113,1.1113,1.1523,1.1465,0.0,0.0,0.0,0.0,0.0,0.0,1.238,1.1263,1.1863,1.2897,1.4182,1.4957,1.5678,1.6422,1.6596,1.6946,1.7641,1.7042,1.7334,1.8915,1.9604,2.0042,2.0288,2.0308,2.0308,2.0308,2.1043,2.145,2.1567,2.2962,2.37,2.3863,2.4396,2.4602,2.4495,2.4435,2.4321,2.419,2.419,2.419,2.419,2.419,2.419,2.419,2.419,2.419,2.419,2.419,2.4321,2.452,2.4599,2.4567,2.4486,2.4426,2.4321,2.4151,2.3907,2.3955,2.3858,2.3057,2.3129,2.3248,2.2484,2.245,2.2537,2.2349,2.2296,2.2296,2.2296,2.2448,2.2784,2.3308,2.297,2.2852,2.3594,2.3241,2.3359,2.4643,2.4323,2.4205,2.4745,2.4982,2.5252,2.5575,2.5795,2.6133,2.6657,2.6691,2.6691,2.6691,2.6691,2.6691,2.6691,2.6808,2.7051,2.7472,2.7851,2.821,2.8565,2.8863,2.9005,1.5351,1.5352,1.4961,1.334,1.293,1.2441,1.0723,1.1621,1.2598,1.1777,1.2871,1.375,1.3008,1.2819,0.0,0.0,0.0,0.0,0.0,1.0893,1.1482,1.1603,1.3803,1.5612,1.6418,1.5006,1.5036,1.7507,1.5423,1.5481,1.8819,1.903,1.9431,2.0269,2.0308,2.0308,2.0308,2.09,2.163,2.2454,2.2977,2.376,2.4752,2.4383,2.433,2.4486,2.4294,2.4218,2.419,2.419,2.419,2.419,2.419,2.419,2.419,2.419,2.419,2.419,2.419,2.4321,2.4469,2.4275,2.4358,2.4461,2.4266,2.4218,2.419,2.418,2.3966,2.3621,2.3288,2.296,2.266,2.236,2.231,2.231,2.231,2.2296,2.2296,2.2296,2.2885,2.3359,2.3393,2.3376,2.3613,2.4355,2.444,2.4694,2.5473,2.5542,2.5541,2.5559,2.6201,2.6353,2.5659,2.6251,2.6674,2.6691,2.6691,2.6691,2.6691,2.6691,2.6691,2.6691,2.7083,2.747,2.7883,2.8224,2.859,2.8982,2.8994,2.9005,1.5234,1.5391,1.5137,1.3984,1.3281,1.2578,1.1365,1.1557,1.1883,1.1581,1.2416,1.3097,1.2823,0.0,0.0,0.0,0.0,0.0,0.0,1.0346,1.0762,1.1366,1.3173,1.4039,1.3214,1.359,1.4264,1.5112,1.4382,1.4901,1.7218,1.8395,1.9142,1.9439,2.0,2.0308,2.0308,2.1473,2.215,2.2313,2.3498,2.4192,2.4401,2.4257,2.4237,2.4294,2.4228,2.419,2.419,2.419,2.419,2.419,2.419,2.419,2.419,2.419,2.419,2.419,2.419,2.4247,2.4284,2.4218,2.4256,2.4284,2.4218,2.4054,2.3816,2.3599,2.3466,2.3253,2.2738,2.2639,2.2621,2.236,2.2296,2.2296,2.2296,2.2296,2.2431,2.2936,2.3224,2.3714,2.4695,2.4864,2.4949,2.5186,2.4812,2.4948,2.6167,2.5896,2.5795,2.6285,2.6539,2.659,2.6353,2.6556,2.6691,2.6691,2.6691,2.6808,2.7083,2.7099,2.7225,2.7485,2.7619,2.788,2.8237,2.8337,2.862,2.9005,2.9005,2.9005,1.5254,1.5391,1.5195,1.4315,1.3709,1.3004,1.1782,1.1969,1.2312,1.2023,1.2857,1.3616,1.361,1.3365,0.0,0.0,0.0,0.0,0.0,1.0094,1.0308,1.0867,1.2154,1.2824,1.2346,1.2731,1.3382,1.4286,1.3805,1.4365,1.6388,1.7795,1.868,1.8981,1.9772,2.0197,2.0197,2.1618,2.2261,2.2142,2.368,2.433,2.419,2.419,2.419,2.419,2.419,2.419,2.419,2.419,2.419,2.419,2.419,2.419,2.419,2.419,2.419,2.419,2.419,2.419,2.419,2.419,2.419,2.419,2.419,2.3976,2.3642,2.3437,2.32,2.2923,2.2541,2.25,2.2514,2.2335,2.2296,2.2296,2.2296,2.2296,2.2516,2.3257,2.3613,2.4186,2.5389,2.5828,2.5998,2.5998,2.5592,2.5642,2.6573,2.6285,2.6167,2.664,2.6691,2.6691,2.6691,2.6691,2.6691,2.6691,2.6824,2.7019,2.7303,2.7441,2.7651,2.7897,2.8024,2.8183,2.8407,2.8552,2.8749,2.9005,2.9005,2.9005]}]]